[[{"header":{"parameterUnit":"m.s-1","parameterCategory":1,"la1":30.6,"la2":29.2853,"lo1":-89.7004,"lo2":-87.6739,"dy":0.0162,"dx":0.0183,"nx":112,"ny":82,"refTime":"2024-09-14T12:00:00:Z","depth":0,"parameterNumber":2,"parameterNumberName":"U-component_of_WINDS"},"data":[0.0,0.0,0.0,0.0,0.0,0.0,0.0,0.0,0.0,0.0,0.0,0.0,0.0,0.0,0.0,0.0,0.0,0.0,0.0,0.0,0.0,0.0,0.0,0.0,0.0,0.0,0.0,0.0,0.0,0.0,0.0,0.0,0.0,0.0,0.0,0.0,0.0,0.0,0.0,0.0,0.0,0.0,0.0,0.0,0.0,0.0,0.0,0.0,0.0,0.0,0.0,0.0,0.0,0.0,0.0,0.0,0.0,0.0,0.0,0.0,0.0,0.0,0.0,0.0,0.0,0.0,0.0,0.0,0.0,0.0,0.0,0.0,0.0,0.0,0.0,0.0,0.0,0.0,0.0,0.0,0.0,0.0,0.0,0.0,0.0,0.0,0.0,0.0,0.0,0.0,2.0672,2.1302,2.1921,2.231,2.231,2.231,2.1623,2.0103,0.0,0.0,0.0,0.0,0.0,0.0,0.0,0.0,0.0,0.0,0.0,0.0,0.0,0.0,0.0,0.0,0.0,0.0,0.0,0.0,0.0,0.0,0.0,0.0,0.0,0.0,0.0,0.0,0.0,0.0,0.0,0.0,0.0,0.0,0.0,0.0,0.0,0.0,0.0,0.0,0.0,0.0,0.0,0.0,0.0,0.0,0.0,0.0,0.0,0.0,0.0,0.0,0.0,0.0,0.0,0.0,0.0,0.0,0.0,0.0,0.0,0.0,0.0,0.0,0.0,0.0,0.0,0.0,0.0,0.0,0.0,0.0,0.0,0.0,0.0,0.0,0.0,0.0,0.0,0.0,0.0,0.0,0.0,0.0,0.0,0.0,0.0,0.0,0.0,0.0,0.0,0.0,0.0,0.0,0.0,0.0,0.0,0.0,0.0,0.0,0.0,0.0,0.0,0.0,2.0306,2.1978,2.2243,2.231,2.231,2.231,2.1623,2.0103,0.0,0.0,0.0,0.0,0.0,0.0,0.0,0.0,0.0,0.0,0.0,0.0,0.0,0.0,0.0,0.0,0.0,0.0,0.0,0.0,0.0,0.0,0.0,0.0,0.0,0.0,0.0,0.0,0.0,0.0,0.0,0.0,0.0,0.0,0.0,0.0,0.0,0.0,0.0,0.0,0.0,0.0,0.0,0.0,0.0,0.0,0.0,0.0,0.0,0.0,0.0,0.0,0.0,0.0,0.0,0.0,0.0,0.0,0.0,0.0,0.0,0.0,0.0,0.0,0.0,0.0,0.0,0.0,0.0,0.0,0.0,0.0,0.0,0.0,0.0,0.0,0.0,0.0,0.0,0.0,0.0,0.0,0.0,0.0,0.0,0.0,0.0,0.0,0.0,0.0,0.0,0.0,0.0,0.0,0.0,0.0,0.0,0.0,0.0,0.0,0.0,0.0,0.0,2.0327,2.0898,2.2164,2.231,2.231,2.231,2.231,2.1623,2.0103,2.0002,0.0,0.0,0.0,0.0,0.0,0.0,0.0,0.0,0.0,0.0,0.0,0.0,0.0,0.0,0.0,0.0,0.0,0.0,0.0,0.0,0.0,0.0,0.0,0.0,0.0,0.0,0.0,0.0,0.0,0.0,0.0,0.0,0.0,0.0,0.0,0.0,0.0,0.0,0.0,0.0,0.0,0.0,0.0,0.0,0.0,0.0,0.0,0.0,0.0,0.0,0.0,0.0,0.0,0.0,0.0,0.0,0.0,0.0,0.0,0.0,0.0,0.0,0.0,0.0,0.0,0.0,0.0,0.0,0.0,0.0,0.0,0.0,0.0,0.0,0.0,0.0,0.0,0.0,0.0,0.0,0.0,0.0,0.0,0.0,0.0,0.0,0.0,0.0,0.0,0.0,0.0,0.0,0.0,0.0,0.0,0.0,0.0,0.0,0.0,0.0,0.0,0.0,2.113,2.1667,2.2243,2.231,2.231,2.231,2.2141,2.1465,2.0086,1.9833,0.0,0.0,0.0,0.0,0.0,0.0,0.0,0.0,0.0,0.0,0.0,0.0,0.0,0.0,0.0,0.0,0.0,0.0,0.0,0.0,0.0,0.0,0.0,0.0,0.0,0.0,0.0,0.0,0.0,0.0,0.0,0.0,0.0,0.0,0.0,0.0,0.0,0.0,0.0,0.0,0.0,0.0,0.0,0.0,0.0,0.0,0.0,0.0,0.0,0.0,0.0,0.0,0.0,0.0,0.0,0.0,0.0,0.0,0.0,0.0,0.0,0.0,0.0,0.0,0.0,0.0,0.0,0.0,0.0,0.0,0.0,0.0,0.0,0.0,0.0,0.0,0.0,0.0,0.0,0.0,0.0,0.0,0.0,0.0,0.0,0.0,0.0,0.0,0.0,0.0,0.0,0.0,0.0,0.0,0.0,0.0,0.0,0.0,0.0,0.0,0.0,0.0,2.0938,2.2243,2.231,2.231,2.231,2.231,2.1667,2.0906,2.0052,1.9367,0.0,0.0,0.0,0.0,0.0,0.0,0.0,0.0,0.0,0.0,0.0,0.0,0.0,0.0,0.0,0.0,0.0,0.0,0.0,0.0,0.0,0.0,0.0,0.0,0.0,0.0,0.0,0.0,0.0,0.0,0.0,0.0,0.0,0.0,0.0,0.0,0.0,0.0,0.0,0.0,0.0,0.0,0.0,0.0,0.0,0.0,0.0,0.0,0.0,0.0,0.0,0.0,0.0,0.0,0.0,0.0,0.0,0.0,0.0,0.0,0.0,0.0,0.0,0.0,0.0,0.0,0.0,0.0,0.0,0.0,0.0,0.0,0.0,0.0,0.0,0.0,0.0,0.0,0.0,0.0,0.0,0.0,0.0,0.0,0.0,0.0,0.0,0.0,0.0,0.0,0.0,0.0,0.0,0.0,0.0,0.0,0.0,0.0,0.0,0.0,0.0,0.0,2.0665,2.1786,0.0,2.231,2.231,2.231,2.2057,2.1363,2.0069,0.0,0.0,0.0,0.0,0.0,0.0,0.0,0.0,0.0,0.0,0.0,0.0,0.0,0.0,0.0,0.0,0.0,0.0,0.0,0.0,0.0,0.0,0.0,0.0,0.0,0.0,0.0,0.0,0.0,0.0,0.0,0.0,0.0,0.0,0.0,0.0,0.0,0.0,0.0,0.0,0.0,0.0,0.0,0.0,0.0,0.0,0.0,0.0,0.0,0.0,0.0,0.0,0.0,0.0,0.0,0.0,0.0,0.0,0.0,0.0,0.0,0.0,0.0,0.0,0.0,0.0,0.0,0.0,0.0,0.0,0.0,0.0,0.0,0.0,0.0,0.0,0.0,0.0,0.0,0.0,0.0,0.0,0.0,0.0,0.0,0.0,0.0,0.0,0.0,0.0,0.0,0.0,0.0,0.0,0.0,0.0,0.0,0.0,0.0,0.0,0.0,0.0,1.9425,2.0703,2.1735,0.0,2.231,2.231,2.231,2.1843,2.1015,1.9714,0.0,0.0,0.0,0.0,0.0,0.0,0.0,0.0,0.0,0.0,0.0,0.0,0.0,0.0,0.0,0.0,0.0,0.0,0.0,0.0,0.0,0.0,0.0,0.0,0.0,0.0,0.0,0.0,0.0,0.0,0.0,0.0,0.0,0.0,0.0,0.0,0.0,0.0,0.0,0.0,0.0,0.0,0.0,0.0,0.0,0.0,0.0,0.0,0.0,0.0,0.0,0.0,0.0,0.0,0.0,0.0,0.0,0.0,0.0,0.0,0.0,0.0,0.0,0.0,0.0,0.0,0.0,0.0,0.0,0.0,0.0,0.0,0.0,0.0,0.0,0.0,0.0,0.0,0.0,0.0,0.0,0.0,0.0,0.0,0.0,0.0,0.0,0.0,0.0,0.0,0.0,0.0,0.0,0.0,0.0,0.0,0.0,0.0,0.0,0.0,0.0,0.0,1.9464,2.1139,2.231,2.231,2.231,2.231,2.231,2.088,1.9681,0.0,0.0,0.0,0.0,0.0,0.0,0.0,0.0,0.0,0.0,0.0,0.0,0.0,0.0,0.0,0.0,0.0,0.0,0.0,0.0,0.0,0.0,0.0,0.0,0.0,0.0,0.0,0.0,0.0,0.0,0.0,0.0,0.0,0.0,0.0,0.0,0.0,0.0,0.0,0.0,0.0,0.0,0.0,0.0,0.0,0.0,0.0,0.0,0.0,0.0,0.0,0.0,0.0,0.0,0.0,0.0,0.0,0.0,0.0,0.0,0.0,0.0,0.0,0.0,0.0,0.0,0.0,0.0,0.0,0.0,0.0,0.0,0.0,0.0,0.0,0.0,0.0,0.0,0.0,0.0,0.0,0.0,0.0,0.0,0.0,0.0,0.0,0.0,0.0,0.0,0.0,0.0,0.0,0.0,0.0,0.0,0.0,0.0,0.0,0.0,0.0,0.0,0.0,1.9508,2.1139,2.231,2.231,2.231,2.231,2.231,2.1414,2.0281,1.8978,0.0,0.0,0.0,0.0,0.0,0.0,0.0,0.0,0.0,0.0,0.0,0.0,0.0,0.0,0.0,0.0,0.0,0.0,0.0,0.0,0.0,0.0,0.0,0.0,0.0,0.0,0.0,0.0,0.0,0.0,0.0,0.0,0.0,0.0,0.0,0.0,0.0,0.0,0.0,0.0,0.0,0.0,0.0,0.0,0.0,0.0,0.0,0.0,0.0,0.0,0.0,0.0,0.0,0.0,0.0,0.0,0.0,0.0,0.0,0.0,0.0,0.0,0.0,0.0,0.0,0.0,0.0,0.0,0.0,0.0,0.0,0.0,0.0,0.0,0.0,0.0,0.0,0.0,0.0,0.0,0.0,0.0,0.0,0.0,0.0,0.0,0.0,0.0,0.0,0.0,0.0,0.0,0.0,0.0,0.0,0.0,0.0,0.0,0.0,0.0,0.0,0.0,2.011,2.1423,2.231,2.231,2.2415,2.2426,2.231,2.1718,2.0687,1.9166,0.0,0.0,0.0,0.0,0.0,0.0,0.0,0.0,0.0,0.0,0.0,0.0,0.0,0.0,0.0,0.0,0.0,0.0,0.0,0.0,0.0,0.0,0.0,0.0,0.0,0.0,0.0,0.0,0.0,0.0,0.0,0.0,0.0,0.0,0.0,0.0,0.0,0.0,0.0,0.0,0.0,0.0,0.0,0.0,0.0,0.0,0.0,0.0,0.0,0.0,0.0,0.0,0.0,0.0,0.0,0.0,0.0,0.0,0.0,0.0,0.0,0.0,0.0,0.0,0.0,0.0,0.0,0.0,0.0,0.0,0.0,0.0,0.0,0.0,0.0,0.0,0.0,0.0,0.0,0.0,0.0,0.0,0.0,0.0,0.0,0.0,0.0,0.0,0.0,0.0,0.0,0.0,0.0,0.0,0.0,0.0,0.0,0.0,0.0,0.0,0.0,0.0,2.1049,2.1837,2.231,2.231,2.2537,2.2599,2.2321,2.1893,2.101,1.9502,0.0,0.0,0.0,0.0,0.0,0.0,0.0,0.0,0.0,0.0,0.0,0.0,0.0,0.0,0.0,0.0,0.0,0.0,0.0,0.0,0.0,0.0,0.0,0.0,0.0,0.0,0.0,0.0,0.0,0.0,0.0,0.0,0.0,0.0,0.0,0.0,0.0,0.0,0.0,0.0,0.0,0.0,0.0,0.0,0.0,0.0,0.0,0.0,0.0,0.0,0.0,0.0,0.0,0.0,0.0,0.0,0.0,0.0,0.0,0.0,2.0169,1.9963,0.0,0.0,0.0,0.0,0.0,0.0,0.0,0.0,0.0,0.0,0.0,0.0,0.0,0.0,0.0,0.0,0.0,0.0,0.0,0.0,0.0,0.0,0.0,0.0,0.0,0.0,0.0,0.0,0.0,0.0,0.0,0.0,0.0,0.0,0.0,0.0,0.0,0.0,0.0,0.0,2.1075,2.1837,2.231,2.231,2.2537,2.2599,2.2321,2.2104,2.1492,2.0333,1.9006,0.0,0.0,0.0,0.0,0.0,0.0,0.0,0.0,0.0,0.0,0.0,0.0,0.0,0.0,0.0,0.0,0.0,0.0,0.0,0.0,0.0,0.0,0.0,0.0,0.0,0.0,0.0,0.0,0.0,0.0,0.0,0.0,0.0,0.0,0.0,0.0,0.0,0.0,0.0,0.0,0.0,0.0,0.0,0.0,0.0,0.0,0.0,0.0,0.0,0.0,0.0,0.0,0.0,0.0,0.0,0.0,0.0,0.0,0.0,2.1789,2.1638,0.0,0.0,0.0,0.0,0.0,0.0,0.0,0.0,0.0,0.0,0.0,0.0,0.0,0.0,0.0,0.0,0.0,0.0,0.0,0.0,0.0,0.0,0.0,0.0,0.0,0.0,0.0,0.0,0.0,0.0,0.0,0.0,0.0,0.0,0.0,0.0,0.0,0.0,0.0,0.0,2.1789,2.2261,2.2554,2.2712,2.2989,2.2972,2.2527,2.2735,2.2398,2.1283,2.0336,0.0,0.0,0.0,0.0,0.0,0.0,0.0,0.0,0.0,0.0,0.0,0.0,0.0,0.0,0.0,0.0,0.0,0.0,0.0,0.0,0.0,0.0,0.0,0.0,0.0,0.0,0.0,0.0,0.0,0.0,0.0,0.0,0.0,0.0,0.0,0.0,0.0,0.0,0.0,0.0,0.0,0.0,0.0,0.0,0.0,0.0,0.0,0.0,0.0,0.0,0.0,0.0,0.0,2.4045,2.417,2.4954,2.4329,2.4181,2.4393,2.3612,2.356,2.3923,2.2927,0.0,0.0,0.0,0.0,0.0,0.0,0.0,0.0,0.0,0.0,0.0,0.0,0.0,0.0,0.0,0.0,0.0,0.0,0.0,0.0,0.0,0.0,2.1978,2.1646,2.2007,2.2289,2.1688,0.0,0.0,0.0,0.0,0.0,0.0,0.0,0.0,0.0,0.0,0.0,2.2659,2.2797,2.288,2.3165,2.35,2.3437,2.2848,2.3392,2.3361,2.2371,2.1697,2.1161,0.0,0.0,0.0,0.0,0.0,0.0,0.0,0.0,0.0,0.0,0.0,0.0,0.0,0.0,0.0,0.0,0.0,0.0,0.0,0.0,0.0,0.0,0.0,0.0,0.0,0.0,0.0,0.0,0.0,0.0,0.0,0.0,1.9182,2.0209,0.0,0.0,0.0,0.0,0.0,0.0,0.0,0.0,0.0,0.0,0.0,0.0,0.0,2.4667,2.5952,2.6152,2.6321,2.6544,2.6612,2.6714,2.6841,2.691,2.6966,2.702,2.7117,0.0,2.4839,2.4669,0.0,0.0,0.0,0.0,0.0,0.0,0.0,0.0,0.0,0.0,0.0,0.0,0.0,0.0,0.0,0.0,0.0,0.0,0.0,0.0,0.0,0.0,2.3833,2.3781,2.3856,2.3891,2.3801,2.2323,2.1185,2.1773,2.1369,2.0823,0.0,0.0,0.0,0.0,0.0,0.0,2.3005,2.3141,2.3141,2.3189,2.35,2.3544,2.3165,2.3753,2.3959,2.3487,2.3006,2.261,2.2328,2.0879,0.0,0.0,0.0,0.0,0.0,0.0,0.0,0.0,0.0,0.0,0.0,0.0,0.0,0.0,0.0,0.0,0.0,0.0,0.0,0.0,0.0,0.0,0.0,0.0,0.0,0.0,0.0,0.0,0.0,1.8914,2.0382,2.1478,2.197,2.2188,0.0,0.0,0.0,0.0,0.0,0.0,0.0,0.0,0.0,2.5511,2.5548,2.5897,2.6594,2.668,2.6962,2.7405,2.7488,2.7587,2.7698,2.7786,2.7641,2.7331,2.758,2.7198,2.6397,2.646,2.6382,2.6227,0.0,0.0,0.0,0.0,2.6073,2.6048,2.5863,2.5481,2.493,2.4138,0.0,0.0,0.0,0.0,0.0,0.0,0.0,2.4147,2.4482,2.4925,2.5324,2.5489,2.5548,2.5548,2.5548,2.4819,2.3922,2.3149,2.2585,2.2134,2.1781,2.1877,0.0,0.0,0.0,2.2747,2.3401,2.3477,2.3544,2.3735,2.3896,2.3855,2.3522,2.3917,2.4054,2.3714,2.3668,2.362,2.3505,2.226,2.1327,0.0,0.0,0.0,0.0,0.0,0.0,0.0,0.0,0.0,0.0,0.0,0.0,0.0,0.0,0.0,0.0,0.0,0.0,0.0,0.0,0.0,0.0,0.0,0.0,0.0,0.0,0.0,0.0,2.0578,2.1719,2.2813,2.3309,2.3472,0.0,0.0,0.0,0.0,0.0,0.0,2.564,2.5695,2.608,2.6888,2.6906,2.7016,2.7218,2.7218,2.7512,2.8117,2.8117,2.819,2.8322,2.8403,2.8185,2.7785,2.8036,2.815,2.8112,2.7797,2.7657,2.7586,2.7443,2.7354,2.7305,2.7369,2.7384,2.7414,2.7599,2.7249,2.6618,2.601,2.5634,2.525,2.4381,0.0,0.0,0.0,0.0,2.5804,2.6144,2.6213,2.6299,2.6551,2.6612,2.6612,2.6612,2.653,2.606,2.4711,2.4244,2.3957,2.3626,2.3791,0.0,2.3601,0.0,2.3996,2.4121,2.4145,2.4135,2.4189,2.419,2.4094,2.3837,2.4054,2.4094,2.3837,2.4074,2.419,2.419,2.3431,2.2876,2.2616,0.0,0.0,0.0,0.0,0.0,0.0,0.0,0.0,0.0,0.0,0.0,0.0,0.0,0.0,0.0,0.0,0.0,0.0,0.0,0.0,0.0,0.0,0.0,0.0,0.0,0.0,0.0,0.0,0.0,2.4058,2.5454,0.0,0.0,0.0,0.0,2.6429,2.6429,2.6447,2.6539,2.6539,2.6906,2.7714,2.7732,2.8117,2.8865,2.8865,2.8883,2.892,2.892,2.8943,2.8966,2.9233,2.9319,2.9322,2.9696,2.9865,2.9766,2.8425,2.7762,2.7599,2.7586,2.7471,2.732,2.7513,2.7586,2.7612,2.7816,2.786,2.7802,2.7775,2.7446,2.6992,2.6486,2.6209,0.0,0.0,2.608,2.6144,2.649,2.6573,2.6573,2.6612,2.6612,2.6612,2.6612,2.6362,2.6195,2.642,2.6442,2.6319,2.5995,0.0,2.5948,2.593,2.593,2.5792,2.536,2.5309,2.5034,2.4281,2.419,2.419,2.417,2.419,2.419,2.417,2.419,2.419,2.419,2.4153,2.3634,2.2616,2.247,0.0,0.0,0.0,0.0,0.0,0.0,0.0,0.0,0.0,0.0,0.0,0.0,0.0,0.0,0.0,0.0,0.0,0.0,0.0,0.0,0.0,0.0,0.0,0.0,0.0,0.0,0.0,0.0,2.5274,2.6121,0.0,2.6631,2.7094,2.7805,2.8851,2.8925,2.9145,2.9659,2.9677,2.9824,3.0099,3.0118,3.0246,3.054,3.054,3.054,3.054,3.054,3.036,3.0046,3.0132,2.9959,2.9607,2.9877,2.9999,2.9956,2.9646,2.9471,2.9397,2.9397,2.936,2.9302,2.9372,2.9397,2.9416,2.9483,2.914,2.8648,2.8523,2.8368,2.8268,2.8481,2.8484,2.8386,2.8257,2.8215,2.8212,2.8158,2.8132,2.8132,2.8132,2.8132,2.8132,2.8132,2.8045,2.8004,2.8132,2.7141,2.6254,2.6103,2.6277,2.6362,2.6144,2.6277,2.6359,2.6188,2.6172,2.586,2.5052,2.498,2.4759,2.4245,2.419,2.419,2.419,2.419,2.419,2.419,2.419,2.4023,2.3634,2.3123,2.1732,0.0,0.0,0.0,0.0,0.0,0.0,0.0,0.0,0.0,0.0,0.0,0.0,0.0,0.0,0.0,0.0,0.0,0.0,0.0,0.0,0.0,0.0,0.0,0.0,0.0,0.0,2.581,2.6949,2.7748,2.8233,2.827,2.8722,2.9457,3.0522,3.0595,3.0834,3.1366,3.1384,3.1384,3.1384,3.1384,3.1384,3.1384,3.1384,3.1384,3.1384,3.1384,3.1212,3.088,3.0971,3.0801,3.0434,3.0728,3.0871,3.0905,3.1143,3.1237,3.1198,3.0609,3.0398,3.0398,3.0398,3.0398,3.0398,3.0398,3.0025,2.9533,2.9385,2.9478,2.9717,3.0111,3.0387,3.0469,3.0058,2.9866,2.9688,2.9255,2.9067,2.8994,2.8994,2.8994,2.8994,2.8994,2.8994,2.8994,2.8994,2.7958,2.7077,2.7077,2.725,2.7291,2.694,2.7187,2.7266,2.6845,2.6915,2.6704,2.5878,2.5568,2.5182,2.4649,2.4355,2.4228,2.4303,2.4303,2.4321,2.441,2.4229,2.4116,2.4116,2.327,2.2042,2.0422,0.0,0.0,0.0,0.0,0.0,0.0,0.0,0.0,0.0,0.0,0.0,0.0,0.0,0.0,0.0,0.0,0.0,0.0,0.0,0.0,0.0,0.0,0.0,2.527,2.7109,2.8669,2.9025,3.0448,3.1091,3.0356,3.098,3.1439,3.1458,3.1458,3.1458,3.1458,3.1458,3.1458,3.1458,3.1458,3.1458,3.1458,3.1458,3.1458,3.1458,3.1458,3.1483,3.147,3.1727,3.1843,3.1867,3.2383,3.26,3.2615,3.2826,3.2891,3.2737,3.1121,3.0475,3.0475,3.0475,3.0475,3.0475,3.0475,3.0475,3.0475,3.0475,3.0874,3.1344,3.1344,3.1751,3.207,3.1277,3.0866,3.048,2.9694,2.9259,2.9053,2.9053,2.9053,2.903,2.903,2.9049,2.9067,2.9067,2.9067,2.9049,2.8994,2.9012,2.89,2.8471,2.8767,0.0,2.7405,2.7606,2.753,2.6701,2.5933,2.5476,2.5419,2.4685,2.4321,2.4532,2.453,2.4591,2.479,2.4296,2.4026,2.4007,2.3022,2.2179,2.1534,0.0,0.0,0.0,0.0,0.0,0.0,0.0,0.0,0.0,0.0,0.0,0.0,0.0,0.0,0.0,0.0,0.0,0.0,0.0,0.0,0.0,2.6906,2.8242,2.7935,2.8955,2.999,3.0668,3.1127,3.1531,3.1916,3.2155,3.2504,3.3091,3.3128,3.3128,3.3128,3.3128,3.3128,3.3128,3.3128,3.3128,3.3128,3.3128,3.3128,3.3128,3.3128,3.305,3.2847,3.2931,3.2845,3.2611,3.2746,3.2826,3.2826,3.2878,3.2891,3.2852,3.2391,3.2218,3.2218,3.2218,3.2218,3.2218,3.2218,3.2218,3.2218,3.2218,3.2327,3.2461,3.2461,3.2588,3.2632,3.2267,3.211,3.195,3.1525,3.0804,3.0166,3.0166,3.0009,2.9879,2.9879,3.0338,3.0742,3.0742,3.0742,3.0375,2.9195,2.9494,2.9612,2.8931,2.9423,2.9538,2.8625,2.8599,2.8246,2.7157,2.7104,2.6783,2.5901,2.5496,2.53,2.5371,2.496,2.4746,2.4804,2.4663,2.4503,2.4372,2.3176,2.247,0.0,0.0,0.0,0.0,0.0,0.0,0.0,0.0,0.0,0.0,0.0,0.0,0.0,0.0,0.0,0.0,0.0,0.0,0.0,0.0,0.0,0.0,2.8943,3.0522,3.0522,3.0925,3.1513,3.2302,3.2412,3.2577,3.3073,3.3109,3.3311,3.3752,3.3807,3.3807,3.3807,3.3807,3.3807,3.3807,3.3807,3.3807,3.3807,3.3807,3.3807,3.3807,3.3807,3.3739,3.3575,3.3836,3.3828,3.3665,3.3901,3.3987,3.3987,3.3987,3.3987,3.393,0.0,0.0,0.0,0.0,3.2891,3.2891,3.2891,3.2891,3.2891,3.2891,3.3141,3.343,3.343,3.3699,3.3884,3.3417,3.3196,3.2988,3.2511,3.1826,3.1238,3.1115,3.098,3.0863,3.0863,3.1157,3.1434,3.1542,3.1464,0.0,3.0173,3.0393,3.0491,2.9885,3.0021,2.9978,2.932,2.9106,2.8745,2.8027,2.7858,2.7545,2.6933,2.6447,0.0,0.0,0.0,2.5754,2.5253,2.5219,0.0,0.0,0.0,0.0,0.0,0.0,0.0,0.0,2.2607,2.3045,0.0,0.0,0.0,0.0,0.0,0.0,0.0,0.0,0.0,0.0,0.0,0.0,0.0,0.0,0.0,0.0,3.1146,3.2632,3.2724,3.2742,3.2999,3.3715,3.3807,3.3807,3.3807,3.3807,3.3807,3.3807,3.388,3.3935,3.3935,0.0,0.0,0.0,0.0,3.4027,3.3935,3.3935,3.3899,3.3807,3.3807,3.3842,3.3902,3.4461,3.4734,3.4832,3.5289,3.5493,3.5493,3.5493,3.5493,3.5353,3.3795,3.3199,3.3199,3.3199,3.3199,3.3199,3.3199,0.0,0.0,3.3199,3.3718,3.4353,3.4353,3.4891,3.5353,3.4564,3.418,3.3815,3.3108,3.2659,3.2317,3.2062,3.1998,3.1976,3.1976,3.1867,3.1843,3.2079,3.1941,3.1765,3.1716,3.1611,3.1393,3.1012,3.0695,3.0314,2.987,2.9418,2.9122,2.9057,2.8411,0.0,2.8181,2.7531,2.729,2.7706,2.7669,2.7159,2.6081,2.6015,2.5925,2.5733,2.5716,2.6112,2.6952,2.6952,2.6878,2.6728,2.4649,2.4603,0.0,0.0,0.0,0.0,0.0,0.0,0.0,0.0,0.0,0.0,0.0,0.0,0.0,0.0,0.0,3.0797,3.188,3.2834,3.3476,3.3568,3.3623,3.377,3.3807,3.3807,3.3807,3.3807,3.3807,3.3807,3.4412,3.4752,3.4752,3.544,3.5826,3.5826,3.5826,3.5477,3.4752,3.4752,3.4449,3.3807,3.3807,0.0,3.4526,3.4653,3.4944,3.5354,3.5446,3.5493,3.5493,3.5493,3.5493,3.5468,3.5141,3.5007,3.5007,3.5007,3.5007,3.5007,3.5007,3.5007,3.5007,3.5007,3.5122,3.5257,3.5257,3.5372,0.0,3.5295,3.521,3.5144,3.4971,3.4221,3.347,3.342,3.3242,3.3089,3.3089,3.3594,3.4081,3.4122,3.4101,3.3974,3.3706,3.2939,3.2129,3.1419,3.1774,3.1873,3.1144,3.0424,2.9838,2.9507,2.9251,2.8971,2.8684,2.8518,2.8474,2.8564,2.8102,2.775,2.7505,2.7338,2.7227,2.72,2.7036,2.7038,2.7226,2.7226,2.7431,2.779,2.6542,2.6505,0.0,0.0,0.0,0.0,0.0,0.0,0.0,0.0,0.0,0.0,0.0,2.8062,2.8851,0.0,3.1054,3.1861,3.2687,3.3348,3.3733,3.3807,3.3807,3.3807,3.3807,3.3807,3.3807,3.4174,3.4412,3.4412,3.5183,3.5661,3.5661,3.6064,3.6303,3.6303,3.6303,3.6083,3.5661,3.5661,3.5459,3.5055,3.5055,3.5066,3.5102,3.5254,3.5287,3.5304,3.5446,3.5493,3.5493,3.5493,3.5493,3.5493,3.5493,3.5493,3.5493,3.5493,3.5493,3.5493,3.5493,3.5493,3.5493,3.5493,3.5493,3.5493,3.5493,3.5493,3.5493,3.5493,3.5493,3.5493,3.5493,3.5072,3.4619,3.4486,3.435,3.4243,3.4243,3.4491,3.4734,3.487,3.4793,3.4653,3.4486,3.3878,3.3222,3.2676,3.2596,3.2467,3.2045,3.1292,3.0785,3.0717,3.0283,2.9994,3.0039,2.9772,2.9596,2.9596,2.9325,2.8967,2.8525,2.8411,2.8344,2.8344,2.8249,2.855,2.93,2.93,2.959,3.0133,2.9643,2.9272,0.0,0.0,0.0,0.0,0.0,0.0,0.0,0.0,2.6686,2.7642,2.883,2.9892,3.0558,3.1311,3.2082,3.2742,3.3385,3.3807,3.3807,3.3807,3.3807,3.3807,3.3807,3.3862,3.4027,3.4633,3.5064,3.5229,3.6046,3.6523,3.6523,3.667,3.6762,3.6762,3.6762,3.6688,3.6523,3.6523,3.645,3.6303,3.6303,3.6122,3.5805,3.6039,3.595,3.5684,3.5897,3.5988,3.5988,3.5988,3.5988,3.5988,3.5988,3.5988,3.5949,3.5622,3.5493,3.5493,3.5493,3.5493,3.5493,3.5493,3.5493,3.5493,3.5493,3.5493,3.5493,3.5493,3.5493,3.5493,3.5493,3.5493,3.5446,3.5223,3.519,3.519,3.519,3.4999,3.4926,3.5138,3.4999,3.4851,3.4793,3.4553,3.4288,3.403,3.3368,3.2944,3.2994,3.225,3.1811,3.207,3.1379,3.1111,3.1569,3.1181,3.0891,3.0891,3.0891,3.0564,2.9871,2.9833,2.9833,2.9833,2.9833,3.0426,3.1599,3.1599,3.1832,3.2294,3.2445,3.1824,2.6236,2.7082,2.789,2.8472,2.8472,2.8921,0.0,0.0,3.0251,3.1073,3.1774,3.2228,3.232,3.2999,3.355,3.3642,3.3733,3.3807,3.3807,3.3807,3.3807,3.3807,3.3807,3.4082,3.4789,3.4935,3.5302,3.6101,3.689,3.7349,3.7349,3.8046,3.8432,3.8432,3.8432,3.8083,3.7349,3.7349,3.7,3.6303,3.6303,3.6515,3.6914,3.6958,3.7224,3.7689,3.7704,3.7719,3.7719,3.7719,3.7719,3.7719,3.7719,3.7719,3.7546,3.6065,3.5493,3.5493,3.5493,3.5493,3.5493,3.5493,3.5493,3.5493,3.5493,3.5493,3.5493,3.5493,3.5493,3.5493,3.5493,3.5493,3.5493,3.546,3.5465,3.5465,3.5465,3.5432,3.5432,3.5446,3.5432,3.532,3.5105,3.5016,3.4907,3.4653,3.4259,3.4134,3.4438,3.3493,3.2929,3.3183,3.2505,3.2215,3.2685,3.2667,3.2622,3.2622,3.2622,3.2583,3.2487,3.2468,3.2468,3.2468,3.2468,3.2551,3.2712,3.2712,3.267,3.2569,3.3296,3.3028,2.7698,2.8313,0.0,0.0,2.9997,3.0543,3.145,3.1468,3.1651,3.2929,3.361,3.4156,3.4669,3.5037,3.5238,0.0,3.5238,3.5238,3.5238,3.4816,3.4504,3.4504,3.4504,3.4623,3.4954,3.5881,3.6597,3.6964,3.7734,3.8193,3.8193,3.8524,3.8707,3.8707,3.8707,3.8542,3.8193,3.8193,3.8028,3.7698,3.7839,3.7884,3.7807,3.8016,3.8058,3.8007,3.8007,3.8007,3.8007,3.8007,3.8007,3.8007,3.8007,3.8007,3.7911,3.7219,3.6642,3.6199,3.6199,3.5892,3.5493,3.5493,3.5493,3.5493,3.5493,3.5493,3.5493,3.5493,3.5493,3.5622,3.6084,3.6199,3.6334,3.6834,3.6949,3.6815,3.6315,3.6199,3.6065,3.5603,3.5493,3.546,3.5354,3.5207,3.5105,3.5174,3.4774,3.4551,3.4674,3.4271,3.3898,3.3654,3.3468,3.3245,3.2936,3.2891,3.2891,3.2891,3.2891,3.2891,3.2891,3.2891,3.2891,3.2891,3.2891,3.3141,3.366,3.366,3.3871,3.4299,3.4625,3.4542,2.8429,0.0,0.0,3.0644,3.1536,3.2225,3.2422,3.2711,3.3306,3.4623,3.5143,3.5569,3.6174,3.6303,3.6303,3.6303,3.6303,3.6303,3.6303,3.5569,3.499,3.499,3.499,3.5082,3.5349,3.6652,3.7569,3.7808,3.8377,3.8707,3.8707,3.8707,3.8707,3.8707,3.8707,3.8707,3.8707,3.8707,3.8707,3.8707,3.8894,3.8861,3.8652,3.907,3.9059,3.8681,3.8681,3.8681,3.8681,3.8681,3.8681,3.8681,3.8681,3.8681,3.8681,3.8681,3.8007,3.7065,3.7065,3.668,3.6161,3.5911,3.5834,3.5795,3.5584,3.5493,3.5565,3.5776,3.5834,3.6026,3.6853,3.7065,3.7219,3.7853,3.8007,3.7834,3.7199,3.7065,3.6892,3.6295,3.6199,3.6122,3.5872,3.568,3.5538,3.5498,3.5174,3.4926,3.4926,3.4926,3.4716,3.4211,3.4395,3.4295,3.368,3.3622,3.3622,3.3622,3.3622,3.3622,3.3622,3.3622,3.3622,3.3622,3.3622,3.393,3.4564,3.4564,3.4872,3.5493,3.5493,3.5493,0.0,0.0,3.0763,3.241,3.3468,3.4471,3.5827,3.595,3.5945,3.6497,3.6444,3.6266,3.6303,3.6303,3.6303,3.6303,3.6303,3.6303,3.6303,3.5569,3.499,3.499,3.499,3.5349,3.6174,3.7,3.7808,3.8597,3.8689,3.8707,3.8707,3.8707,3.8707,3.8707,3.8707,3.8707,3.8707,3.8707,3.8707,3.8707,3.8707,3.9008,3.9584,4.0192,4.0431,4.0412,4.0412,4.0412,4.0412,4.0412,4.0412,4.0412,4.0412,4.0412,4.0412,4.0412,3.9373,3.7969,3.7969,3.795,3.7777,3.6949,3.6661,3.6526,3.5738,3.5493,3.5661,3.6449,3.6661,3.6873,3.7738,3.7969,3.7969,3.7988,3.8007,3.7988,3.7969,3.7969,3.795,3.793,3.7911,3.7661,3.6815,3.6647,3.6397,3.5608,3.5493,3.5479,3.5479,3.5479,3.5383,3.5083,3.5296,3.5449,3.543,3.543,3.543,3.543,3.543,3.543,3.543,3.543,3.543,3.543,3.543,3.543,3.5468,3.5468,3.5468,3.5493,3.5493,3.5493,0.0,0.0,3.2333,3.3468,3.4697,3.5673,3.5969,3.6246,3.6597,3.7128,3.672,3.645,3.6982,3.7092,3.7092,3.7092,3.7533,3.79,3.79,3.7184,3.6652,3.6652,3.6652,0.0,0.0,0.0,0.0,3.8634,3.8707,3.8707,3.8707,3.8707,3.8707,3.8707,3.8707,3.8707,3.8707,3.8707,3.8707,3.8707,3.9119,3.9622,4.0193,4.0406,4.0489,4.0489,4.0489,4.0489,4.0489,4.0489,4.0489,4.0489,4.0489,4.0489,4.0489,4.0489,4.0142,3.9585,3.9046,3.8469,3.795,3.7661,3.7565,3.7507,3.7238,3.7161,3.7219,3.7488,3.7565,3.7757,3.8642,3.8854,3.8988,3.9527,3.9662,3.9508,3.8969,3.8854,3.8681,3.8104,3.8007,3.7911,3.7603,3.7565,3.7276,3.643,3.5853,3.5493,3.5493,3.5493,3.5479,3.5369,3.5446,3.5493,3.5493,3.5493,3.5493,3.5493,3.5493,3.5493,3.5493,3.5493,3.5493,3.5493,3.5493,3.5493,3.5493,3.5493,3.5493,3.5493,3.5493,3.5493,3.0852,3.2083,3.3244,3.4602,3.5627,3.635,3.6566,3.6894,3.7198,3.7456,3.7074,3.6798,3.7019,3.7055,3.7165,3.747,3.7918,3.8377,3.867,3.801,3.7507,3.7507,3.7507,3.7606,0.0,0.0,0.0,3.8689,3.8964,3.9001,3.8726,3.8964,3.9001,3.8707,3.8982,3.9001,3.8707,3.9276,3.9448,3.9268,3.9889,4.025,4.0356,4.0457,4.0489,4.0489,4.0489,4.0489,4.0489,4.0489,4.0489,4.0489,4.0489,4.0489,4.0489,4.0489,4.0489,4.0431,3.9912,3.9354,3.8854,3.8565,3.845,3.8411,3.8084,3.8007,3.8065,3.8373,3.845,3.8661,3.9508,3.9719,3.9854,4.0373,4.0489,4.0354,3.9835,3.9719,3.9546,3.8988,3.8892,3.8796,3.8507,3.82,3.7815,3.7257,3.6719,3.618,3.5584,3.5493,3.5493,3.5493,3.5493,3.5493,3.5493,3.5493,3.5493,3.5493,3.5493,3.5493,3.5493,3.5493,3.5493,3.5493,3.5493,3.5493,3.5493,3.5493,3.5493,3.5526,3.5795,3.593,3.2468,3.3006,3.3607,3.5768,3.6384,3.6691,3.7704,3.7917,3.7829,3.7577,3.7434,3.711,3.6321,0.0,3.6541,3.7239,3.7459,3.7826,3.8597,3.8028,3.7551,0.0,0.0,0.0,0.0,0.0,0.0,3.8891,0.0,3.9625,3.8872,3.9551,3.9606,3.8854,3.9551,3.9588,3.8836,4.0341,4.0874,4.0439,4.1067,4.0959,4.0196,4.0449,4.0527,4.0489,4.0489,4.0489,4.0489,4.0489,4.0489,4.0489,4.0489,4.0489,4.0489,4.0489,4.0489,4.0489,4.0489,4.0489,4.0354,3.9604,3.9354,3.92,3.8373,3.8123,3.8296,3.9123,3.9354,3.9527,4.0296,4.0489,4.0489,4.0489,4.0489,4.0489,4.0489,4.0489,4.0489,4.0489,4.0489,4.0258,3.9488,3.8642,3.8065,3.8065,3.8027,3.743,3.5834,3.5641,3.5641,3.5641,3.5641,3.5641,3.5641,3.5603,3.5565,3.5565,3.5512,3.5493,3.5493,3.5493,3.5493,3.5493,3.5532,3.5565,3.5565,3.5622,3.5641,3.5661,3.6411,3.6776,3.2622,3.4295,3.5878,3.6454,3.7383,3.8233,3.8512,3.8216,3.788,3.7801,3.6648,3.5404,3.4596,0.0,0.0,3.5716,3.7202,0.0,3.867,3.8524,0.0,3.8395,0.0,3.9368,3.957,4.0322,0.0,0.0,4.0689,4.0708,4.0506,4.0689,4.0708,4.0506,4.0708,4.0708,4.0506,4.1132,4.164,4.2025,4.2195,4.1954,4.1368,4.1437,4.1104,4.0489,4.0489,4.0489,4.0489,4.0489,4.0489,4.0489,4.0489,4.0489,4.0489,4.0489,4.0489,4.0489,4.0489,4.0489,4.0469,4.0258,4.0181,4.0142,3.9931,3.9854,3.9912,4.0123,4.0181,4.0239,4.045,4.0489,4.0489,4.0489,4.0489,4.0489,4.0489,4.0489,4.0489,4.0489,4.0489,4.0431,4.0219,3.9508,3.8969,3.8969,3.8411,3.7853,3.743,3.7353,3.7353,3.7353,3.7353,3.7353,3.7353,3.6776,3.6392,3.6392,3.5834,3.5493,3.5493,3.5493,3.5493,3.5493,3.6103,3.6392,3.6411,3.7046,3.7353,3.7373,3.7565,3.768,3.3814,3.5353,3.6767,3.6983,3.7922,3.8671,3.8172,3.8064,3.7635,3.6087,3.5458,0.0,3.3044,3.4376,0.0,0.0,0.0,0.0,3.8652,3.8707,3.8707,0.0,3.9717,0.0,4.0432,4.1479,4.2158,0.0,4.1827,4.1479,4.113,4.1442,4.1479,4.113,4.1442,4.1871,4.2377,4.2519,4.2787,4.3134,4.3292,4.3003,4.2374,4.2374,4.2104,4.1643,4.1643,4.1412,4.1066,4.1066,4.0854,4.0489,4.0489,4.0489,4.0489,4.0489,4.0489,4.0489,4.0489,4.0489,4.0489,4.0489,4.0489,4.0489,4.0489,4.0489,4.0489,4.0489,4.0489,4.0489,4.0489,4.0489,4.0489,4.0489,4.0489,4.0489,4.0489,4.0489,4.0489,4.0489,4.0489,4.0489,4.0489,4.0123,3.9815,3.9815,3.9411,3.9104,3.9104,3.845,3.8007,3.8007,3.8007,3.8007,3.8007,3.7546,3.7276,3.7276,3.6853,3.6603,3.6603,3.6238,3.6045,3.6045,3.6469,3.6699,3.6699,3.7565,3.8007,3.8007,3.8392,3.8565,3.5257,3.6103,3.681,3.729,3.8058,3.8385,3.7312,3.7451,3.6927,3.3713,0.0,3.4185,3.1716,3.3128,3.4715,3.4807,0.0,3.7643,3.8579,3.8799,3.8817,3.8707,4.0212,4.124,4.113,4.2561,4.3497,4.3497,4.2837,4.2158,4.1479,4.2084,4.2173,4.1507,4.2198,4.31,4.4146,4.4085,4.4052,4.4033,4.4325,4.4047,4.3258,4.3258,4.3201,4.3104,4.3104,4.2604,4.1797,4.1797,4.1296,4.0489,4.0489,4.0489,4.0489,4.0489,4.0489,4.0489,4.0489,4.0489,4.0489,4.0489,4.0489,4.0489,4.0489,4.0489,4.0489,4.0489,4.0489,4.0489,4.0489,4.0489,4.0489,4.0489,4.0489,4.0489,4.0489,4.0489,4.0489,4.0489,4.0489,4.0489,4.0489,4.0489,4.0489,4.0489,4.0489,4.0489,4.0489,3.9219,3.8334,3.8334,3.8334,3.8334,3.8334,3.8238,3.8161,3.8161,3.8065,3.8007,3.8007,3.7276,3.6815,3.6699,3.693,3.6988,3.6873,3.7853,3.8334,3.8354,3.9104,3.945,3.5257,3.6103,3.6724,3.6829,3.7487,3.7909,3.698,3.6024,0.0,0.0,3.2691,3.1753,3.0613,3.1843,0.0,3.3899,0.0,0.0,0.0,0.0,3.9441,0.0,0.0,0.0,0.0,0.0,0.0,0.0,4.3369,4.3222,4.3075,4.3222,4.3354,4.3485,4.3952,4.4429,4.49,4.49,4.5032,4.5302,4.5337,4.4913,4.4085,4.4085,4.372,4.3104,4.3104,4.2604,4.1797,4.1797,4.1296,4.0489,4.0489,4.0489,4.0489,4.0489,4.0489,4.0489,4.0489,4.0489,4.0489,4.0489,4.0489,4.0489,4.0489,4.0489,4.0489,4.0489,4.0489,4.0489,4.0489,4.0489,4.0489,4.0489,4.0489,4.0489,4.0489,4.0489,4.0489,4.0489,4.0489,4.0489,4.0489,4.0489,4.0489,4.0489,4.0489,4.0489,4.0489,4.0239,4.0065,4.0065,4.0065,4.0065,4.0065,3.945,3.9065,3.9065,3.8392,3.8007,3.8007,3.7853,3.745,3.6719,3.8104,3.8488,3.7777,3.9315,4.0065,4.0065,4.0219,4.0277,3.5257,3.6103,3.6699,3.6699,3.7353,3.7546,3.5795,0.0,0.0,0.0,3.1652,3.1359,2.9834,0.0,0.0,0.0,0.0,0.0,0.0,0.0,0.0,0.0,0.0,0.0,0.0,0.0,0.0,4.3497,4.3497,4.3497,4.3497,4.3679,4.3818,4.3998,4.4561,4.4943,4.5096,4.5263,4.5438,4.5586,4.5586,4.5374,4.497,4.497,4.4759,4.4393,4.4393,4.3662,4.2489,4.2489,4.17,4.0489,4.0489,4.0489,4.0489,4.0489,4.0489,4.0508,4.0581,4.0562,4.0508,4.0581,4.0562,4.0489,4.0489,4.0489,4.0489,4.0489,4.0489,4.0489,4.0489,4.0489,4.0489,4.0489,4.0562,4.062,4.0658,4.0639,4.06,4.06,4.0562,4.0489,4.0489,4.0489,4.0489,4.0489,4.0489,4.0489,4.0489,4.0489,4.0489,4.0489,4.0489,4.0489,4.0489,4.0142,3.9912,3.9912,3.9527,3.9296,3.9296,3.845,3.8027,3.8046,3.843,3.8642,3.8681,3.9892,4.0489,4.0489,4.0489,4.0489,3.5315,3.5968,3.6449,3.6449,3.6921,3.6772,3.4449,3.4375,0.0,0.0,3.0715,3.1069,2.931,0.0,0.0,0.0,0.0,0.0,0.0,0.0,0.0,0.0,0.0,0.0,0.0,0.0,0.0,4.3497,4.3497,4.3548,4.3597,4.3943,4.4146,4.4214,4.4877,4.5201,4.5201,4.5476,4.5586,4.5586,4.5586,4.5586,4.5586,4.5586,4.5586,4.5586,4.5393,4.447,4.3085,4.2893,4.1893,4.0489,4.0489,4.0489,4.0489,4.0489,4.0508,4.0562,4.0658,4.0631,4.0545,4.0673,4.062,4.0489,4.0489,4.0489,4.0489,4.0489,4.0489,4.0489,4.0489,4.0508,4.0562,4.0562,4.0641,4.0737,4.0795,4.0756,4.0709,4.0712,4.0639,4.0562,4.0562,4.0562,4.0562,4.0562,4.0562,4.0543,4.0543,4.0508,4.0489,4.0489,4.0489,4.0489,4.0489,4.0489,4.0489,4.0489,4.0335,4.0239,4.0239,3.8796,3.8238,3.8719,3.843,3.8527,3.9008,4.0008,4.0489,4.0489,4.0489,4.0489,3.5488,3.5551,3.5622,3.5622,3.5492,3.4958,3.3371,0.0,0.0,3.0091,2.9683,2.9518,2.9081,2.9177,0.0,0.0,0.0,0.0,0.0,0.0,0.0,0.0,0.0,0.0,0.0,0.0,0.0,4.3497,4.3497,4.3612,4.3924,4.4337,4.4682,4.4988,4.5362,4.5568,4.5568,4.5586,4.5586,4.5586,4.5586,4.5586,4.5586,4.5586,4.5586,4.5547,4.4759,4.3912,4.3047,4.2258,4.1354,4.0489,4.0489,4.0489,4.0489,4.0489,4.0581,4.0677,4.0696,4.0687,4.0676,4.0694,4.062,4.0489,4.0489,4.0489,4.0489,4.0489,4.0489,4.0489,4.0489,4.06,4.0696,4.0754,4.0788,4.0788,4.0807,4.0807,4.0781,4.0791,4.0773,4.0773,4.0773,4.0773,4.0773,4.0773,4.0716,4.0677,4.0677,4.0581,4.0489,4.0489,4.0489,4.0489,4.0489,4.0489,4.0489,4.0489,3.9796,3.9411,3.9411,3.8507,3.768,3.6949,3.8411,3.8834,3.8123,3.9719,4.0489,4.0489,4.0489,4.0489,3.5218,3.5493,3.5493,3.5493,3.5028,3.4256,3.3147,0.0,3.1466,2.9992,2.9644,2.9456,2.9067,2.8994,2.9641,0.0,0.0,0.0,0.0,0.0,0.0,0.0,0.0,0.0,0.0,0.0,4.3597,4.3772,4.3804,4.4046,4.4638,4.4631,4.4732,4.5096,4.5419,4.5586,4.5586,4.5586,4.5586,4.5586,4.5586,4.5586,4.5586,4.5586,4.5297,4.4797,4.4451,4.3547,4.2297,4.195,4.1296,4.0489,4.0489,4.0562,4.062,4.062,4.0677,4.0773,4.085,4.0797,4.0699,4.0752,4.0696,4.062,4.0508,4.0489,4.0489,4.0489,4.0489,4.0508,4.06,4.0681,4.0781,4.0892,4.091,4.0934,4.1022,4.0971,4.0922,4.0908,4.0857,4.0807,4.0807,4.0807,4.0807,4.0807,4.0787,4.0757,4.0766,4.0716,4.0677,4.0677,4.0581,4.0489,4.0489,4.0581,4.0392,3.9858,3.9608,3.9219,3.8599,3.7777,3.7642,3.8257,3.843,3.8834,3.9508,4.0162,4.0489,4.0489,4.0489,4.0489,3.4718,3.5315,3.5493,3.5493,3.4793,3.3862,0.0,3.2218,3.1235,3.0035,2.978,2.9642,2.9203,2.9112,2.9531,0.0,0.0,3.2816,0.0,0.0,0.0,0.0,0.0,0.0,0.0,0.0,4.3912,4.4146,4.4175,4.4455,4.5074,4.4872,4.4896,4.5243,4.5476,4.5586,4.5586,4.5586,4.5586,4.5586,4.5586,4.5586,4.5586,4.5316,4.4874,4.4278,4.3778,4.2893,4.1777,4.1527,4.1085,4.0562,4.0562,4.0639,4.0731,4.0717,4.0781,4.087,4.0966,4.0905,4.0805,4.0847,4.0793,4.0712,4.0615,4.0593,4.06,4.06,4.06,4.062,4.0754,4.0823,4.0888,4.1031,4.1059,4.109,4.1185,4.1133,4.1055,4.1055,4.0974,4.092,4.092,4.092,4.092,4.092,4.0881,4.0857,4.0858,4.0822,4.0797,4.0797,4.0662,4.0582,4.0581,4.0677,4.0361,3.9515,3.9303,3.8782,3.781,3.7236,3.7334,3.8219,3.8387,3.8926,3.9835,4.035,4.06,4.06,4.06,4.0581,3.3968,3.4834,3.5493,3.5493,3.4653,3.3662,0.0,3.2072,3.1051,3.0189,2.9999,2.9877,2.9474,2.9392,2.9588,3.0129,3.1549,0.0,0.0,0.0,0.0,0.0,0.0,0.0,0.0,0.0,4.458,4.458,4.458,0.0,4.5074,4.5096,4.5243,4.5586,4.5586,4.5586,4.5586,4.5586,4.5586,4.5586,4.5586,4.5586,4.5566,4.4701,4.4316,4.4201,4.2547,4.1816,4.1739,4.0873,4.06,4.0696,4.0696,4.0735,4.08,4.0811,4.0873,4.0985,4.0985,4.0993,4.1008,4.0989,4.0908,4.081,4.0801,4.0792,4.0793,4.0793,4.0793,4.0831,4.0947,4.1001,4.1029,4.1175,4.1191,4.1191,4.1191,4.1191,4.1191,4.1191,4.1191,4.1191,4.1191,4.1191,4.1191,4.1191,4.1074,4.0996,4.0996,4.0881,4.0793,4.0793,4.0793,4.0801,4.0804,4.0793,4.0455,3.9641,3.8793,3.7911,3.7047,3.6996,3.6612,3.5757,3.8267,3.9172,3.833,3.9985,4.0793,4.0793,4.0793,4.0754,3.2256,3.3083,3.3583,3.3045,3.2628,3.2313,3.2128,3.136,3.0554,3.0085,2.9999,2.9877,2.9455,2.9412,3.0126,3.2316,3.3091,0.0,0.0,0.0,0.0,0.0,0.0,0.0,0.0,0.0,4.4701,4.4919,4.4943,4.5096,4.5419,4.5438,4.5495,4.5586,4.5586,4.5586,4.5586,4.5586,4.5297,4.472,4.5316,4.5278,4.472,4.5028,4.4547,4.3451,4.2912,4.2008,4.0893,4.0716,4.0658,4.0708,4.0742,4.0842,4.0943,4.0944,4.1014,4.115,4.115,4.1074,4.1008,4.0989,4.0966,4.0939,4.0938,4.0878,4.08,4.08,4.0875,4.0947,4.0985,4.1062,4.1148,4.119,4.1191,4.1191,4.1191,4.1191,4.1191,4.1191,4.1191,4.1191,4.1191,4.1191,4.1191,4.1191,4.1152,4.1133,4.1133,4.1108,4.1074,4.1069,4.1073,4.101,4.081,4.088,4.0569,3.9721,3.95,3.8969,3.799,3.7952,3.809,3.8354,3.917,3.9723,4.0014,4.0528,4.08,4.08,4.08,4.0796,0.0,3.1564,3.2333,3.1833,3.1698,3.1698,3.1698,3.1025,3.0355,3.0196,3.015,3.0032,2.9696,2.9551,3.018,3.2268,3.3022,0.0,0.0,0.0,0.0,0.0,0.0,0.0,0.0,4.4729,4.5055,4.5263,4.5302,4.5381,4.5586,4.5586,4.5586,4.5586,4.5586,4.5586,4.5586,4.5586,4.5316,4.4797,4.5336,4.5316,4.4778,4.4701,4.4085,4.3066,4.2393,4.1527,0.0,4.0677,4.0735,4.0823,4.0866,4.0955,4.1073,4.1073,4.1134,4.1191,4.1191,4.1152,4.1086,4.1067,4.1078,4.1084,4.1089,4.1011,4.0955,4.0955,4.0999,4.1073,4.1073,4.113,4.1191,4.1191,4.1191,4.1191,4.1191,4.1191,4.1191,4.1191,4.1191,4.1191,4.1191,4.1191,4.1191,4.1191,4.1191,4.1191,4.1191,4.1191,4.1207,4.1198,4.1208,4.113,4.0974,4.1035,4.0694,3.983,3.9848,3.9473,3.8516,3.8789,3.9058,3.9213,3.9876,4.0281,4.0467,4.0799,4.0955,4.0955,4.0896,4.0883,0.0,3.0102,3.141,3.1352,3.1429,3.1525,3.1525,3.0948,0.0,3.0398,3.0398,3.0349,3.0214,2.9978,3.0076,3.0908,3.2083,0.0,0.0,0.0,0.0,0.0,0.0,0.0,0.0,4.4901,4.547,4.5432,4.5413,4.5451,4.549,4.5509,4.5528,4.5586,4.5586,4.5586,4.5586,4.5586,4.5566,4.5509,4.5566,4.5528,4.5355,4.3874,4.3124,4.2931,4.1296,4.0639,4.0716,4.0716,4.0831,4.1001,4.1007,4.1088,4.1191,4.1191,4.1191,4.1191,4.1191,4.1191,4.1205,4.1203,4.1191,4.1197,4.1208,4.1191,4.1191,4.1191,4.1191,4.1191,4.1191,4.1191,4.1191,4.1191,4.1191,4.1191,4.1191,4.1191,4.1191,4.1191,4.1191,4.1191,4.1191,4.1191,4.1191,4.1191,4.1191,4.1191,4.1191,4.1191,4.1191,4.1191,4.1191,4.1191,4.1191,4.1191,4.0859,4.0039,3.998,3.9629,3.8828,3.9551,3.9609,3.8809,4.0371,4.0801,3.998,4.0801,4.1191,4.1191,4.1074,4.1016,2.6101,0.0,2.8621,2.7967,2.8756,2.9698,0.0,3.0063,3.0398,0.0,0.0,3.0727,3.1794,3.1413,3.1877,3.4797,3.5522,0.0,0.0,0.0,0.0,0.0,0.0,0.0,0.0,4.4453,4.4355,4.372,4.3682,4.3951,4.4566,4.4605,4.4913,4.5566,4.5586,4.5586,4.5586,4.5586,4.5259,4.4605,4.5278,4.4932,4.3701,4.3912,4.3374,4.2239,4.1835,4.1316,4.0773,4.0889,4.0947,4.1007,4.1117,4.1179,4.1191,4.1191,4.1191,4.1191,4.1191,4.1191,4.1191,4.1189,4.1195,4.1205,4.1209,4.1191,4.1191,4.1191,4.1191,4.1191,4.1191,4.1191,4.1191,4.1191,4.1191,4.1191,4.1191,4.1191,4.1191,4.1191,4.1191,4.1191,4.1191,4.1191,4.1191,4.1191,4.1191,4.1191,4.1191,4.1191,4.1191,4.1191,4.1191,4.1191,4.1191,4.1191,4.1113,4.0918,4.0898,4.0801,4.0605,4.0781,4.0801,4.0586,4.0996,4.1094,4.0898,4.1094,4.1191,4.1191,4.1172,4.1152,2.5303,2.6563,2.7794,2.7313,2.8159,2.9198,2.9602,0.0,0.0,0.0,0.0,0.0,3.1966,0.0,0.0,3.5505,3.6502,0.0,0.0,0.0,0.0,0.0,0.0,0.0,0.0,4.3739,4.3566,4.3124,4.3104,4.3297,4.372,4.3739,4.397,4.4432,4.4797,4.5201,4.5586,4.5586,4.5163,4.4316,4.4778,4.4335,4.3104,4.3201,4.2797,4.1986,4.1622,4.1241,4.0889,4.0966,4.1042,4.1093,4.1179,4.1191,4.1191,4.1191,4.1191,4.1191,4.1191,4.1191,4.1191,4.1191,4.1191,4.1191,4.1191,4.1191,4.1191,4.1191,4.1191,4.1191,4.1191,4.1191,4.1191,4.1191,4.1191,4.1191,4.1191,4.1191,4.1191,4.1191,4.1191,4.1191,4.1191,4.1191,4.1185,4.1124,4.1103,4.1091,4.1016,4.1023,4.1023,4.1023,4.1023,4.1023,4.1023,4.1023,4.1037,4.1103,4.1116,4.1113,4.1113,4.1172,4.1191,4.1191,4.1191,4.1191,4.1191,4.1191,4.1191,4.1191,4.1191,4.1191,2.5457,2.6678,2.7832,2.7563,2.8217,2.9102,2.9852,0.0,0.0,0.0,0.0,0.0,0.0,0.0,0.0,0.0,0.0,0.0,0.0,0.0,0.0,0.0,0.0,0.0,4.2989,4.2893,4.2854,4.2701,4.2701,4.2758,4.2893,4.2893,4.297,4.3104,4.3758,4.447,4.5201,4.547,4.5163,4.4335,4.4335,4.3835,4.2931,4.2297,4.195,4.1793,4.1136,4.0906,4.1023,4.1023,4.1112,4.1191,4.1191,4.1191,4.1191,4.1191,4.1191,4.1191,4.1191,4.1191,4.1191,4.1191,4.1191,4.1191,4.1191,4.1191,4.1191,4.1191,4.1191,4.1191,4.1191,4.1191,4.1191,4.1191,4.1188,4.1177,4.1177,4.1144,4.1149,4.1149,4.1149,4.1149,4.1149,4.1149,4.1109,4.0997,4.0973,4.093,4.082,4.0809,4.0809,4.0809,4.0809,4.0809,4.0809,4.079,4.0826,4.0958,4.096,4.0967,4.0973,4.1071,4.1149,4.1149,4.1149,4.1151,4.1172,4.1172,4.1172,4.1191,4.1191,4.1191,2.6197,2.7121,2.7544,2.6082,2.6909,2.8121,2.8255,0.0,0.0,0.0,0.0,0.0,0.0,0.0,0.0,0.0,0.0,0.0,0.0,0.0,0.0,0.0,0.0,4.2951,4.2085,4.2008,4.17,4.095,4.0893,4.1219,4.197,4.2008,4.2335,4.3085,4.322,4.3355,4.347,4.4893,4.522,4.4472,4.4472,4.3703,4.2244,4.2129,4.1742,4.1139,4.1007,4.1044,4.1177,4.1177,4.1187,4.1191,4.1191,4.1191,4.1191,4.1191,4.1191,4.1191,4.1191,4.1191,4.1191,4.1191,4.1191,4.1191,4.1191,4.1191,4.1191,4.1191,4.1191,4.1191,4.1191,4.1191,4.1191,4.1191,4.1117,4.1023,4.1023,4.0927,4.0864,4.0864,4.0864,4.0864,4.0864,4.0864,4.0843,4.0837,4.0836,4.0808,4.0791,4.0805,4.0805,4.0805,4.0805,4.0805,4.0805,4.0747,4.0718,4.0735,4.0814,4.0834,4.0838,4.0844,4.0864,4.0864,4.0864,4.0925,4.1035,4.1035,4.1094,4.1191,4.1191,4.1191,2.5793,2.6524,2.7005,2.6197,2.7294,2.8794,0.0,0.0,0.0,0.0,0.0,0.0,0.0,0.0,0.0,0.0,0.0,0.0,0.0,0.0,0.0,0.0,0.0,4.2066,4.1181,4.1104,4.0931,4.0527,4.0489,4.0662,4.1085,4.1104,4.1277,4.1681,4.2143,4.2412,4.2412,4.3662,4.3912,4.3145,4.3145,4.2526,4.14,4.1465,4.1316,4.0997,4.1073,4.1139,4.1191,4.1191,4.1191,4.1191,4.1191,4.1191,4.1191,4.1191,4.1191,4.1191,4.1191,4.1191,4.1191,4.1191,4.1156,4.1116,4.1183,4.1103,4.0994,4.1062,4.1088,4.1088,4.1088,4.1033,4.0988,4.0988,4.0937,4.0892,4.0896,4.0828,4.0808,4.0808,4.0808,4.0808,4.0808,4.0808,4.0788,4.075,4.0742,4.0716,4.0658,4.0639,4.0639,4.0639,4.0639,4.0639,4.0639,4.062,4.062,4.0696,4.0735,4.0752,4.0796,4.0808,4.0808,4.0808,4.0808,4.0837,4.0894,4.0894,4.091,4.0992,4.1069,4.1094,2.5553,2.6101,2.6659,2.6851,0.0,2.9025,0.0,0.0,0.0,0.0,0.0,0.0,0.0,0.0,0.0,0.0,0.0,0.0,0.0,0.0,0.0,4.1514,4.1449,4.1239,4.0546,4.0489,4.0489,4.0489,4.0489,4.0489,4.0489,4.0489,4.0489,4.0489,4.1181,4.1546,4.1546,4.2277,4.2431,4.2027,4.2069,4.1661,4.0896,4.0995,4.1052,4.1056,4.116,4.1191,4.1191,4.1191,4.1191,4.1191,4.1191,4.1191,4.1191,4.1191,4.1191,4.1191,4.1191,4.1191,4.1191,4.1191,4.1103,4.1026,4.1117,4.0992,4.0809,4.0916,4.0927,4.0927,4.0947,4.0887,4.0801,4.0801,4.0801,4.0779,4.0776,4.0754,4.0735,4.0735,4.0735,4.0735,4.0735,4.0735,4.0716,4.0658,4.0658,4.062,4.0508,4.0489,4.0489,4.0489,4.0489,4.0489,4.0489,4.0489,4.0543,4.0658,4.0658,4.0677,4.0735,4.0735,4.0735,4.0735,4.0735,4.0754,4.0773,4.0773,4.0781,4.0801,4.092,4.0962,2.6294,2.6544,2.6794,2.7601,0.0,0.0,0.0,0.0,0.0,0.0,0.0,0.0,0.0,0.0,0.0,0.0,0.0,0.0,0.0,0.0,4.1822,4.1764,4.1069,4.0566,4.0508,4.0489,4.0489,4.0489,4.0489,4.0489,4.0489,4.0489,4.0489,4.0489,4.0677,4.0793,4.0793,4.0908,4.1354,4.2091,4.223,4.19,4.1171,4.1189,4.1188,4.1189,4.1191,4.1191,4.1191,4.1191,4.1191,4.1191,4.1191,4.1191,4.1191,4.1191,4.1191,4.1191,4.1191,4.1191,4.1191,4.1191,4.1103,4.1001,4.1003,4.0901,4.079,4.08,4.0773,4.0735,4.0793,4.0808,4.08,4.08,4.0761,4.0708,4.0696,4.062,4.0508,4.0508,4.0508,4.0508,4.0508,4.0508,4.0508,4.0508,4.0508,4.0508,4.0489,4.0489,4.0489,4.0489,4.0489,4.0489,4.0489,4.0489,4.0489,4.0508,4.0508,4.0508,4.0508,4.0508,4.0508,4.0508,4.0508,4.0581,4.0716,4.0708,4.0742,4.08,4.081,4.0878,2.5687,2.6227,0.0,0.0,0.0,0.0,0.0,0.0,0.0,0.0,0.0,0.0,0.0,0.0,0.0,0.0,0.0,0.0,0.0,4.2008,4.1604,4.1066,4.07,4.0489,4.0489,4.0489,4.0489,4.0489,4.0489,4.0489,4.0489,4.0489,4.0543,4.062,4.0677,4.0717,4.0759,4.0872,4.1101,4.1412,4.1473,4.1401,4.1191,4.1191,4.1191,4.1191,4.1191,4.1191,4.1191,4.1191,4.1191,4.1191,4.1191,4.1191,4.1191,4.1191,4.1191,4.1189,4.1089,4.1073,4.1062,4.0986,4.0888,4.0812,4.085,4.0761,4.0636,4.0723,4.0658,4.06,4.0716,4.0677,4.062,4.062,4.06,4.0581,4.0581,4.0543,4.0489,4.0489,4.0489,4.0489,4.0489,4.0489,4.0489,4.0489,4.0489,4.0489,4.0489,4.0489,4.0489,4.0489,4.0489,4.0489,4.0489,4.0356,4.025,4.025,4.0406,4.0489,4.0489,4.0489,4.0489,4.0489,4.0489,4.0508,4.0581,4.0581,4.06,4.062,4.0696,4.0758,2.5264,2.5784,2.6458,0.0,0.0,0.0,0.0,0.0,0.0,0.0,0.0,0.0,0.0,0.0,0.0,0.0,0.0,0.0,4.147,4.1393,4.1162,4.0566,4.0489,4.0489,4.0489,4.0489,4.0489,4.0489,4.0489,4.0508,4.0562,4.0562,4.062,4.0735,4.0773,4.0814,4.0858,4.1001,4.1058,4.1058,4.1067,4.111,4.1191,4.1191,4.1191,4.1191,4.1191,4.1191,4.1191,4.1191,4.1191,4.1191,4.1191,4.1162,4.113,4.113,4.1113,4.1062,4.0964,4.0935,4.0915,4.0843,4.0739,4.0716,4.0754,4.0639,4.0508,4.062,4.0581,4.0508,4.062,4.0581,4.0489,4.0489,4.0489,4.0489,4.0489,4.0489,4.0489,4.0489,4.0489,4.0489,4.0489,4.0489,4.0489,4.0489,4.0489,4.0489,4.0489,4.0489,4.0489,4.0489,4.0489,4.0489,4.0489,4.0339,4.0195,4.0101,4.0267,4.0372,4.0372,4.0372,4.0372,4.0372,4.0457,4.0457,4.0372,4.0457,4.0489,4.0489,4.06,4.0658,2.5159,2.537,0.0,0.0,0.0,0.0,0.0,0.0,0.0,0.0,0.0,0.0,0.0,0.0,0.0,0.0,0.0,4.0489,4.0489,4.0489,4.0489,4.0489,4.0489,4.0489,4.0489,4.0489,4.0489,4.0489,4.0489,4.0562,4.0696,4.0696,4.0735,4.0793,4.0927,4.1001,4.1001,4.1116,4.1208,4.1189,4.1208,4.1191,4.1191,4.1191,4.1191,4.1191,4.1191,4.1191,4.1191,4.1191,4.1191,4.1191,4.1191,4.111,4.0985,4.0985,4.0919,4.0793,4.0793,4.0784,4.0793,4.0773,4.0735,4.0696,4.0696,4.06,4.0489,4.0489,4.0489,4.0489,4.0469,4.0469,4.0469,4.0489,4.0489,4.0489,4.0489,4.0489,4.0489,4.0489,4.0489,4.0489,4.0489,4.0489,4.0489,4.0489,4.0489,4.0489,4.0489,4.0489,4.0489,4.0489,4.0489,4.0489,4.0489,4.0489,4.0372,4.0101,4.0081,4.0081,4.0101,4.0101,4.0101,4.0101,4.0356,4.0356,4.0101,4.0372,4.0489,4.0489,4.0489,4.0566,2.5264,2.5832,0.0,0.0,0.0,0.0,0.0,0.0,0.0,0.0,0.0,0.0,0.0,0.0,0.0,4.0489,4.0489,4.0489,4.0489,4.0489,4.0489,4.0489,4.0489,4.0489,4.0489,4.06,4.0639,4.0639,4.0677,4.0735,4.0773,4.0776,4.082,4.0943,4.0966,4.104,4.1135,4.1178,4.1198,4.1198,4.1205,4.1191,4.1191,4.1191,4.1191,4.1191,4.1191,4.1191,4.1191,4.1191,4.084,4.0351,4.0957,4.0734,4.0162,4.0773,4.0926,4.07,4.0037,3.9816,3.9696,3.9061,3.9219,3.9734,3.9734,4.0065,4.0373,3.9815,3.9662,3.9508,3.8892,3.8738,3.9046,4.0219,4.0489,4.0489,4.0489,4.0489,4.0489,4.0489,4.0489,4.0441,4.025,4.0372,4.0353,3.9925,4.0062,4.0139,3.9903,3.9863,3.9863,3.9863,3.9863,3.9863,3.9863,3.9652,3.9467,3.9389,3.9216,3.9313,3.9731,3.9754,3.9754,3.9754,3.9821,3.9821,3.9754,4.0043,4.0213,4.0213,4.0213,4.0341,2.5726,0.0,0.0,0.0,0.0,0.0,0.0,0.0,0.0,0.0,0.0,0.0,0.0,0.0,0.0,4.045,4.0489,4.0489,4.0489,4.0489,4.0508,4.0581,4.0277,4.0085,4.0142,3.9896,3.9745,3.976,3.9792,3.9824,3.9854,4.0178,4.0421,4.0558,4.0907,4.113,4.1191,4.1191,4.1191,4.1191,4.1191,4.1191,4.1191,4.1191,4.1191,4.1191,4.1191,4.1191,4.1191,4.1139,4.0616,3.9867,4.0359,3.9976,3.9161,3.9696,3.9792,3.9619,3.9042,3.8849,3.8753,3.818,3.8354,3.8777,3.8777,3.9123,3.9411,3.8911,3.8777,3.8661,3.8142,3.8007,3.8334,3.97,4.0008,4.0104,4.0431,4.0425,4.0339,4.0339,4.023,4.0101,3.9922,4.0043,4.0024,3.9668,3.9775,3.9819,3.9622,3.9599,3.9599,3.9599,3.9599,3.9599,3.9599,3.9414,3.9238,3.9125,3.8961,3.898,3.9242,3.9333,3.9389,3.9389,3.9529,3.9534,3.9389,3.9754,3.9901,3.9901,3.9901,4.0003,0.0,0.0,0.0,0.0,0.0,0.0,0.0,0.0,0.0,0.0,0.0,0.0,0.0,0.0,0.0,4.0142,4.0258,4.0258,4.0277,4.0277,4.0315,4.0469,3.9773,3.9345,3.9461,3.8766,3.8304,3.8315,3.8315,3.8345,3.8406,3.9177,3.9694,3.9882,4.0664,4.1113,4.1191,4.1191,4.1191,4.1191,4.1191,4.1191,4.1191,4.1191,4.119,4.1187,4.1187,4.1129,4.103,4.0915,4.0309,3.9463,3.947,3.8917,3.808,3.8171,3.8118,3.7988,3.7911,3.7873,3.7873,3.7796,3.7815,3.7873,3.7873,3.793,3.7988,3.7892,3.7873,3.7873,3.7762,3.7728,3.7959,3.8789,3.9089,3.9392,4.0185,4.0152,3.9986,4.0042,3.9797,3.9599,3.9552,3.9576,3.9599,3.9552,3.9529,3.9505,3.9505,3.9505,3.9505,3.9505,3.9505,3.9505,3.9505,3.9505,3.9383,3.9072,3.9044,3.8961,3.8689,3.8933,3.9044,3.9044,3.9358,3.9358,3.9044,3.9389,3.9534,3.9534,3.9534,3.9576,0.0,0.0,0.0,0.0,0.0,0.0,0.0,0.0,0.0,0.0,0.0,0.0,0.0,0.0,3.8334,3.8507,3.8546,3.8565,3.8608,3.8608,3.8666,3.8789,3.8663,3.854,3.8588,3.846,3.8377,3.8373,3.8488,3.8541,3.8564,3.874,3.9166,3.9883,4.0078,4.0508,4.1191,4.1191,4.1191,4.1191,4.1191,4.1191,4.1191,4.1191,4.1139,4.1047,4.1047,4.0626,3.9939,3.9898,3.8972,3.7656,3.8318,3.8003,3.7257,3.7945,3.8118,3.7892,3.7219,3.6988,3.6892,3.6238,3.6469,3.6988,3.6988,3.7469,3.7853,3.718,3.6988,3.6791,3.5946,3.5706,3.5883,3.6483,3.7479,3.8443,3.9047,3.9109,3.9203,3.9621,3.9645,3.9529,3.9238,3.9432,3.951,3.9238,3.9017,3.8873,3.8873,3.8873,3.8873,3.8873,3.8873,3.8873,3.8873,3.8873,3.8844,3.8773,3.8773,3.8762,3.8707,3.8762,3.8773,3.8773,3.8862,3.8862,3.8773,3.9082,3.9212,3.9212,3.9212,3.9339,0.0,0.0,0.0,0.0,0.0,0.0,0.0,0.0,0.0,0.0,0.0,0.0,0.0,0.0,3.7526,3.7969,3.8065,3.8084,3.818,3.8202,3.8228,3.8343,3.7983,3.7754,3.7815,3.7482,3.7261,3.7261,3.7318,3.7363,3.7363,3.7754,3.8184,3.8633,3.9062,3.9492,3.9941,3.9961,3.9967,3.9942,3.9883,3.9847,3.9832,4.0701,4.0818,4.0328,4.0337,3.9824,3.8984,3.8946,3.8148,3.6988,3.7382,3.7002,3.6281,3.6738,3.6853,3.6738,3.6276,3.6142,3.6065,3.5641,3.5795,3.6142,3.6142,3.6449,3.6719,3.6257,3.6032,3.5806,3.5253,3.4999,3.4984,3.5263,3.6179,3.7183,3.7889,3.822,3.8463,3.8732,3.8988,3.9127,3.8952,3.9045,3.91,3.8952,3.8773,3.8707,3.8707,3.8707,3.8707,3.8707,3.8707,3.8707,3.8707,3.8707,3.8707,3.8707,3.8707,3.8707,3.8707,3.8707,3.8707,3.8707,3.8707,3.8707,3.8707,3.8844,3.8923,3.8923,3.8923,3.899,0.0,0.0,0.0,0.0,0.0,0.0,0.0,0.0,0.0,0.0,0.0,0.0,0.0,3.6526,3.6776,3.755,3.7685,3.7731,3.7868,3.7893,3.7919,3.7983,3.7347,3.6958,3.7068,3.6426,3.5996,3.5996,3.5996,3.5996,3.5996,3.668,3.7148,3.7305,3.8008,3.8457,3.8594,3.8606,3.8585,3.8554,3.8439,3.8353,3.833,3.9818,4.0089,3.9369,3.9361,3.8845,3.8022,3.7964,3.7439,3.665,3.6546,3.6103,3.5493,3.5493,3.5493,3.5493,3.5493,3.5493,3.5493,3.5493,3.5493,3.5493,3.5493,3.5479,3.5432,3.5432,3.5239,3.5016,3.4944,3.4793,3.4593,3.4569,3.5058,3.5776,3.6729,3.7309,3.7739,3.779,3.8319,3.8707,3.8707,3.8707,3.8707,3.8707,3.8707,3.8676,3.8578,3.8546,3.8546,3.8433,3.8433,3.8433,3.8433,3.8433,3.8483,3.8546,3.8546,3.8578,3.8707,3.8707,3.8707,3.8707,3.8707,3.8634,3.8487,3.8487,3.8414,3.8285,3.8285,3.8358,0.0,0.0,0.0,0.0,0.0,0.0,0.0,0.0,0.0,0.0,0.0,0.0,3.5815,3.5834,3.5872,3.6007,3.6026,3.6057,3.6215,3.6221,3.626,3.6303,3.6218,3.6145,3.6172,3.6074,3.5996,3.5996,3.5996,3.5996,3.5996,3.6113,3.6523,3.7285,3.7402,3.7832,3.8594,3.8599,3.8537,3.8439,3.8348,3.8285,3.8221,3.8455,3.8507,3.8395,3.8378,3.7829,3.6911,3.6911,3.643,3.5699,3.568,3.5589,3.5493,3.5493,3.5493,3.5493,3.5493,3.5493,3.5493,3.5493,3.5493,3.5493,3.5493,3.5354,3.5138,3.5138,3.4963,3.4694,3.4401,3.4292,3.4218,3.3979,3.402,3.4375,3.5491,3.6329,3.7002,3.7458,3.8168,3.8707,3.8707,3.8707,3.8707,3.8707,3.8707,3.8546,3.8065,3.8032,3.7843,3.7433,3.7414,3.7414,3.7414,3.7414,3.7596,3.798,3.8032,3.8216,3.8676,3.8707,3.8707,3.8707,3.8707,3.8358,3.7643,3.7643,3.7294,3.6615,3.6615,3.6982,0.0,0.0,0.0,0.0,0.0,0.0,0.0,0.0,0.0,0.0,0.0,0.0,3.5718,3.5689,3.5715,3.5797,3.5809,3.5844,3.5931,3.5969,3.5977,3.5995,3.5996,3.5996,3.5996,3.5996,3.5996,3.5996,3.5996,3.5996,3.5996,3.5996,3.6172,3.6562,3.6562,3.676,3.7141,3.7112,3.7011,3.6824,3.6804,3.6747,3.668,3.668,3.693,3.7368,3.7368,3.6853,3.6045,3.6045,3.5834,3.5493,3.5493,3.5493,3.5493,3.5493,3.5493,3.5493,3.5493,3.5493,3.5493,3.5493,3.5493,3.546,3.532,3.519,3.507,3.4926,3.4655,3.4379,3.4242,3.4093,3.3935,3.3815,3.3807,3.3952,3.4441,3.5161,3.5956,3.6681,3.7477,3.8028,3.8028,3.8154,3.8267,3.8267,3.7652,3.7252,3.7488,3.7095,3.6934,3.7175,3.719,3.719,3.719,3.719,3.7285,3.7506,3.7506,3.7614,3.7861,3.8117,3.8049,3.758,3.8327,3.8303,3.7507,3.7507,3.7074,3.6303,3.6303,3.6486,0.0,0.0,0.0,0.0,0.0,0.0,0.0,0.0,0.0,0.0,0.0,0.0,3.5763,3.5783,3.5807,3.5922,3.592,3.5931,3.5993,3.5996,3.5996,3.5996,3.5996,3.5996,3.5996,3.5996,3.5996,3.5996,3.5996,3.5996,3.5996,3.5996,3.5996,3.5996,3.5996,3.6004,3.6008,3.5907,3.5776,3.5641,3.5603,3.5565,3.5493,3.5493,3.5834,3.6411,3.6411,3.6065,3.5493,3.5493,3.5493,3.5493,3.5493,3.5493,3.5493,3.5493,3.5493,3.5493,3.5493,3.5493,3.5493,3.5493,3.5446,3.5369,3.5155,3.4999,3.4832,3.4634,3.4334,3.4099,3.4099,3.3935,3.3807,3.3807,3.3807,3.3862,3.4064,3.4596,3.5247,3.6138,3.6945,3.7452,3.7221,3.743,3.7605,3.7605,3.6524,3.604,3.6897,3.6295,3.6063,3.6698,3.6786,3.6786,3.6786,3.6786,3.6865,3.6999,3.6805,3.6758,3.6872,3.7041,3.6874,3.6247,3.7358,3.7571,3.6853,3.6765,3.6344,3.5661,3.5422,3.5561,0.0,0.0,0.0,0.0,0.0,0.0,0.0,0.0,0.0,0.0,0.0,3.5019,3.5839,3.5976,3.5995,3.5995,3.5995,3.5995,3.5996,3.5996,3.5996,3.5996,3.5996,3.5996,3.5996,3.5996,3.5996,3.5996,3.5996,3.5996,3.5996,3.5996,3.5996,3.5996,3.5996,3.5996,3.5995,3.5815,3.5718,3.5699,3.5584,3.5493,3.5493,3.5493,3.5512,3.5565,3.5565,3.5545,3.5493,3.5493,3.5493,3.5493,3.5493,3.5493,3.5493,3.5493,3.5493,3.5493,3.5493,3.5493,3.5493,3.5493,3.5339,3.5122,3.5105,3.4696,3.4246,3.4223,3.4018,3.3815,3.3815,3.3815,3.3807,3.3807,3.3807,3.4009,3.4752,3.4954,3.5247,3.6138,3.6945,3.7239,3.6486,3.6643,3.6844,3.6759,3.5736,3.5311,3.629,3.5781,3.5445,3.5654,3.5694,3.5694,3.5694,3.5694,3.5898,3.6416,3.5781,3.5622,3.6022,3.5421,3.5048,3.4994,3.549,3.5545,3.5119,3.4763,3.4345,3.389,3.3091,3.3566,0.0,0.0,0.0,0.0,0.0,0.0,0.0,0.0,0.0,0.0,0.0,3.3965,3.4277,3.4336,3.4707,3.582,3.5059,3.4726,3.584,3.5527,3.5371,3.5937,3.5996,3.5996,3.5996,3.5996,3.5996,3.5996,3.5996,3.5996,3.5996,3.5996,3.5996,3.5996,3.5996,3.5932,3.5806,3.5745,3.5657,3.5584,3.5526,3.5493,3.5493,3.5493,3.5493,3.5493,3.5493,3.5493,3.5493,3.5493,3.5493,3.5493,3.5493,3.5493,3.5493,3.5493,3.5493,3.5493,3.5493,3.5493,3.5493,3.5493,3.5432,3.5289,3.4944,3.4675,3.4442,3.4043,3.3876,3.3807,3.3807,3.3807,3.3807,3.3807,3.3807,3.388,3.4174,3.4229,3.4321,3.4633,3.513,3.5418,3.5145,3.5111,3.5134,3.5097,3.4439,3.406,3.4438,3.4635,3.4832,3.4905,3.5334,3.5622,3.5622,3.5622,3.5491,3.5198,3.4908,3.4658,3.4364,3.4422,3.4226,3.3682,3.4144,3.4321,3.4181,3.4326,3.3898,3.2965,3.2648,3.2823,2.4705,0.0,0.0,0.0,0.0,0.0,0.0,0.0,0.0,0.0,0.0,3.3086,3.3359,3.2949,3.3125,3.4844,3.416,3.3809,3.4961,3.4629,3.4473,3.5059,3.5391,3.5566,3.5566,3.582,3.5996,3.5996,3.5996,3.5996,3.5996,3.5723,3.5566,3.5566,3.5566,3.5639,3.5775,3.5717,3.5648,3.5545,3.5526,3.5493,3.5493,3.5493,3.5493,3.5493,3.5493,3.5493,3.5493,3.5493,3.5493,3.5493,3.5493,3.5493,3.5493,3.5493,3.5493,3.5493,3.5493,3.5446,3.5369,3.5369,3.5239,3.4997,3.4655,3.4464,3.4307,3.3902,3.3807,3.3807,3.3807,3.3807,3.3807,3.3807,3.3807,3.3807,3.3807,3.3707,3.3606,3.3606,3.3906,3.4078,3.3827,3.3812,3.3804,3.3804,3.3146,3.2848,3.3339,3.3609,3.3846,3.41,3.4793,3.525,3.525,3.525,3.503,3.4523,3.4032,3.3525,3.3051,3.3128,3.2947,3.2393,3.2825,3.3003,3.2861,3.3312,3.3179,3.2484,3.2196,3.2056,0.0,0.0,0.0,0.0,0.0,0.0,0.0,0.0,0.0,0.0,0.0,3.2363,3.3184,3.1992,3.1426,3.3066,3.332,3.334,3.3398,3.3379,3.3379,3.3398,3.4141,3.4668,3.4668,3.543,3.5918,3.5918,3.5918,3.5918,3.5918,3.5117,3.4668,3.4668,3.4668,3.5037,3.5803,3.5699,3.5622,3.5565,3.5526,3.5493,3.5493,3.5493,3.5493,3.5493,3.5468,3.5488,3.5493,3.5493,3.5493,3.5493,3.5493,3.5493,3.5493,3.5493,3.5493,3.5493,3.5493,3.5304,3.5088,3.5088,3.4696,3.42,3.42,3.4018,3.3815,3.3788,3.3807,3.3807,3.3807,3.3807,3.3807,3.3807,3.3762,3.378,3.3762,3.3447,3.3184,3.3184,3.3448,3.3385,3.2608,3.2774,3.3006,3.2986,3.1944,3.1732,3.3152,3.2747,3.2594,3.3288,3.4049,3.4489,3.4455,3.4472,3.4472,3.4438,3.3068,3.2313,3.2297,3.1562,3.119,3.119,3.1565,3.1603,3.119,3.1603,3.2039,3.2451,3.1582,3.119,2.2598,0.0,0.0,0.0,0.0,0.0,0.0,0.0,0.0,0.0,0.0,3.0586,3.1426,3.1211,3.1055,3.1523,3.1582,3.2012,3.3223,3.2891,3.2754,3.332,3.3613,3.3769,3.3769,3.3984,3.4121,0.0,3.4121,3.4121,3.4121,3.3887,3.3769,3.3769,3.3716,3.3766,3.3957,3.4438,3.4641,3.4584,3.5218,3.5493,3.5493,3.5493,3.5493,3.5468,3.4834,3.493,3.5493,3.5493,3.5493,3.5493,3.5493,3.5493,3.5493,3.5493,3.5369,3.5207,3.5207,3.5053,3.4793,3.4793,3.4694,3.4529,3.4269,3.4147,3.4043,3.3868,3.3807,3.3807,3.3807,3.3807,3.3734,3.3437,3.3361,3.3273,3.2934,3.25,3.24,3.3075,3.2743,3.223,3.2021,3.1849,3.1713,3.1713,3.1885,3.1935,3.1816,3.256,3.2966,3.2628,3.3728,3.4269,3.3744,3.4184,3.4032,3.2966,3.2551,3.2036,3.1512,3.1309,3.119,3.119,3.1329,3.1329,3.119,3.1603,3.1733,3.1562,3.1291,3.0975,0.0,0.0,0.0,0.0,0.0,0.0,0.0,2.7656,0.0,0.0,0.0,2.9316,3.0195,3.0351,3.0488,3.084,3.0898,3.123,3.2226,3.1953,3.1836,3.2305,3.2676,3.2891,3.2891,3.3203,3.3398,3.3398,3.3398,3.3242,3.293,3.2891,3.2863,3.2815,3.2783,3.2896,3.3167,3.3577,3.375,3.366,3.418,3.443,3.443,3.443,3.443,3.4391,3.3872,3.389,3.428,3.428,3.4765,3.5493,3.5493,3.5493,3.5493,3.5369,3.5223,3.5088,3.4963,3.4735,3.4508,3.4508,3.442,3.4302,3.4093,3.4018,3.4012,3.3842,3.3807,3.3762,3.3578,3.355,3.3494,3.3243,3.3045,3.2809,3.255,3.2127,3.1951,3.25,3.2039,3.1528,3.1528,3.1351,3.119,3.119,3.1562,3.1681,3.1258,3.1952,3.2324,3.1884,3.2865,3.3389,3.2983,3.3322,3.3203,3.2364,3.1765,3.1273,3.0855,3.0559,3.0559,3.0838,3.0821,3.0821,3.0838,3.1317,3.1317,3.0838,3.0576,3.0251,0.0,0.0,0.0,0.0,0.0,0.0,2.7656,2.7402,2.7109,0.0,0.0,2.8418,2.9297,2.9453,2.9707,3.0488,3.0684,3.0781,3.0898,3.0898,3.0898,3.0898,3.1582,3.2051,3.2051,3.2695,3.3125,3.3125,3.3125,3.2812,3.209,3.2049,3.1982,3.1862,3.1831,3.2158,3.28,3.2897,3.2884,3.2776,3.2852,3.2891,3.2891,3.2891,3.2891,3.2891,3.2814,3.2703,3.26,3.2504,3.3574,3.5264,3.5264,3.5264,3.523,3.5005,3.4843,3.4715,3.4564,3.4292,3.4041,3.4134,3.3993,3.3807,3.3807,3.3762,3.3734,3.3662,3.368,3.3578,3.3214,3.3105,3.3105,3.3063,3.2745,3.2417,3.235,3.2039,3.1716,3.1716,3.1449,3.119,3.119,3.119,3.119,3.119,3.119,3.119,3.119,3.119,3.119,3.119,3.185,3.2297,3.2171,3.2263,3.2239,3.2073,3.0967,3.0251,3.0208,2.9673,2.9629,3.0208,3.0208,3.0208,3.0208,3.0797,3.0797,3.0208,2.9629,2.9361,0.0,0.0,0.0,0.0,0.0,0.0,2.6133,2.6074,2.6191,0.0,0.0,0.0,2.8398,2.8555,2.8613,2.8789,2.9394,3.0098,3.0801,3.0898,3.0898,3.0898,3.1055,3.1152,3.1152,3.1309,3.1387,3.1387,3.1387,3.1328,3.1152,3.1047,3.0974,3.0941,3.0864,3.0852,3.1006,3.1641,3.1968,3.1948,3.2583,3.2891,3.2891,3.2891,3.2891,3.2852,3.2218,3.2185,3.2562,3.184,3.2447,3.3826,3.3826,3.3826,3.3789,3.3734,3.3184,3.2531,3.3119,3.3152,3.3029,3.3674,3.3842,3.3807,3.3807,3.3578,3.3243,3.2872,3.2745,3.2745,3.2648,3.2648,3.255,3.2248,3.2056,3.1861,3.1524,3.1389,3.1329,3.1329,3.1252,3.119,3.119,3.119,3.119,3.119,3.119,3.119,3.119,3.119,3.119,3.119,3.185,3.2036,3.1461,3.1935,3.184,3.0767,3.0459,3.0064,2.9585,2.9451,2.9451,2.9585,2.9585,2.9585,2.9585,3.0166,3.0166,2.9585,2.9451,2.9134,0.0,0.0,0.0,2.5097,0.0,0.0,0.0,2.5703,2.582,2.6269,2.6348,0.0,0.0,0.0,2.7793,2.8223,2.8672,2.9101,2.9531,3.0351,3.0898,3.0898,3.0898,3.0898,3.0898,3.0898,3.0898,3.0898,3.0833,3.08,3.08,3.0692,3.0637,3.0602,3.0544,3.0487,3.0448,3.0852,3.1064,3.1064,3.1468,3.166,3.166,3.166,3.166,3.1609,3.1092,3.0973,3.1094,3.0559,3.0941,3.1862,3.2542,3.2789,3.2789,3.2653,3.2266,3.1856,3.2103,3.2121,3.2063,3.2467,3.2871,3.3201,3.3201,3.3213,3.3045,3.2332,3.2316,3.2451,3.2196,3.2127,3.2109,3.1896,3.1677,3.1449,3.1252,3.119,3.119,3.119,3.119,3.119,3.119,3.119,3.119,3.119,3.119,3.119,3.119,3.119,3.119,3.119,3.1512,3.15,3.0814,3.1074,3.09,2.9924,2.9585,2.9271,2.895,2.867,2.8638,2.8966,2.9225,2.9271,2.8966,2.9271,2.9225,2.8966,2.8638,2.8352,0.0,0.0,0.0,0.0,0.0,2.5582,0.0,0.0,0.0,2.566,2.566,0.0,0.0,0.0,0.0,0.0,0.0,0.0,0.0,2.9386,0.0,3.039,3.0703,3.082,3.0664,3.064,3.0689,3.0843,3.061,3.0524,3.066,3.0615,3.0554,3.0487,3.0487,3.0448,3.0398,3.0398,3.0398,3.0398,3.0398,3.0398,3.0398,3.0398,3.0367,3.0311,3.0089,2.9861,2.9644,2.9474,2.9635,3.0092,3.1327,3.1807,3.1806,3.1579,3.1399,3.1244,3.1188,3.1164,3.1182,3.1347,3.1884,3.2464,3.2392,3.2622,3.2777,3.1933,3.1968,3.2144,3.1789,3.1696,3.1696,3.1696,3.1449,3.119,3.119,3.119,3.119,3.119,3.119,3.119,3.119,3.119,3.119,3.119,3.119,3.119,3.119,3.119,3.119,3.119,3.119,3.0975,3.0351,3.0293,2.9978,2.9271,2.8779,2.8463,2.8319,2.786,2.781,2.8319,2.8826,2.881,2.8334,2.8334,2.8334,2.8319,2.781,2.7625,0.0,0.0,0.0,0.0,2.5512,0.0,0.0,0.0,2.5511,2.5511,0.0,0.0,0.0,0.0,0.0,0.0,0.0,0.0,2.6973,2.7854,2.8534,2.8592,2.9961,3.0605,2.9824,2.9688,2.9959,3.0674,2.999,2.9865,3.0575,3.056,3.0521,3.0506,3.0448,3.0398,3.0398,3.0398,3.0398,3.0398,3.0398,3.0398,3.0398,3.0398,3.0267,3.0028,3.0013,2.978,2.9434,2.9412,2.9302,2.9219,3.0102,3.0438,3.042,3.0391,2.9926,2.943,3.0081,3.0338,3.0448,3.1164,3.1709,3.1982,3.1569,3.1683,3.1861,3.1389,3.1291,3.1329,3.1291,3.1252,3.1252,3.1252,3.123,3.119,3.119,3.119,3.119,3.119,3.119,3.119,3.119,3.119,3.119,3.119,3.119,3.119,3.119,3.119,3.119,3.119,3.119,3.0975,3.0351,3.0293,2.9805,2.8685,2.8559,2.8286,2.771,2.7625,2.7625,2.771,2.776,2.776,2.771,2.771,2.771,2.771,2.7625,2.7625,0.0,0.0,0.0,0.0,0.0,0.0,2.5499,0.0,2.5499,0.0,0.0,0.0,0.0,0.0,0.0,0.0,2.5822,0.0,0.0,0.0,2.7605,0.0,0.0,0.0,2.957,2.9543,2.9843,3.0652,2.9825,2.9641,3.0487,3.0487,3.0448,3.0448,3.0398,3.0398,3.0398,3.0398,3.0398,3.0398,3.0398,3.0398,3.0379,3.0241,3.0122,2.9984,2.9746,2.957,2.9392,2.9225,2.9089,2.9012,2.9384,2.9512,2.9512,2.9512,2.9287,2.9049,2.9402,2.9512,2.9667,3.0709,3.084,3.0725,3.1401,3.1394,3.1163,3.1193,3.119,3.119,3.119,3.119,3.119,3.119,3.119,3.119,3.119,3.119,3.119,3.119,3.119,3.119,3.119,3.119,3.119,3.119,3.119,3.119,3.119,3.0878,3.0699,3.0699,3.0335,2.9892,2.9316,2.9271,2.8904,2.8042,2.8008,2.786,2.7625,2.7625,2.7625,2.7625,2.7625,2.7625,2.7625,2.7625,2.7357,2.6982,2.7408,2.7625,2.5303,0.0,0.0,0.0,0.0,0.0,0.0,0.0,2.5447,0.0,0.0,0.0,0.0,0.0,0.0,0.0,0.0,2.5474,0.0,0.0,0.0,0.0,0.0,0.0,0.0,2.891,2.907,2.9902,2.9055,2.8948,3.0063,3.0063,3.016,3.0379,3.0398,3.0398,3.0398,3.0398,3.0398,3.0398,3.0398,3.0398,3.0398,3.0122,2.9969,2.9908,2.9551,2.9351,2.9267,2.9067,2.8994,2.8994,2.8994,2.8994,2.8994,2.8994,2.8994,2.8994,2.8994,2.8929,2.8974,2.9755,2.9679,2.9514,3.0784,3.0853,3.064,3.107,3.119,3.119,3.119,3.119,3.119,3.119,3.119,3.119,3.119,3.119,3.1151,3.0975,3.1095,3.1095,3.074,3.0975,3.119,3.119,3.119,3.1151,3.0975,3.0559,3.0251,3.0081,2.9673,2.9134,2.8559,2.8511,2.8222,2.7625,2.7625,2.7625,2.7625,2.7625,2.7625,2.7625,2.7625,2.7625,2.7625,2.7408,2.7034,2.651,2.7255,2.7408,0.0,2.5303,0.0,2.5303,2.5303,2.5303,2.5303,2.5303,2.5303,2.5303,2.5303,0.0,0.0,0.0,0.0,0.0,0.0,0.0,0.0,0.0,0.0,0.0,0.0,0.0,0.0,2.7323,2.7151,0.0,2.7227,2.7409,2.9063,2.914,2.9525,3.0359,3.0398,3.0398,3.0398,3.0398,3.0398,3.0398,3.0398,3.0398,3.0398,3.0122,2.9893,2.9696,2.9494,2.9246,2.9017,2.9017,2.8994,2.8994,2.8994,2.8994,2.8994,2.8994,2.8994,2.8994,2.8994,2.8749,2.8368,2.8091,2.8198,2.8585,2.9349,2.9846,3.026,3.0987,3.119,3.119,3.119,3.119,3.119,3.119,3.119,3.119,3.119,3.119,3.1015,3.0435,3.0797,3.0838,2.9673,3.0435,3.119,3.119,3.119,3.1015,3.0393,3.0293,3.0081,2.9496,2.9406,2.9134,2.8559,2.8511,2.8222,2.7625,2.7625,2.7625,2.7625,2.7625,2.7625,2.7625,2.7625,2.7625,2.7625,2.6878,2.651,2.651,2.7255,2.6864,2.5303,2.5303,2.5303,2.5303,2.5303,2.5303,2.5303,2.5303,2.5303,2.5303,2.5303,2.5303,2.5303,0.0,0.0,0.0,0.0,0.0,0.0,0.0,0.0,0.0,0.0,0.0,0.0,0.0,2.7055,2.793,2.767,2.7928,2.9044,2.964,3.0102,3.0379,3.0398,3.0398,3.0398,3.0398,3.0398,3.0398,3.0209,3.0136,3.0122,2.9765,2.957,2.9494,2.9246,2.9089,2.8994,2.8994,2.8994,2.8994,2.8994,2.8839,2.8633,2.8905,2.8839,2.8565,2.8334,2.8174,2.8081,2.8185,2.7987,2.7863,2.887,2.888,2.8856,3.0125,3.048,3.0581,3.1072,3.119,3.119,3.119,3.0878,3.0601,3.0601,3.0293,2.9951,2.9761,2.9848,2.9892,2.9451,2.9717,3.0038,3.0038,3.0038,2.9951,2.9717,2.9361,2.9042,2.8826,2.8448,2.8125,2.7894,2.7894,2.781,2.761,2.7625,2.7625,2.7625,2.7625,2.7625,2.7625,2.7137,2.6878,2.6878,2.6122,2.5508,2.5063,2.5783,2.5892,2.5303,2.5303,2.5303,2.5303,2.5303,2.5303,2.5303,2.5303,2.5303,2.5303,2.5303,2.5303,2.5303,0.0,0.0,0.0,0.0,0.0,0.0,2.5303,0.0,0.0,0.0,0.0,0.0,0.0,2.6448,2.6996,2.7304,0.0,0.0,2.9486,3.0083,3.0379,3.0398,3.0398,3.0398,3.0398,3.0398,3.0398,3.0136,2.9999,2.9984,2.9589,2.9412,2.9392,2.9112,2.8994,2.8994,2.8994,2.8994,2.8994,2.8839,2.8633,2.842,2.8682,2.8558,2.8183,2.7823,2.7695,2.7707,2.7779,2.7478,2.7259,2.8285,2.8213,2.806,2.9347,2.9702,2.9871,3.0615,3.0818,3.083,3.0868,3.0559,3.0251,3.0038,2.9673,2.9316,2.9134,2.9271,2.9271,2.881,2.895,2.9134,2.9361,2.9406,2.9316,2.9088,2.8732,2.8415,2.8189,2.781,2.7625,2.7625,2.7625,2.7625,2.7625,2.7357,2.7203,2.7203,2.6982,2.6811,2.6811,2.6336,2.6122,2.6122,2.5342,2.4738,2.4292,2.4496,2.461]},{"header":{"parameterUnit":"m.s-1","parameterCategory":1,"la1":30.6,"la2":29.2853,"lo1":-89.7004,"lo2":-87.6739,"dy":0.0162,"dx":0.0183,"nx":112,"ny":82,"refTime":"2024-09-14T12:00:00:Z","depth":0,"parameterNumber":3,"parameterNumberName":"V-component_of_WINDS"},"data":[0.0,0.0,0.0,0.0,0.0,0.0,0.0,0.0,0.0,0.0,0.0,0.0,0.0,0.0,0.0,0.0,0.0,0.0,0.0,0.0,0.0,0.0,0.0,0.0,0.0,0.0,0.0,0.0,0.0,0.0,0.0,0.0,0.0,0.0,0.0,0.0,0.0,0.0,0.0,0.0,0.0,0.0,0.0,0.0,0.0,0.0,0.0,0.0,0.0,0.0,0.0,0.0,0.0,0.0,0.0,0.0,0.0,0.0,0.0,0.0,0.0,0.0,0.0,0.0,0.0,0.0,0.0,0.0,0.0,0.0,0.0,0.0,0.0,0.0,0.0,0.0,0.0,0.0,0.0,0.0,0.0,0.0,0.0,0.0,0.0,0.0,0.0,0.0,0.0,0.0,1.273,1.2361,1.2656,1.2881,1.2881,1.2881,1.2547,1.1665,0.0,0.0,0.0,0.0,0.0,0.0,0.0,0.0,0.0,0.0,0.0,0.0,0.0,0.0,0.0,0.0,0.0,0.0,0.0,0.0,0.0,0.0,0.0,0.0,0.0,0.0,0.0,0.0,0.0,0.0,0.0,0.0,0.0,0.0,0.0,0.0,0.0,0.0,0.0,0.0,0.0,0.0,0.0,0.0,0.0,0.0,0.0,0.0,0.0,0.0,0.0,0.0,0.0,0.0,0.0,0.0,0.0,0.0,0.0,0.0,0.0,0.0,0.0,0.0,0.0,0.0,0.0,0.0,0.0,0.0,0.0,0.0,0.0,0.0,0.0,0.0,0.0,0.0,0.0,0.0,0.0,0.0,0.0,0.0,0.0,0.0,0.0,0.0,0.0,0.0,0.0,0.0,0.0,0.0,0.0,0.0,0.0,0.0,0.0,0.0,0.0,0.0,0.0,0.0,1.2505,1.2753,1.2842,1.2881,1.2881,1.2881,1.2547,1.1665,0.0,0.0,0.0,0.0,0.0,0.0,0.0,0.0,0.0,0.0,0.0,0.0,0.0,0.0,0.0,0.0,0.0,0.0,0.0,0.0,0.0,0.0,0.0,0.0,0.0,0.0,0.0,0.0,0.0,0.0,0.0,0.0,0.0,0.0,0.0,0.0,0.0,0.0,0.0,0.0,0.0,0.0,0.0,0.0,0.0,0.0,0.0,0.0,0.0,0.0,0.0,0.0,0.0,0.0,0.0,0.0,0.0,0.0,0.0,0.0,0.0,0.0,0.0,0.0,0.0,0.0,0.0,0.0,0.0,0.0,0.0,0.0,0.0,0.0,0.0,0.0,0.0,0.0,0.0,0.0,0.0,0.0,0.0,0.0,0.0,0.0,0.0,0.0,0.0,0.0,0.0,0.0,0.0,0.0,0.0,0.0,0.0,0.0,0.0,0.0,0.0,0.0,0.0,1.2396,1.2433,1.2861,1.2881,1.2881,1.2881,1.2881,1.2547,1.1665,1.1606,0.0,0.0,0.0,0.0,0.0,0.0,0.0,0.0,0.0,0.0,0.0,0.0,0.0,0.0,0.0,0.0,0.0,0.0,0.0,0.0,0.0,0.0,0.0,0.0,0.0,0.0,0.0,0.0,0.0,0.0,0.0,0.0,0.0,0.0,0.0,0.0,0.0,0.0,0.0,0.0,0.0,0.0,0.0,0.0,0.0,0.0,0.0,0.0,0.0,0.0,0.0,0.0,0.0,0.0,0.0,0.0,0.0,0.0,0.0,0.0,0.0,0.0,0.0,0.0,0.0,0.0,0.0,0.0,0.0,0.0,0.0,0.0,0.0,0.0,0.0,0.0,0.0,0.0,0.0,0.0,0.0,0.0,0.0,0.0,0.0,0.0,0.0,0.0,0.0,0.0,0.0,0.0,0.0,0.0,0.0,0.0,0.0,0.0,0.0,0.0,0.0,0.0,1.2385,1.251,1.2842,1.2881,1.2881,1.2881,1.2783,1.2393,1.1655,1.1508,0.0,0.0,0.0,0.0,0.0,0.0,0.0,0.0,0.0,0.0,0.0,0.0,0.0,0.0,0.0,0.0,0.0,0.0,0.0,0.0,0.0,0.0,0.0,0.0,0.0,0.0,0.0,0.0,0.0,0.0,0.0,0.0,0.0,0.0,0.0,0.0,0.0,0.0,0.0,0.0,0.0,0.0,0.0,0.0,0.0,0.0,0.0,0.0,0.0,0.0,0.0,0.0,0.0,0.0,0.0,0.0,0.0,0.0,0.0,0.0,0.0,0.0,0.0,0.0,0.0,0.0,0.0,0.0,0.0,0.0,0.0,0.0,0.0,0.0,0.0,0.0,0.0,0.0,0.0,0.0,0.0,0.0,0.0,0.0,0.0,0.0,0.0,0.0,0.0,0.0,0.0,0.0,0.0,0.0,0.0,0.0,0.0,0.0,0.0,0.0,0.0,0.0,1.2894,1.2842,1.2881,1.2881,1.2881,1.2881,1.251,1.207,1.1636,1.1182,0.0,0.0,0.0,0.0,0.0,0.0,0.0,0.0,0.0,0.0,0.0,0.0,0.0,0.0,0.0,0.0,0.0,0.0,0.0,0.0,0.0,0.0,0.0,0.0,0.0,0.0,0.0,0.0,0.0,0.0,0.0,0.0,0.0,0.0,0.0,0.0,0.0,0.0,0.0,0.0,0.0,0.0,0.0,0.0,0.0,0.0,0.0,0.0,0.0,0.0,0.0,0.0,0.0,0.0,0.0,0.0,0.0,0.0,0.0,0.0,0.0,0.0,0.0,0.0,0.0,0.0,0.0,0.0,0.0,0.0,0.0,0.0,0.0,0.0,0.0,0.0,0.0,0.0,0.0,0.0,0.0,0.0,0.0,0.0,0.0,0.0,0.0,0.0,0.0,0.0,0.0,0.0,0.0,0.0,0.0,0.0,0.0,0.0,0.0,0.0,0.0,0.0,1.2478,1.2578,0.0,1.2881,1.2881,1.2881,1.2734,1.2334,1.1645,0.0,0.0,0.0,0.0,0.0,0.0,0.0,0.0,0.0,0.0,0.0,0.0,0.0,0.0,0.0,0.0,0.0,0.0,0.0,0.0,0.0,0.0,0.0,0.0,0.0,0.0,0.0,0.0,0.0,0.0,0.0,0.0,0.0,0.0,0.0,0.0,0.0,0.0,0.0,0.0,0.0,0.0,0.0,0.0,0.0,0.0,0.0,0.0,0.0,0.0,0.0,0.0,0.0,0.0,0.0,0.0,0.0,0.0,0.0,0.0,0.0,0.0,0.0,0.0,0.0,0.0,0.0,0.0,0.0,0.0,0.0,0.0,0.0,0.0,0.0,0.0,0.0,0.0,0.0,0.0,0.0,0.0,0.0,0.0,0.0,0.0,0.0,0.0,0.0,0.0,0.0,0.0,0.0,0.0,0.0,0.0,0.0,0.0,0.0,0.0,0.0,0.0,1.2256,1.2378,1.2549,0.0,1.2881,1.2881,1.2881,1.2675,1.2194,1.1439,0.0,0.0,0.0,0.0,0.0,0.0,0.0,0.0,0.0,0.0,0.0,0.0,0.0,0.0,0.0,0.0,0.0,0.0,0.0,0.0,0.0,0.0,0.0,0.0,0.0,0.0,0.0,0.0,0.0,0.0,0.0,0.0,0.0,0.0,0.0,0.0,0.0,0.0,0.0,0.0,0.0,0.0,0.0,0.0,0.0,0.0,0.0,0.0,0.0,0.0,0.0,0.0,0.0,0.0,0.0,0.0,0.0,0.0,0.0,0.0,0.0,0.0,0.0,0.0,0.0,0.0,0.0,0.0,0.0,0.0,0.0,0.0,0.0,0.0,0.0,0.0,0.0,0.0,0.0,0.0,0.0,0.0,0.0,0.0,0.0,0.0,0.0,0.0,0.0,0.0,0.0,0.0,0.0,0.0,0.0,0.0,0.0,0.0,0.0,0.0,0.0,0.0,1.2341,1.2639,1.2881,1.2881,1.2881,1.2881,1.2881,1.2116,1.142,0.0,0.0,0.0,0.0,0.0,0.0,0.0,0.0,0.0,0.0,0.0,0.0,0.0,0.0,0.0,0.0,0.0,0.0,0.0,0.0,0.0,0.0,0.0,0.0,0.0,0.0,0.0,0.0,0.0,0.0,0.0,0.0,0.0,0.0,0.0,0.0,0.0,0.0,0.0,0.0,0.0,0.0,0.0,0.0,0.0,0.0,0.0,0.0,0.0,0.0,0.0,0.0,0.0,0.0,0.0,0.0,0.0,0.0,0.0,0.0,0.0,0.0,0.0,0.0,0.0,0.0,0.0,0.0,0.0,0.0,0.0,0.0,0.0,0.0,0.0,0.0,0.0,0.0,0.0,0.0,0.0,0.0,0.0,0.0,0.0,0.0,0.0,0.0,0.0,0.0,0.0,0.0,0.0,0.0,0.0,0.0,0.0,0.0,0.0,0.0,0.0,0.0,0.0,1.2309,1.2639,1.2881,1.2881,1.2881,1.2881,1.2881,1.2363,1.1709,1.0957,0.0,0.0,0.0,0.0,0.0,0.0,0.0,0.0,0.0,0.0,0.0,0.0,0.0,0.0,0.0,0.0,0.0,0.0,0.0,0.0,0.0,0.0,0.0,0.0,0.0,0.0,0.0,0.0,0.0,0.0,0.0,0.0,0.0,0.0,0.0,0.0,0.0,0.0,0.0,0.0,0.0,0.0,0.0,0.0,0.0,0.0,0.0,0.0,0.0,0.0,0.0,0.0,0.0,0.0,0.0,0.0,0.0,0.0,0.0,0.0,0.0,0.0,0.0,0.0,0.0,0.0,0.0,0.0,0.0,0.0,0.0,0.0,0.0,0.0,0.0,0.0,0.0,0.0,0.0,0.0,0.0,0.0,0.0,0.0,0.0,0.0,0.0,0.0,0.0,0.0,0.0,0.0,0.0,0.0,0.0,0.0,0.0,0.0,0.0,0.0,0.0,0.0,1.2263,1.2619,1.2881,1.2881,1.2618,1.2559,1.2881,1.2225,1.1467,1.0624,0.0,0.0,0.0,0.0,0.0,0.0,0.0,0.0,0.0,0.0,0.0,0.0,0.0,0.0,0.0,0.0,0.0,0.0,0.0,0.0,0.0,0.0,0.0,0.0,0.0,0.0,0.0,0.0,0.0,0.0,0.0,0.0,0.0,0.0,0.0,0.0,0.0,0.0,0.0,0.0,0.0,0.0,0.0,0.0,0.0,0.0,0.0,0.0,0.0,0.0,0.0,0.0,0.0,0.0,0.0,0.0,0.0,0.0,0.0,0.0,0.0,0.0,0.0,0.0,0.0,0.0,0.0,0.0,0.0,0.0,0.0,0.0,0.0,0.0,0.0,0.0,0.0,0.0,0.0,0.0,0.0,0.0,0.0,0.0,0.0,0.0,0.0,0.0,0.0,0.0,0.0,0.0,0.0,0.0,0.0,0.0,0.0,0.0,0.0,0.0,0.0,0.0,1.2214,1.2607,1.2881,1.2881,1.2236,1.208,1.2822,1.1825,1.0821,1.0206,0.0,0.0,0.0,0.0,0.0,0.0,0.0,0.0,0.0,0.0,0.0,0.0,0.0,0.0,0.0,0.0,0.0,0.0,0.0,0.0,0.0,0.0,0.0,0.0,0.0,0.0,0.0,0.0,0.0,0.0,0.0,0.0,0.0,0.0,0.0,0.0,0.0,0.0,0.0,0.0,0.0,0.0,0.0,0.0,0.0,0.0,0.0,0.0,0.0,0.0,0.0,0.0,0.0,0.0,0.0,0.0,0.0,0.0,0.0,0.0,0.5546,0.6247,0.0,0.0,0.0,0.0,0.0,0.0,0.0,0.0,0.0,0.0,0.0,0.0,0.0,0.0,0.0,0.0,0.0,0.0,0.0,0.0,0.0,0.0,0.0,0.0,0.0,0.0,0.0,0.0,0.0,0.0,0.0,0.0,0.0,0.0,0.0,0.0,0.0,0.0,0.0,0.0,1.2168,1.2607,1.2881,1.2881,1.2236,1.208,1.2822,1.1384,1.0424,1.0472,0.9373,0.0,0.0,0.0,0.0,0.0,0.0,0.0,0.0,0.0,0.0,0.0,0.0,0.0,0.0,0.0,0.0,0.0,0.0,0.0,0.0,0.0,0.0,0.0,0.0,0.0,0.0,0.0,0.0,0.0,0.0,0.0,0.0,0.0,0.0,0.0,0.0,0.0,0.0,0.0,0.0,0.0,0.0,0.0,0.0,0.0,0.0,0.0,0.0,0.0,0.0,0.0,0.0,0.0,0.0,0.0,0.0,0.0,0.0,0.0,0.5534,0.595,0.0,0.0,0.0,0.0,0.0,0.0,0.0,0.0,0.0,0.0,0.0,0.0,0.0,0.0,0.0,0.0,0.0,0.0,0.0,0.0,0.0,0.0,0.0,0.0,0.0,0.0,0.0,0.0,0.0,0.0,0.0,0.0,0.0,0.0,0.0,0.0,0.0,0.0,0.0,0.0,1.2016,1.2213,1.2246,1.195,1.1275,1.1266,1.2295,1.0905,1.0148,1.0496,0.9537,0.0,0.0,0.0,0.0,0.0,0.0,0.0,0.0,0.0,0.0,0.0,0.0,0.0,0.0,0.0,0.0,0.0,0.0,0.0,0.0,0.0,0.0,0.0,0.0,0.0,0.0,0.0,0.0,0.0,0.0,0.0,0.0,0.0,0.0,0.0,0.0,0.0,0.0,0.0,0.0,0.0,0.0,0.0,0.0,0.0,0.0,0.0,0.0,0.0,0.0,0.0,0.0,0.0,0.8397,0.8029,0.7629,0.7264,0.6423,0.5296,0.556,0.5439,0.5249,0.6197,0.0,0.0,0.0,0.0,0.0,0.0,0.0,0.0,0.0,0.0,0.0,0.0,0.0,0.0,0.0,0.0,0.0,0.0,0.0,0.0,0.0,0.0,1.0542,0.9581,0.9683,0.9866,0.9486,0.0,0.0,0.0,0.0,0.0,0.0,0.0,0.0,0.0,0.0,0.0,1.167,1.1616,1.1408,1.0864,1.0218,1.0312,1.1516,1.0415,0.9796,1.0254,0.966,0.8982,0.0,0.0,0.0,0.0,0.0,0.0,0.0,0.0,0.0,0.0,0.0,0.0,0.0,0.0,0.0,0.0,0.0,0.0,0.0,0.0,0.0,0.0,0.0,0.0,0.0,0.0,0.0,0.0,0.0,0.0,0.0,0.0,0.7029,0.7406,0.0,0.0,0.0,0.0,0.0,0.0,0.0,0.0,0.0,0.0,0.0,0.0,0.0,0.8978,0.9446,0.8814,0.8552,0.8625,0.7946,0.7597,0.7507,0.671,0.6226,0.599,0.5332,0.0,0.545,0.5582,0.0,0.0,0.0,0.0,0.0,0.0,0.0,0.0,0.0,0.0,0.0,0.0,0.0,0.0,0.0,0.0,0.0,0.0,0.0,0.0,0.0,0.0,0.9089,0.8951,0.8919,0.8992,0.8899,0.919,0.9655,1.0153,0.9908,0.9877,0.0,0.0,0.0,0.0,0.0,0.0,1.0973,1.0914,1.0914,1.0813,1.0218,1.0115,1.0864,0.9718,0.9197,0.9849,0.9062,0.8679,0.9021,0.8489,0.0,0.0,0.0,0.0,0.0,0.0,0.0,0.0,0.0,0.0,0.0,0.0,0.0,0.0,0.0,0.0,0.0,0.0,0.0,0.0,0.0,0.0,0.0,0.0,0.0,0.0,0.0,0.0,0.0,0.8175,0.8915,0.8623,0.8654,0.874,0.0,0.0,0.0,0.0,0.0,0.0,0.0,0.0,0.0,0.9285,0.9299,0.9426,0.9679,0.9382,0.9284,0.9436,0.9131,0.8764,0.8336,0.7968,0.7471,0.6878,0.5988,0.5719,0.5912,0.5806,0.6151,0.6783,0.0,0.0,0.0,0.0,0.7353,0.7224,0.6389,0.6059,0.5928,0.5628,0.0,0.0,0.0,0.0,0.0,0.0,0.0,1.0878,1.0203,0.9944,0.9784,0.9403,0.9299,0.9299,0.9299,0.9465,0.9665,0.9946,1.0114,1.0439,1.1158,1.0967,0.0,0.0,0.0,1.0789,1.0297,1.0269,1.0115,0.971,0.9413,0.9517,1.0167,0.9361,0.9113,0.9762,0.9085,0.8714,0.8964,0.8825,0.8889,0.0,0.0,0.0,0.0,0.0,0.0,0.0,0.0,0.0,0.0,0.0,0.0,0.0,0.0,0.0,0.0,0.0,0.0,0.0,0.0,0.0,0.0,0.0,0.0,0.0,0.0,0.0,0.0,0.9432,1.0128,0.9333,0.9358,0.9424,0.0,0.0,0.0,0.0,0.0,0.0,0.9332,0.9352,0.9492,0.9786,0.9793,0.9833,0.9907,0.9907,1.0013,1.0234,1.0234,0.9914,0.9408,0.916,0.8684,0.7902,0.6796,0.6305,0.6297,0.5908,0.5816,0.6053,0.6588,0.6947,0.7061,0.6887,0.6828,0.6708,0.5992,0.5668,0.5536,0.5292,0.5918,0.6884,0.7629,0.0,0.0,0.0,0.0,1.1287,1.0629,1.0458,1.0293,0.9795,0.9686,0.9686,0.9686,0.9853,0.9938,0.9796,1.0166,1.0729,1.1396,1.1094,0.0,1.1447,0.0,1.0496,0.9746,0.9633,0.9446,0.8864,0.8804,0.9008,0.951,0.9113,0.9008,0.951,0.9061,0.8804,0.8804,0.8994,0.9126,0.9195,0.0,0.0,0.0,0.0,0.0,0.0,0.0,0.0,0.0,0.0,0.0,0.0,0.0,0.0,0.0,0.0,0.0,0.0,0.0,0.0,0.0,0.0,0.0,0.0,0.0,0.0,0.0,0.0,0.0,0.8935,0.9327,0.0,0.0,0.0,0.0,0.9619,0.9619,0.9626,0.9659,0.9659,0.9793,1.0087,1.0094,1.0234,1.0577,1.0577,1.0584,1.0598,1.0598,1.0534,1.0471,0.964,0.9244,0.9105,0.7404,0.6689,0.6599,0.5461,0.5396,0.5992,0.6053,0.6469,0.7002,0.6289,0.6053,0.5932,0.5218,0.4975,0.4965,0.4897,0.5959,0.7549,0.8862,0.993,0.0,0.0,1.0736,1.0629,0.9904,0.9737,0.9737,0.9686,0.9686,0.9686,0.9686,1.0186,1.0451,0.9812,0.9755,0.9971,1.0635,0.0,1.0748,1.0741,1.0741,1.0355,0.9356,0.9212,0.9112,0.8838,0.8804,0.8804,0.8857,0.8804,0.8804,0.8857,0.8804,0.8804,0.8804,0.8791,0.8954,0.9195,0.9193,0.0,0.0,0.0,0.0,0.0,0.0,0.0,0.0,0.0,0.0,0.0,0.0,0.0,0.0,0.0,0.0,0.0,0.0,0.0,0.0,0.0,0.0,0.0,0.0,0.0,0.0,0.0,0.0,1.0019,0.9831,0.0,1.0356,1.013,1.012,1.0501,1.0528,1.0608,1.0795,1.0802,1.0855,1.0955,1.0962,1.1009,1.1116,1.1116,1.1116,1.1116,1.1116,1.0751,0.998,0.9718,0.9159,0.842,0.7242,0.6719,0.6641,0.5628,0.5396,0.5581,0.5581,0.5773,0.5962,0.5709,0.5581,0.5585,0.5331,0.5138,0.5116,0.5674,0.6224,0.6917,0.8167,0.8708,0.9086,0.9661,0.9784,0.9852,1.0179,1.0309,1.0309,1.0309,1.0309,1.0309,1.0309,1.0486,1.054,1.0309,1.0283,1.0408,1.0679,1.0351,1.0186,1.0629,1.0351,0.9921,0.9596,0.9526,0.9412,0.9118,0.903,0.9011,0.8824,0.8804,0.8804,0.8804,0.8804,0.8804,0.8804,0.8804,0.8862,0.8954,0.876,0.8725,0.0,0.0,0.0,0.0,0.0,0.0,0.0,0.0,0.0,0.0,0.0,0.0,0.0,0.0,0.0,0.0,0.0,0.0,0.0,0.0,0.0,0.0,0.0,0.0,0.0,0.0,1.0362,1.0616,1.0444,1.0486,1.0993,1.0739,1.0722,1.1109,1.1136,1.1223,1.1416,1.1423,1.1423,1.1423,1.1423,1.1423,1.1423,1.1423,1.1423,1.1423,1.1423,1.0976,1.0257,0.9914,0.9344,0.8583,0.7377,0.6844,0.6781,0.5913,0.5508,0.5501,0.5466,0.5428,0.5428,0.5428,0.5428,0.5428,0.5428,0.5294,0.5274,0.5845,0.6266,0.6724,0.7438,0.7859,0.8235,0.8761,0.9131,0.9503,1.0002,1.0364,1.0624,1.0624,1.0624,1.0624,1.0624,1.0624,1.0624,1.0624,1.0662,1.0666,1.0666,1.0324,1.0272,1.0953,1.0436,1.0059,1.0238,0.9996,0.9719,0.9419,0.9243,0.9103,0.8971,0.8864,0.8699,0.8427,0.8427,0.8315,0.8049,0.8521,0.8778,0.8778,0.8758,0.8738,0.8774,0.0,0.0,0.0,0.0,0.0,0.0,0.0,0.0,0.0,0.0,0.0,0.0,0.0,0.0,0.0,0.0,0.0,0.0,0.0,0.0,0.0,0.0,0.0,1.0082,1.0953,1.1365,1.0708,1.1082,1.1316,1.1049,1.1276,1.1443,1.145,1.145,1.145,1.145,1.145,1.145,1.145,1.145,1.145,1.145,1.145,1.145,1.145,1.145,1.1381,1.1299,1.0309,0.9811,0.9667,0.7849,0.7078,0.7007,0.6158,0.58,0.5772,0.5488,0.5442,0.5442,0.5442,0.5442,0.5442,0.5442,0.5442,0.5442,0.5442,0.6071,0.6877,0.6877,0.755,0.8294,0.8162,0.8778,0.9392,0.9291,0.9932,1.0575,1.0575,1.0575,1.0638,1.0638,1.0645,1.0651,1.0651,1.0651,1.0645,1.0624,1.0631,1.0877,1.1648,1.1115,0.0,1.1212,1.0597,1.002,0.9784,0.9439,0.921,0.9252,0.8985,0.8493,0.7735,0.7676,0.7343,0.6642,0.7894,0.8626,0.8678,0.9127,0.913,0.8537,0.0,0.0,0.0,0.0,0.0,0.0,0.0,0.0,0.0,0.0,0.0,0.0,0.0,0.0,0.0,0.0,0.0,0.0,0.0,0.0,0.0,0.9793,1.0349,1.0445,1.0898,1.1138,1.1162,1.1329,1.1476,1.1617,1.1703,1.183,1.2044,1.2058,1.2058,1.2058,1.2058,1.2058,1.2058,1.2058,1.2058,1.2058,1.2058,1.2058,1.2058,1.2058,1.1219,0.973,0.9443,0.8418,0.6932,0.6365,0.6158,0.6158,0.5871,0.58,0.5793,0.5711,0.5681,0.5681,0.5681,0.5681,0.5681,0.5681,0.5681,0.5681,0.5681,0.5846,0.609,0.609,0.6261,0.6639,0.7227,0.7561,0.7892,0.8521,0.9198,0.9802,0.9802,1.0333,1.0875,1.0875,1.1042,1.1189,1.1189,1.1189,1.1056,1.0698,1.0735,1.0924,1.0961,1.0928,1.0897,1.0774,1.0622,1.0561,1.0834,1.0269,1.0014,1.0399,0.9154,0.8282,0.806,0.7334,0.6804,0.6588,0.6956,0.7433,0.7978,0.8839,0.9193,0.0,0.0,0.0,0.0,0.0,0.0,0.0,0.0,0.0,0.0,0.0,0.0,0.0,0.0,0.0,0.0,0.0,0.0,0.0,0.0,0.0,0.0,1.0534,1.1109,1.1109,1.1256,1.147,1.1757,1.1797,1.1857,1.2037,1.2051,1.2124,1.2285,1.2305,1.2305,1.2305,1.2305,1.2305,1.2305,1.2305,1.2305,1.2305,1.2305,1.2305,1.2305,1.2305,1.1617,1.0425,0.9543,0.8513,0.7233,0.636,0.5993,0.5993,0.5993,0.5993,0.5983,0.0,0.0,0.0,0.0,0.58,0.58,0.58,0.58,0.58,0.58,0.5844,0.5895,0.5895,0.5942,0.6127,0.6496,0.6905,0.7313,0.773,0.8453,0.9179,0.9587,1.0141,1.0552,1.0552,1.0957,1.1286,1.0861,1.1142,0.0,1.0982,1.1062,1.1249,1.1472,1.1224,1.1059,1.1255,1.0882,1.0676,1.097,1.0485,1.0094,1.0003,0.8978,0.0,0.0,0.0,0.6421,0.6648,0.6699,0.0,0.0,0.0,0.0,0.0,0.0,0.0,0.0,0.9422,0.9841,0.0,0.0,0.0,0.0,0.0,0.0,0.0,0.0,0.0,0.0,0.0,0.0,0.0,0.0,0.0,0.0,1.1336,1.1877,1.1911,1.1917,1.2011,1.2271,1.2305,1.2305,1.2305,1.2305,1.2305,1.2305,1.2331,1.2351,1.2351,0.0,0.0,0.0,0.0,1.2385,1.2351,1.2351,1.2338,1.2305,1.2305,1.215,1.1922,1.0126,0.9145,0.8846,0.7099,0.6338,0.6338,0.6338,0.6338,0.6234,0.5959,0.5854,0.5854,0.5854,0.5854,0.5854,0.5854,0.0,0.0,0.5854,0.5945,0.6057,0.6057,0.6152,0.6234,0.6095,0.6566,0.7188,0.7037,0.7615,0.8508,0.9421,0.9706,0.9776,0.9776,1.0508,1.0887,1.0038,1.0533,1.1171,1.1309,1.1427,1.1737,1.2451,1.1706,1.1334,1.1992,1.1219,1.0672,1.0792,1.0341,0.0,0.9021,0.8483,0.7568,0.6142,0.5944,0.6083,0.6563,0.6667,0.7007,0.7684,0.774,0.7983,0.824,0.824,0.8733,0.9596,1.021,1.057,0.0,0.0,0.0,0.0,0.0,0.0,0.0,0.0,0.0,0.0,0.0,0.0,0.0,0.0,0.0,1.1209,1.1603,1.1951,1.2184,1.2218,1.2238,1.2291,1.2305,1.2305,1.2305,1.2305,1.2305,1.2305,1.2525,1.2735,1.2735,1.2899,1.3039,1.3039,1.3039,1.2913,1.2735,1.2735,1.2538,1.2305,1.2305,0.0,0.99,0.9448,0.8389,0.6872,0.649,0.6338,0.6338,0.6338,0.6338,0.6254,0.6196,0.6173,0.6173,0.6173,0.6173,0.6173,0.6173,0.6173,0.6173,0.6173,0.6193,0.6217,0.6217,0.6237,0.0,0.6224,0.6367,0.6513,0.6481,0.6962,0.7574,0.7792,0.8442,0.9021,0.9021,0.9395,0.9612,0.9463,0.9537,0.9983,1.0789,1.1422,1.1774,1.1669,1.1722,1.168,1.1567,1.1149,1.1156,1.1847,1.043,0.9623,1.0158,0.811,0.6639,0.6333,0.559,0.5143,0.5284,0.5811,0.6223,0.6342,0.6929,0.7308,0.7359,0.7359,0.7931,0.8962,0.9595,0.9976,0.0,0.0,0.0,0.0,0.0,0.0,0.0,0.0,0.0,0.0,0.0,1.0214,1.0501,0.0,1.1303,1.1597,1.1897,1.2138,1.2278,1.2305,1.2305,1.2305,1.2305,1.2305,1.2305,1.2438,1.2525,1.2525,1.2806,1.2979,1.2979,1.3126,1.3213,1.3213,1.3213,1.3133,1.2979,1.2979,1.2906,1.2759,1.2759,1.1903,1.0231,0.9694,0.8635,0.7022,0.649,0.6338,0.6338,0.6338,0.6338,0.6338,0.6338,0.6338,0.6338,0.6338,0.6338,0.6338,0.6338,0.6338,0.6338,0.6338,0.6338,0.6338,0.6338,0.6338,0.6338,0.6338,0.6338,0.6338,0.6338,0.6579,0.6965,0.7409,0.793,0.83,0.83,0.884,0.9145,0.8613,0.8917,0.9448,0.997,1.0763,1.1439,1.1813,1.1864,1.1817,1.1663,1.139,1.1129,1.1028,1.0133,0.9313,0.8756,0.701,0.5887,0.5887,0.5435,0.5108,0.503,0.533,0.5574,0.5574,0.594,0.6395,0.6967,0.6967,0.7584,0.8641,0.8922,0.9582,0.0,0.0,0.0,0.0,0.0,0.0,0.0,0.0,0.9124,0.8782,0.9857,1.0954,1.1122,1.1396,1.1677,1.1917,1.2151,1.2305,1.2305,1.2305,1.2305,1.2305,1.2305,1.2325,1.2385,1.2605,1.2849,1.2909,1.312,1.3293,1.3293,1.3347,1.338,1.338,1.338,1.3353,1.3293,1.3293,1.3267,1.3213,1.3213,1.2438,1.0947,1.0079,0.8963,0.7504,0.6734,0.6346,0.6346,0.6346,0.6346,0.6346,0.6346,0.6346,0.6339,0.6281,0.6338,0.6338,0.6338,0.6338,0.6338,0.6338,0.6338,0.6338,0.6338,0.6338,0.6338,0.6338,0.6338,0.6338,0.6338,0.6338,0.649,0.7326,0.748,0.748,0.748,0.8161,0.8466,0.7629,0.8161,0.877,0.8998,0.9664,1.0565,1.1552,1.1734,1.1585,1.1441,1.1262,1.0798,0.9805,0.9593,0.8701,0.6854,0.592,0.5447,0.5447,0.5447,0.5389,0.5267,0.526,0.526,0.526,0.526,0.5708,0.6717,0.6717,0.7203,0.8127,0.8165,0.905,0.4626,0.4775,0.4918,0.5213,0.5728,0.6346,0.0,0.0,0.9538,0.9723,1.0786,1.173,1.1764,1.2011,1.2211,1.2245,1.2278,1.2305,1.2305,1.2305,1.2305,1.2305,1.2305,1.2405,1.2748,1.2802,1.2936,1.314,1.3427,1.3594,1.3594,1.3848,1.3988,1.3988,1.3988,1.3861,1.3594,1.3594,1.3467,1.3213,1.3213,1.2129,1.0064,0.9903,0.8765,0.6815,0.6733,0.6651,0.6651,0.6651,0.6651,0.6651,0.6651,0.6651,0.662,0.6359,0.6338,0.6338,0.6338,0.6338,0.6338,0.6338,0.6338,0.6338,0.6338,0.6338,0.6338,0.6338,0.6338,0.6338,0.6338,0.6338,0.6338,0.6412,0.6493,0.6493,0.6493,0.6567,0.6567,0.649,0.6567,0.6945,0.7783,0.8084,0.8461,0.9448,1.0392,1.0599,0.9712,1.016,1.0067,0.9047,0.8786,0.7958,0.6058,0.5834,0.5752,0.5752,0.5752,0.5745,0.5728,0.5725,0.5725,0.5725,0.5725,0.5813,0.5915,0.5915,0.635,0.722,0.7458,0.8006,0.4884,0.4992,0.0,0.0,0.6171,0.6701,0.755,0.8801,0.9904,1.0461,1.1573,1.2432,1.2619,1.2752,1.2826,0.0,1.2826,1.2826,1.2826,1.2672,1.2559,1.2559,1.2559,1.2688,1.2808,1.306,1.332,1.3454,1.3734,1.3901,1.3901,1.4021,1.4088,1.4088,1.4088,1.4028,1.3901,1.3901,1.3841,1.3721,1.3029,1.1763,1.013,0.9478,0.8263,0.6702,0.6702,0.6702,0.6702,0.6702,0.6702,0.6702,0.6702,0.6702,0.6685,0.6563,0.6461,0.6383,0.6383,0.6329,0.6338,0.6338,0.6338,0.6338,0.6338,0.6338,0.6338,0.6338,0.6338,0.6281,0.6363,0.6383,0.6407,0.6495,0.6515,0.6491,0.6403,0.6383,0.6359,0.6278,0.6338,0.6412,0.6872,0.7403,0.7783,0.7557,0.8912,0.9744,0.9372,0.9585,0.9321,0.8157,0.7496,0.6764,0.5882,0.58,0.58,0.58,0.58,0.58,0.58,0.58,0.58,0.58,0.58,0.5844,0.5935,0.5935,0.6201,0.6667,0.673,0.6949,0.5013,0.0,0.0,0.6026,0.6344,0.6776,0.7934,0.9071,1.0103,1.1,1.2101,1.2946,1.3166,1.3213,1.3213,1.3213,1.3213,1.3213,1.3213,1.2946,1.2822,1.2822,1.2822,1.2856,1.2866,1.334,1.3674,1.3761,1.3968,1.4088,1.4088,1.4088,1.4088,1.4088,1.4088,1.4088,1.4088,1.4088,1.4088,1.4088,1.3203,1.1974,1.0447,0.893,0.7769,0.682,0.682,0.682,0.682,0.682,0.682,0.682,0.682,0.682,0.682,0.682,0.6702,0.6536,0.6536,0.6468,0.6376,0.6332,0.6318,0.6312,0.6274,0.6338,0.6271,0.6308,0.6318,0.6352,0.6498,0.6536,0.6563,0.6675,0.6702,0.6671,0.6559,0.6536,0.6505,0.64,0.6383,0.6369,0.6325,0.6935,0.715,0.6419,0.7557,0.8466,0.8466,0.8466,0.8254,0.7663,0.6686,0.6047,0.5939,0.5928,0.5928,0.5928,0.5928,0.5928,0.5928,0.5928,0.5928,0.5928,0.5928,0.5983,0.6095,0.6095,0.6149,0.6338,0.6338,0.6338,0.0,0.0,0.5494,0.5715,0.5901,0.6389,0.7861,0.8963,1.0053,1.142,1.246,1.32,1.3213,1.3213,1.3213,1.3213,1.3213,1.3213,1.3213,1.2946,1.2822,1.2822,1.2822,1.2866,1.3166,1.3467,1.3761,1.4048,1.4082,1.4088,1.4088,1.4088,1.4088,1.4088,1.4088,1.4088,1.4088,1.4088,1.4088,1.4088,1.4088,1.2863,1.0514,0.8177,0.7129,0.7126,0.7126,0.7126,0.7126,0.7126,0.7126,0.7126,0.7126,0.7126,0.7126,0.7126,0.6943,0.6695,0.6695,0.6692,0.6661,0.6515,0.6464,0.6441,0.6302,0.6338,0.6288,0.6427,0.6464,0.6502,0.6654,0.6695,0.6695,0.6698,0.6702,0.6698,0.6695,0.6695,0.6692,0.6688,0.6685,0.6641,0.6491,0.6544,0.65,0.6359,0.6338,0.6416,0.6416,0.6416,0.6718,0.7698,0.6861,0.6251,0.6247,0.6247,0.6247,0.6247,0.6247,0.6247,0.6247,0.6247,0.6247,0.6247,0.6247,0.6247,0.6254,0.6254,0.6254,0.6338,0.6338,0.6338,0.0,0.0,0.5701,0.5901,0.6666,0.7745,0.8968,1.0137,1.1364,1.2694,1.3093,1.3267,1.346,1.35,1.35,1.35,1.3661,1.3794,1.3794,1.3534,1.334,1.334,1.334,0.0,0.0,0.0,0.0,1.4062,1.4088,1.4088,1.4088,1.4088,1.4088,1.4088,1.4088,1.4088,1.4088,1.4088,1.4088,1.4088,1.2522,1.0524,0.8269,0.7489,0.7139,0.7139,0.7139,0.7139,0.7139,0.7139,0.7139,0.7139,0.7139,0.7139,0.7139,0.7139,0.7078,0.698,0.6885,0.6783,0.6692,0.6641,0.6624,0.6614,0.6566,0.6552,0.6563,0.661,0.6624,0.6658,0.6814,0.6851,0.6875,0.697,0.6993,0.6966,0.6871,0.6851,0.682,0.6719,0.6702,0.6685,0.663,0.6624,0.6573,0.6424,0.6322,0.6338,0.6338,0.6338,0.6416,0.6795,0.649,0.6338,0.6338,0.6338,0.6338,0.6338,0.6338,0.6338,0.6338,0.6338,0.6338,0.6338,0.6338,0.6338,0.6338,0.6338,0.6338,0.6338,0.6338,0.6338,0.544,0.5657,0.5937,0.6648,0.7492,0.8643,1.0226,1.1192,1.2176,1.3356,1.3494,1.3394,1.3474,1.3487,1.3527,1.3546,1.3801,1.3968,1.4075,1.3834,1.3559,1.3559,1.3559,1.3687,0.0,0.0,0.0,1.4082,1.4182,1.4195,1.4095,1.4182,1.4195,1.4088,1.4188,1.4195,1.4088,1.4295,1.4163,1.3617,1.125,0.9292,0.7753,0.7316,0.7139,0.7139,0.7139,0.7139,0.7139,0.7139,0.7139,0.7139,0.7139,0.7139,0.7139,0.7139,0.7139,0.7129,0.7037,0.6939,0.6851,0.68,0.678,0.6773,0.6715,0.6702,0.6712,0.6766,0.678,0.6817,0.6966,0.7004,0.7027,0.7119,0.7139,0.7115,0.7024,0.7004,0.6973,0.6875,0.6858,0.6841,0.679,0.6736,0.6668,0.6569,0.6474,0.638,0.6274,0.6338,0.6338,0.6338,0.6338,0.6338,0.6338,0.6338,0.6338,0.6338,0.6338,0.6338,0.6338,0.6338,0.6338,0.6338,0.6338,0.6338,0.6338,0.6338,0.6338,0.6264,0.6312,0.6335,0.5725,0.582,0.6229,0.7766,0.8149,0.8894,1.1348,1.2046,1.2383,1.3307,1.3532,1.3507,1.322,0.0,1.33,1.3554,1.3634,1.3768,1.4048,1.3841,1.3667,0.0,0.0,0.0,0.0,0.0,0.0,1.4155,0.0,1.4422,1.4148,1.4396,1.4416,1.4142,1.4396,1.4409,1.4135,1.4683,1.4174,1.2557,1.0239,0.8987,0.8819,0.768,0.7146,0.7139,0.7139,0.7139,0.7139,0.7139,0.7139,0.7139,0.7139,0.7139,0.7139,0.7139,0.7139,0.7139,0.7139,0.7139,0.7115,0.6983,0.6939,0.6912,0.6766,0.6722,0.6753,0.6898,0.6939,0.697,0.7105,0.7139,0.7139,0.7139,0.7139,0.7139,0.7139,0.7139,0.7139,0.7139,0.7139,0.7099,0.6963,0.6814,0.6712,0.6712,0.6705,0.66,0.6318,0.6285,0.6285,0.6285,0.6285,0.6285,0.6285,0.6278,0.6271,0.6271,0.6342,0.6338,0.6338,0.6338,0.6338,0.6338,0.6345,0.6271,0.6271,0.6281,0.6285,0.6288,0.642,0.6485,0.5752,0.6047,0.6407,0.6839,0.7776,0.8739,0.9424,1.0778,1.2035,1.2282,1.2708,1.2886,1.2592,0.0,0.0,1.2999,1.354,0.0,1.4075,1.4021,0.0,1.3975,0.0,1.4329,1.4402,1.4676,0.0,0.0,1.481,1.4816,1.4743,1.481,1.4816,1.4743,1.4816,1.4816,1.4743,1.3962,1.2433,1.0186,0.9548,0.8726,0.7761,0.7493,0.7248,0.7139,0.7139,0.7139,0.7139,0.7139,0.7139,0.7139,0.7139,0.7139,0.7139,0.7139,0.7139,0.7139,0.7139,0.7139,0.7136,0.7099,0.7085,0.7078,0.7041,0.7027,0.7037,0.7075,0.7085,0.7095,0.7132,0.7139,0.7139,0.7139,0.7139,0.7139,0.7139,0.7139,0.7139,0.7139,0.7139,0.7129,0.7092,0.6966,0.6871,0.6871,0.6773,0.6675,0.66,0.6586,0.6586,0.6586,0.6586,0.6586,0.6586,0.6485,0.6417,0.6417,0.6318,0.6338,0.6338,0.6338,0.6338,0.6338,0.6366,0.6417,0.642,0.6532,0.6586,0.659,0.6624,0.6644,0.5962,0.6234,0.6649,0.7189,0.8061,0.8839,0.9252,1.0377,1.1237,1.1292,1.1778,0.0,1.1945,1.2512,0.0,0.0,0.0,0.0,1.4068,1.4088,1.4088,0.0,1.4456,0.0,1.4716,1.5097,1.5344,0.0,1.5224,1.5097,1.497,1.5084,1.5097,1.497,1.5084,1.493,1.4488,1.2494,1.0767,0.9464,0.8906,0.8262,0.7472,0.7472,0.7424,0.7343,0.7343,0.7302,0.7241,0.7241,0.7204,0.7139,0.7139,0.7139,0.7139,0.7139,0.7139,0.7139,0.7139,0.7139,0.7139,0.7139,0.7139,0.7139,0.7139,0.7139,0.7139,0.7139,0.7139,0.7139,0.7139,0.7139,0.7139,0.7139,0.7139,0.7139,0.7139,0.7139,0.7139,0.7139,0.7139,0.7139,0.7139,0.7075,0.7021,0.7021,0.6949,0.6895,0.6895,0.678,0.6702,0.6702,0.6702,0.6702,0.6702,0.662,0.6573,0.6573,0.6498,0.6454,0.6454,0.639,0.6356,0.6356,0.643,0.6471,0.6471,0.6624,0.6702,0.6702,0.677,0.68,0.6217,0.6366,0.6739,0.7841,0.8263,0.8686,0.9476,0.9948,1.0241,1.0307,0.0,1.1273,1.1309,1.2058,1.2721,1.2755,0.0,1.3701,1.4041,1.4122,1.4128,1.4088,1.4636,1.501,1.497,1.5491,1.5832,1.5832,1.5591,1.5344,1.5097,1.5317,1.5245,1.4903,1.4943,1.4421,1.3392,1.089,0.9565,0.956,0.8415,0.7767,0.7628,0.7628,0.7617,0.76,0.76,0.7512,0.737,0.737,0.7282,0.7139,0.7139,0.7139,0.7139,0.7139,0.7139,0.7139,0.7139,0.7139,0.7139,0.7139,0.7139,0.7139,0.7139,0.7139,0.7139,0.7139,0.7139,0.7139,0.7139,0.7139,0.7139,0.7139,0.7139,0.7139,0.7139,0.7139,0.7139,0.7139,0.7139,0.7139,0.7139,0.7139,0.7139,0.7139,0.7139,0.7139,0.7139,0.6915,0.6759,0.6759,0.6759,0.6759,0.6759,0.6742,0.6729,0.6729,0.6712,0.6702,0.6702,0.6573,0.6491,0.6471,0.6512,0.6522,0.6502,0.6675,0.6759,0.6763,0.6895,0.6956,0.6217,0.6366,0.6558,0.6743,0.6948,0.7026,0.7104,0.8234,0.0,0.0,1.0307,1.1322,1.1142,1.159,0.0,1.2338,0.0,0.0,0.0,0.0,1.4355,0.0,0.0,0.0,0.0,0.0,0.0,0.0,1.5785,1.5732,1.5678,1.5732,1.5246,1.4129,1.3019,1.1905,1.0676,1.016,0.9367,0.8294,0.8096,0.7919,0.7773,0.7773,0.7709,0.76,0.76,0.7512,0.737,0.737,0.7282,0.7139,0.7139,0.7139,0.7139,0.7139,0.7139,0.7139,0.7139,0.7139,0.7139,0.7139,0.7139,0.7139,0.7139,0.7139,0.7139,0.7139,0.7139,0.7139,0.7139,0.7139,0.7139,0.7139,0.7139,0.7139,0.7139,0.7139,0.7139,0.7139,0.7139,0.7139,0.7139,0.7139,0.7139,0.7139,0.7139,0.7139,0.7139,0.7095,0.7065,0.7065,0.7065,0.7065,0.7065,0.6956,0.6888,0.6888,0.677,0.6702,0.6702,0.6675,0.6603,0.6474,0.6719,0.6787,0.6661,0.6932,0.7065,0.7065,0.7092,0.7102,0.6217,0.6366,0.6471,0.6471,0.6586,0.662,0.6312,0.0,0.0,0.0,0.9226,1.0113,1.0712,0.0,0.0,0.0,0.0,0.0,0.0,0.0,0.0,0.0,0.0,0.0,0.0,0.0,0.0,1.5832,1.5832,1.5832,1.5832,1.5146,1.4555,1.3872,1.194,1.0583,0.9998,0.9312,0.8627,0.8038,0.8038,0.8001,0.7929,0.7929,0.7892,0.7828,0.7828,0.7699,0.7492,0.7492,0.7353,0.7139,0.7139,0.7139,0.7139,0.7139,0.7139,0.7143,0.7064,0.7061,0.7143,0.7064,0.7061,0.7139,0.7139,0.7139,0.7139,0.7139,0.7139,0.7139,0.7139,0.7139,0.7139,0.7139,0.7061,0.7071,0.7078,0.7074,0.7068,0.7068,0.7061,0.7139,0.7139,0.7139,0.7139,0.7139,0.7139,0.7139,0.7139,0.7139,0.7139,0.7139,0.7139,0.7139,0.7139,0.7078,0.7037,0.7037,0.697,0.6929,0.6929,0.678,0.6705,0.6709,0.6776,0.6814,0.682,0.7034,0.7139,0.7139,0.7139,0.7139,0.6227,0.6342,0.6427,0.6427,0.6676,0.6732,0.6074,0.6371,0.0,0.0,0.8374,0.9129,1.0379,0.0,0.0,0.0,0.0,0.0,0.0,0.0,0.0,0.0,0.0,0.0,0.0,0.0,0.0,1.5832,1.5832,1.5635,1.5439,1.4172,1.3392,1.3097,1.0774,0.9608,0.9608,0.8531,0.8038,0.8038,0.8038,0.8038,0.8038,0.8038,0.8038,0.8038,0.8004,0.7841,0.7597,0.7563,0.7387,0.7139,0.7139,0.7139,0.7139,0.7139,0.7143,0.7061,0.7078,0.689,0.6694,0.6989,0.7071,0.7139,0.7139,0.7139,0.7139,0.7139,0.7139,0.7139,0.7139,0.7143,0.7061,0.7061,0.671,0.6361,0.637,0.6364,0.6539,0.6996,0.7074,0.7061,0.7061,0.7061,0.7061,0.7061,0.7061,0.7058,0.7058,0.7143,0.7139,0.7139,0.7139,0.7139,0.7139,0.7139,0.7139,0.7139,0.7112,0.7095,0.7095,0.6841,0.6742,0.6827,0.6776,0.6793,0.6878,0.7054,0.7139,0.7139,0.7139,0.7139,0.6257,0.6349,0.6281,0.6281,0.6979,0.7351,0.611,0.0,0.0,0.8063,0.8652,0.952,1.0441,1.0692,0.0,0.0,0.0,0.0,0.0,0.0,0.0,0.0,0.0,0.0,0.0,0.0,0.0,1.5832,1.5832,1.5337,1.4166,1.2818,1.1556,1.0386,0.892,0.8137,0.8137,0.8038,0.8038,0.8038,0.8038,0.8038,0.8038,0.8038,0.8038,0.8031,0.7892,0.7743,0.759,0.7451,0.7292,0.7139,0.7139,0.7139,0.7139,0.7139,0.7064,0.7081,0.7084,0.6171,0.5265,0.6627,0.7071,0.7139,0.7139,0.7139,0.7139,0.7139,0.7139,0.7139,0.7139,0.7068,0.7084,0.7094,0.546,0.3927,0.3929,0.3929,0.4556,0.6643,0.7098,0.7098,0.7098,0.7098,0.7098,0.7098,0.7088,0.7081,0.7081,0.7064,0.7139,0.7139,0.7139,0.7139,0.7139,0.7139,0.7139,0.7139,0.7017,0.6949,0.6949,0.679,0.6644,0.6515,0.6773,0.6848,0.6722,0.7004,0.7139,0.7139,0.7139,0.7139,0.621,0.6338,0.6338,0.6338,0.6492,0.6581,0.5919,0.0,0.7048,0.7826,0.8291,0.8935,1.0364,1.0624,1.0788,0.0,0.0,0.0,0.0,0.0,0.0,0.0,0.0,0.0,0.0,0.0,1.5439,1.4752,1.4657,1.3782,1.1648,1.175,1.1361,0.9998,0.8726,0.8038,0.8038,0.8038,0.8038,0.8038,0.8038,0.8038,0.8038,0.8038,0.7987,0.7899,0.7838,0.7678,0.7458,0.7397,0.7282,0.7139,0.7139,0.7061,0.7071,0.7071,0.7081,0.7098,0.7111,0.6097,0.5087,0.6637,0.7084,0.7071,0.7143,0.7139,0.7139,0.7139,0.7139,0.7143,0.7068,0.608,0.5369,0.6751,0.6388,0.4935,0.206,0.1431,0.1697,0.2681,0.4024,0.501,0.501,0.501,0.501,0.501,0.5008,0.5547,0.6913,0.7088,0.7081,0.7081,0.7064,0.7139,0.7139,0.7064,0.7122,0.7118,0.7073,0.6915,0.6719,0.6661,0.6637,0.6746,0.6776,0.6848,0.6966,0.7082,0.7139,0.7139,0.7139,0.7139,0.6122,0.6227,0.6338,0.6338,0.637,0.6352,0.0,0.5899,0.6355,0.7419,0.7632,0.8151,0.9913,1.0238,1.0458,0.0,0.0,1.1944,0.0,0.0,0.0,0.0,0.0,0.0,0.0,0.0,1.4268,1.3392,1.3295,1.2328,1.0096,1.0877,1.0779,0.941,0.8531,0.8038,0.8038,0.8038,0.8038,0.8038,0.8038,0.8038,0.8038,0.7991,0.7913,0.7807,0.7719,0.7563,0.7366,0.7322,0.7244,0.7061,0.7061,0.7074,0.6999,0.6358,0.6459,0.7115,0.7131,0.5476,0.3749,0.6287,0.7101,0.6996,0.6251,0.652,0.7068,0.7068,0.7068,0.7071,0.7094,0.5919,0.4659,0.4947,0.5041,0.4047,0.0719,0.0,0.0,0.0,0.1341,0.2503,0.2503,0.2503,0.2503,0.2503,0.25,0.3126,0.4746,0.5646,0.6097,0.6097,0.6077,0.6337,0.7064,0.7081,0.6845,0.6082,0.6049,0.5969,0.5735,0.6231,0.6583,0.6739,0.6682,0.6776,0.7024,0.7024,0.7068,0.7068,0.7068,0.7064,0.5989,0.6142,0.6338,0.6338,0.6893,0.7155,0.0,0.6452,0.7026,0.6762,0.6719,0.7242,0.9011,0.9338,0.9685,1.0817,1.1483,0.0,0.0,0.0,0.0,0.0,0.0,0.0,0.0,0.0,1.1945,1.1945,1.1945,0.0,1.0096,0.9998,0.941,0.8038,0.8038,0.8038,0.8038,0.8038,0.8038,0.8038,0.8038,0.8038,0.8035,0.7882,0.7814,0.7794,0.7502,0.7373,0.736,0.7207,0.7068,0.7084,0.7084,0.7091,0.6828,0.4469,0.5109,0.7135,0.7135,0.4037,0.0805,0.5578,0.7121,0.6646,0.4378,0.528,0.7101,0.7101,0.7101,0.7108,0.7128,0.7045,0.5858,0.1168,0.009,0.009,0.0,0.0,0.0,0.0,0.0,0.0,0.0,0.0,0.0,0.0,0.0,0.0089,0.0089,0.2142,0.3659,0.3659,0.3659,0.4559,0.692,0.7101,0.6136,0.3817,0.365,0.365,0.3649,0.5364,0.6291,0.6305,0.6576,0.6731,0.6672,0.696,0.7101,0.7101,0.7101,0.7094,0.5688,0.5833,0.5922,0.5827,0.6047,0.6135,0.5737,0.5812,0.6078,0.6601,0.6719,0.7242,0.9005,0.9274,0.9861,1.1603,1.2044,0.0,0.0,0.0,0.0,0.0,0.0,0.0,0.0,0.0,1.156,1.0681,1.0583,0.9998,0.8726,0.8627,0.8432,0.8038,0.8038,0.8038,0.8038,0.8038,0.7987,0.7885,0.7991,0.7984,0.7885,0.794,0.7855,0.7662,0.7567,0.7407,0.721,0.7088,0.7078,0.6903,0.5364,0.5649,0.7035,0.6302,0.4401,0.2247,0.2247,0.1255,0.0805,0.5578,0.7131,0.6943,0.621,0.5382,0.4739,0.4739,0.5836,0.7128,0.7135,0.4678,0.1887,0.0359,0.0,0.0,0.0,0.0,0.0,0.0,0.0,0.0,0.0,0.0,0.0,0.0,0.0,0.0,0.0,0.0628,0.1793,0.3413,0.3593,0.3859,0.465,0.6201,0.6789,0.6025,0.2935,0.1106,0.1161,0.1657,0.2664,0.4116,0.4203,0.435,0.4559,0.4707,0.4739,0.4739,0.4739,0.5552,0.0,0.5566,0.5701,0.5613,0.5589,0.5589,0.5589,0.5471,0.5557,0.6075,0.6203,0.6658,0.8027,0.8613,0.9371,1.1032,1.1775,0.0,0.0,0.0,0.0,0.0,0.0,0.0,0.0,1.0635,1.0092,0.9312,0.9217,0.8924,0.8038,0.8038,0.8038,0.8038,0.8038,0.8038,0.8038,0.8038,0.7991,0.7899,0.7994,0.7991,0.7896,0.7882,0.7773,0.7594,0.7475,0.7322,0.0,0.7081,0.7091,0.6923,0.5471,0.4757,0.4408,0.4408,0.2516,0.0,0.0,0.0,0.0807,0.5589,0.7058,0.6783,0.4954,0.3408,0.2236,0.2236,0.3317,0.4408,0.4408,0.2246,0.0,0.0,0.0,0.0,0.0,0.0,0.0,0.0,0.0,0.0,0.0,0.0,0.0,0.0,0.0,0.0,0.0,0.0,0.0539,0.2069,0.225,0.2246,0.2237,0.359,0.4457,0.445,0.1653,0.0,0.0,0.0,0.0597,0.1884,0.1915,0.2023,0.2209,0.2227,0.2236,0.2236,0.2233,0.3038,0.0,0.5308,0.5538,0.5528,0.5542,0.5559,0.5559,0.5457,0.0,0.5428,0.5428,0.5693,0.656,0.7405,0.8341,0.9597,1.0969,0.0,0.0,0.0,0.0,0.0,0.0,0.0,0.0,0.8525,0.8018,0.8011,0.8007,0.8014,0.8021,0.8024,0.8028,0.8038,0.8038,0.8038,0.8038,0.8038,0.8035,0.8024,0.8035,0.8028,0.7997,0.7736,0.7604,0.757,0.7282,0.7074,0.7088,0.7088,0.7108,0.7045,0.677,0.3866,0.0,0.0,0.0,0.0,0.0,0.0,0.0719,0.515,0.6616,0.579,0.1349,0.0,0.0,0.0,0.0,0.0,0.0,0.0,0.0,0.0,0.0,0.0,0.0,0.0,0.0,0.0,0.0,0.0,0.0,0.0,0.0,0.0,0.0,0.0,0.0,0.0,0.0,0.0,0.0,0.0,0.0,0.0,0.0,0.0,0.0,0.0,0.0,0.0,0.0,0.0,0.0,0.0,0.0,0.0,0.0,0.0,0.0,0.0,0.4602,0.0,0.5047,0.4931,0.507,0.5237,0.0,0.5301,0.5428,0.0,0.0,0.5695,0.6831,0.7108,0.8022,1.0638,1.1456,0.0,0.0,0.0,0.0,0.0,0.0,0.0,0.0,0.7938,0.7821,0.7709,0.7702,0.775,0.7858,0.7865,0.7919,0.8035,0.8038,0.8038,0.8038,0.8038,0.798,0.7865,0.7984,0.7923,0.7706,0.7743,0.7648,0.7448,0.7377,0.7285,0.7098,0.7118,0.7128,0.677,0.3056,0.0988,0.0,0.0,0.0,0.0,0.0,0.0,0.018,0.1348,0.1709,0.1439,0.036,0.0,0.0,0.0,0.0,0.0,0.0,0.0,0.0,0.0,0.0,0.0,0.0,0.0,0.0,0.0,0.0,0.0,0.0,0.0,0.0,0.0,0.0,0.0,0.0,0.0,0.0,0.0,0.0,0.0,0.0,0.0,0.0,0.0,0.0,0.0,0.0,0.0,0.0,0.0,0.0,0.0,0.0,0.0,0.0,0.0,0.0,0.0,0.4519,0.4684,0.4901,0.4816,0.4965,0.5148,0.522,0.0,0.0,0.0,0.0,0.0,0.6286,0.0,0.0,0.9514,1.0381,0.0,0.0,0.0,0.0,0.0,0.0,0.0,0.0,0.7712,0.7682,0.7604,0.76,0.7634,0.7709,0.7712,0.7753,0.7834,0.7899,0.797,0.8038,0.8038,0.7963,0.7814,0.7896,0.7818,0.76,0.7617,0.7546,0.7309,0.6128,0.6164,0.7118,0.7131,0.5768,0.3595,0.0988,0.0,0.0,0.0,0.0,0.0,0.0,0.0,0.0,0.0,0.0,0.0,0.0,0.0,0.0,0.0,0.0,0.0,0.0,0.0,0.0,0.0,0.0,0.0,0.0,0.0,0.0,0.0,0.0,0.0,0.0,0.0,-0.0719,-0.2966,-0.3235,-0.2873,-0.1791,-0.1612,-0.1612,-0.1612,-0.1612,-0.1612,-0.1612,-0.1612,-0.2151,-0.3235,-0.1166,0.0,0.0,0.0,0.0,0.0,0.0,0.0,0.0,0.0,0.0,0.0,0.0,0.0,0.4546,0.4704,0.4908,0.486,0.4975,0.5131,0.5264,0.0,0.0,0.0,0.0,0.0,0.0,0.0,0.0,0.0,0.0,0.0,0.0,0.0,0.0,0.0,0.0,0.0,0.758,0.7563,0.7556,0.7529,0.7529,0.7539,0.7563,0.7563,0.7577,0.76,0.7716,0.7841,0.797,0.8018,0.7963,0.7818,0.7818,0.7729,0.757,0.7458,0.7397,0.7275,0.5051,0.4842,0.6039,0.6039,0.3597,0.0,0.0,0.0,0.0,0.0,0.0,0.0,0.0,0.0,0.0,0.0,0.0,0.0,0.0,0.0,0.0,0.0,0.0,0.0,0.0,0.0,0.0,0.0,-0.0539,-0.1078,-0.1078,-0.0808,-0.0539,-0.0539,-0.0539,-0.0539,-0.0539,-0.0539,-0.1885,-0.5944,-0.6857,-0.6391,-0.438,-0.4109,-0.4109,-0.4109,-0.4109,-0.4109,-0.4109,-0.4107,-0.5013,-0.6946,-0.3314,-0.0894,-0.0536,-0.0538,-0.0539,-0.0539,-0.0539,-0.0359,0.0,0.0,0.0,0.0,0.0,0.0,0.4619,0.4782,0.4857,0.4599,0.4745,0.4958,0.4982,0.0,0.0,0.0,0.0,0.0,0.0,0.0,0.0,0.0,0.0,0.0,0.0,0.0,0.0,0.0,0.0,0.7573,0.7421,0.7407,0.7353,0.7221,0.721,0.7268,0.74,0.7407,0.7465,0.7597,0.7621,0.7645,0.7665,0.7916,0.7974,0.7942,0.7942,0.7804,0.7639,0.7618,0.7454,0.7161,0.677,0.4495,0.1078,0.1078,0.0629,0.0,0.0,0.0,0.0,0.0,0.0,0.0,0.0,0.0,0.0,0.0,0.0,0.0,0.0,0.0,0.0,0.0,0.0,0.0,0.0,0.0,0.0,0.0,-0.3056,-0.6039,-0.6039,-0.4482,-0.3037,-0.3037,-0.3037,-0.3037,-0.3037,-0.3037,-0.3304,-0.4022,-0.583,-0.7012,-0.6643,-0.6554,-0.6554,-0.6554,-0.6554,-0.6554,-0.6554,-0.6545,-0.6723,-0.7091,-0.6373,-0.5104,-0.3124,-0.3035,-0.3037,-0.3037,-0.3037,-0.2055,0.0,0.0,0.0,0.0,0.0,0.0,0.4548,0.4677,0.4762,0.4619,0.4813,0.5077,0.0,0.0,0.0,0.0,0.0,0.0,0.0,0.0,0.0,0.0,0.0,0.0,0.0,0.0,0.0,0.0,0.0,0.7417,0.7261,0.7248,0.7217,0.7146,0.7139,0.717,0.7244,0.7248,0.7278,0.735,0.7431,0.7478,0.7478,0.7699,0.7743,0.7705,0.7705,0.6926,0.545,0.6753,0.7285,0.6952,0.4408,0.2066,0.0,0.0,0.0,0.0,0.0,0.0,0.0,0.0,0.0,0.0,0.0,0.0,0.0,0.0,-0.1707,-0.3326,-0.0809,-0.0897,-0.2238,-0.3502,-0.3866,-0.3866,-0.3866,-0.2869,-0.1969,-0.1969,-0.3582,-0.5565,-0.6844,-0.6284,-0.5463,-0.5463,-0.5463,-0.5463,-0.5463,-0.5463,-0.546,-0.5455,-0.6453,-0.7088,-0.7078,-0.7074,-0.7074,-0.7074,-0.7074,-0.7074,-0.7074,-0.7071,-0.7071,-0.7084,-0.7091,-0.6637,-0.5552,-0.5463,-0.5463,-0.5463,-0.5463,-0.4924,-0.3848,-0.2591,-0.1965,-0.1879,-0.0627,0.0,0.4563,0.4602,0.4701,0.4735,0.0,0.5118,0.0,0.0,0.0,0.0,0.0,0.0,0.0,0.0,0.0,0.0,0.0,0.0,0.0,0.0,0.0,0.8824,0.7963,0.7272,0.7149,0.7139,0.7139,0.7139,0.7139,0.7139,0.7139,0.7139,0.7139,0.7139,0.7261,0.7326,0.7326,0.7455,0.7482,0.7411,0.7513,0.5855,0.286,0.458,0.5405,0.5223,0.1617,0.0,0.0,0.0,0.0,0.0,0.0,0.0,0.0,0.0,0.0,0.0,0.0,0.0,0.0,0.0,-0.3235,-0.6406,-0.2785,-0.2597,-0.4109,-0.648,-0.7125,-0.7125,-0.7128,-0.5746,-0.4378,-0.4378,-0.4378,-0.4917,-0.6732,-0.7094,-0.7091,-0.7091,-0.7091,-0.7091,-0.7091,-0.7091,-0.7088,-0.7078,-0.7078,-0.7071,-0.7143,-0.7139,-0.7139,-0.7139,-0.7139,-0.7139,-0.7139,-0.7139,-0.7058,-0.7078,-0.7078,-0.7081,-0.7091,-0.7091,-0.7091,-0.7091,-0.7091,-0.7094,-0.7098,-0.5277,-0.4376,-0.4378,-0.2503,-0.1073,0.4636,0.468,0.4724,0.4867,0.0,0.0,0.0,0.0,0.0,0.0,0.0,0.0,0.0,0.0,0.0,0.0,0.0,0.0,0.0,0.0,0.7563,0.7552,0.7334,0.7153,0.7143,0.7139,0.7139,0.7139,0.7139,0.7139,0.7139,0.7139,0.7139,0.7139,0.7081,0.7101,0.7101,0.7121,0.7292,0.7611,0.7827,0.5238,0.0269,0.0449,0.0539,0.0449,0.018,0.0,0.0,0.0,0.0,0.0,0.0,0.0,0.0,0.0,0.0,0.0,0.0,0.0,0.0,0.0,-0.3235,-0.7045,-0.6678,-0.5203,-0.4107,-0.6462,-0.7098,-0.7091,-0.7101,-0.7012,-0.6828,-0.6828,-0.6821,-0.6903,-0.7084,-0.7071,-0.7143,-0.7143,-0.7143,-0.7143,-0.7143,-0.7143,-0.7143,-0.7143,-0.7143,-0.7143,-0.7139,-0.7139,-0.7139,-0.7139,-0.7139,-0.7139,-0.7139,-0.7139,-0.7139,-0.7143,-0.7143,-0.7143,-0.7143,-0.7143,-0.7143,-0.7143,-0.7143,-0.7064,-0.7088,-0.6903,-0.6818,-0.6828,-0.6646,-0.4206,0.4587,0.4565,0.0,0.0,0.0,0.0,0.0,0.0,0.0,0.0,0.0,0.0,0.0,0.0,0.0,0.0,0.0,0.0,0.0,0.7407,0.7336,0.7241,0.7177,0.7139,0.7139,0.7139,0.7139,0.7139,0.7139,0.7139,0.7139,0.7139,0.7058,0.7071,0.7081,0.6358,0.4914,0.6382,0.7155,0.7302,0.7406,0.4809,0.0,0.0,0.0,0.0,0.0,0.0,0.0,0.0,0.0,0.0,0.0,0.0,0.0,0.0,0.0,-0.0449,-0.3414,-0.4408,-0.4135,-0.2686,-0.4478,-0.7104,-0.7111,-0.6456,-0.5983,-0.6815,-0.7078,-0.7068,-0.7088,-0.7081,-0.7071,-0.7071,-0.7068,-0.7064,-0.7064,-0.7058,-0.7139,-0.7139,-0.7139,-0.7139,-0.7139,-0.7139,-0.7139,-0.7139,-0.7139,-0.7139,-0.7139,-0.7139,-0.7139,-0.7139,-0.7139,-0.7139,-0.7139,-0.7753,-0.8189,-0.8189,-0.7489,-0.7139,-0.7139,-0.7139,-0.7139,-0.7139,-0.7139,-0.7143,-0.7064,-0.7064,-0.7068,-0.7071,-0.7084,-0.6091,0.4512,0.4488,0.4487,0.0,0.0,0.0,0.0,0.0,0.0,0.0,0.0,0.0,0.0,0.0,0.0,0.0,0.0,0.0,0.7312,0.7299,0.7258,0.7153,0.7139,0.7139,0.7139,0.7139,0.7139,0.7139,0.7139,0.7143,0.7061,0.7061,0.7071,0.7091,0.7098,0.6373,0.4746,0.6311,0.7055,0.7055,0.5589,0.3145,0.0,0.0,0.0,0.0,0.0,0.0,0.0,0.0,0.0,0.0,0.0,-0.0898,-0.2246,-0.2246,-0.1795,-0.1613,-0.4848,-0.6483,-0.6847,-0.5196,-0.5816,-0.7088,-0.7094,-0.7074,-0.7143,-0.7071,-0.7064,-0.7143,-0.7071,-0.7064,-0.7139,-0.7139,-0.7139,-0.7139,-0.7139,-0.7139,-0.7139,-0.7139,-0.7139,-0.7139,-0.7139,-0.7139,-0.7139,-0.7139,-0.7139,-0.7139,-0.7139,-0.7139,-0.7139,-0.7139,-0.7139,-0.7139,-0.7139,-0.7841,-0.8452,-0.889,-0.8101,-0.7665,-0.7665,-0.7665,-0.7665,-0.7665,-0.7316,-0.7316,-0.7665,-0.7316,-0.7139,-0.7139,-0.7068,-0.7078,0.4436,0.4473,0.0,0.0,0.0,0.0,0.0,0.0,0.0,0.0,0.0,0.0,0.0,0.0,0.0,0.0,0.0,0.7139,0.7139,0.7139,0.7139,0.7139,0.7139,0.7139,0.7139,0.7139,0.7139,0.7139,0.7139,0.7061,0.7084,0.7084,0.7091,0.7101,0.7125,0.7045,0.7045,0.7065,0.6988,0.6985,0.225,0.0,0.0,0.0,0.0,0.0,0.0,0.0,0.0,0.0,0.0,0.0,0.0,-0.2875,-0.7135,-0.7135,-0.566,-0.3659,-0.3659,-0.5188,-0.7101,-0.7098,-0.7091,-0.7084,-0.7084,-0.7068,-0.7139,-0.7139,-0.7139,-0.7139,-0.7136,-0.7136,-0.7136,-0.7139,-0.7139,-0.7139,-0.7139,-0.7139,-0.7139,-0.7139,-0.7139,-0.7139,-0.7139,-0.7139,-0.7139,-0.7139,-0.7139,-0.7139,-0.7139,-0.7139,-0.7139,-0.7139,-0.7139,-0.7139,-0.7139,-0.7139,-0.7665,-0.889,-0.8978,-0.8978,-0.889,-0.889,-0.889,-0.889,-0.7753,-0.7753,-0.889,-0.7665,-0.7139,-0.7139,-0.7139,-0.7153,0.4512,0.3688,0.0,0.0,0.0,0.0,0.0,0.0,0.0,0.0,0.0,0.0,0.0,0.0,0.0,0.7139,0.7139,0.7139,0.7139,0.7139,0.7139,0.7139,0.7139,0.7139,0.7139,0.7068,0.7074,0.7074,0.7081,0.7091,0.7098,0.5549,0.5374,0.7035,0.7131,0.5494,0.2156,0.2068,0.2069,0.2069,0.0719,0.0,0.0,0.0,0.0,0.0,0.0,0.0,0.0,0.0,0.0,0.0,0.0,-0.2938,-0.7082,-0.7098,-0.6665,-0.6083,-0.5894,-0.6306,-0.691,-0.68,-0.6915,-0.6917,-0.6917,-0.7065,-0.7119,-0.7021,-0.6993,-0.6966,-0.6858,-0.6831,-0.6885,-0.7092,-0.7139,-0.7139,-0.7139,-0.7139,-0.7139,-0.7139,-0.7139,-0.7404,-0.8189,-0.7665,-0.7661,-0.9309,-0.8882,-0.8623,-0.9488,-0.957,-0.957,-0.957,-0.957,-0.957,-0.957,-1.0255,-1.0945,-1.1295,-1.2083,-1.1832,-1.0183,-1.0096,-1.0096,-1.0096,-0.9744,-0.9744,-1.0096,-0.8969,-0.8364,-0.8364,-0.8364,-0.7933,0.4478,0.0,0.0,0.0,0.0,0.0,0.0,0.0,0.0,0.0,0.0,0.0,0.0,0.0,0.0,0.7132,0.7139,0.7139,0.7139,0.7139,0.7143,0.7064,0.7102,0.7068,0.7078,0.7125,0.674,0.5765,0.5681,0.6129,0.7027,0.5736,0.4784,0.4263,0.43,0.2876,0.0,0.0,0.0,0.0,0.0,0.0,0.0,0.0,0.0,0.0,0.0,0.0,-0.018,-0.2066,-0.2662,-0.2438,-0.1586,-0.3585,-0.6905,-0.691,-0.6927,-0.6897,-0.6796,-0.6763,-0.6746,-0.6732,-0.6763,-0.6837,-0.6837,-0.6898,-0.6949,-0.6861,-0.6837,-0.6817,-0.6725,-0.6702,-0.6759,-0.7,-0.7054,-0.7071,-0.7129,-0.7492,-0.7841,-0.7841,-0.8185,-0.8707,-0.9492,-0.8969,-0.8965,-1.0351,-1.0009,-0.9836,-1.0524,-1.0611,-1.0611,-1.0611,-1.0611,-1.0611,-1.0611,-1.1209,-1.1809,-1.2242,-1.2942,-1.2948,-1.1997,-1.1558,-1.1295,-1.1295,-1.0869,-1.0778,-1.1295,-1.0096,-0.9579,-0.9579,-0.9579,-0.9144,0.0,0.0,0.0,0.0,0.0,0.0,0.0,0.0,0.0,0.0,0.0,0.0,0.0,0.0,0.0,0.7078,0.7099,0.7099,0.7102,0.7102,0.7109,0.7136,0.6924,0.6761,0.6781,0.701,0.6238,0.4112,0.3521,0.4199,0.6341,0.6468,0.4435,0.0174,0.0,0.0,0.0,0.0,0.0,0.0,0.0,0.0,0.0,0.0,-0.027,-0.0629,-0.0629,-0.0538,-0.0627,-0.4933,-0.6565,-0.6162,-0.4148,-0.4692,-0.6629,-0.6559,-0.6636,-0.6698,-0.6685,-0.6678,-0.6678,-0.6664,-0.6668,-0.6678,-0.6678,-0.6688,-0.6698,-0.6681,-0.6678,-0.6678,-0.6743,-0.6822,-0.6864,-0.7102,-0.698,-0.6946,-0.7176,-0.8078,-0.8956,-0.9061,-0.9923,-1.0611,-1.0783,-1.0697,-1.0611,-1.0783,-1.0869,-1.0956,-1.0956,-1.0956,-1.0956,-1.0956,-1.0956,-1.0956,-1.0956,-1.0956,-1.1386,-1.2413,-1.2498,-1.2942,-1.4082,-1.3027,-1.2498,-1.2498,-1.1472,-1.1472,-1.2498,-1.1295,-1.0778,-1.0778,-1.0778,-1.0697,0.0,0.0,0.0,0.0,0.0,0.0,0.0,0.0,0.0,0.0,0.0,0.0,0.0,0.0,0.6759,0.679,0.6797,0.68,0.6894,0.6894,0.6905,0.7102,0.5434,0.4391,0.4311,0.6005,0.6853,0.6421,0.286,0.1009,0.1515,0.1522,0.1026,0.0,0.0,0.0,0.0,0.0,0.0,0.0,0.0,0.0,0.0,0.0,-0.2066,-0.5586,-0.5586,-0.436,-0.253,-0.3578,-0.5044,-0.6555,-0.5898,-0.6019,-0.6569,-0.6605,-0.6636,-0.6681,-0.6563,-0.6522,-0.6505,-0.639,-0.643,-0.6522,-0.6522,-0.6607,-0.6675,-0.6556,-0.6522,-0.6736,-0.7395,-0.759,-0.7791,-0.8759,-0.7796,-0.7038,-0.8122,-0.8581,-0.9051,-1.0062,-1.0438,-1.0869,-1.1809,-1.1214,-1.0864,-1.1809,-1.2772,-1.3385,-1.3385,-1.3385,-1.3385,-1.3385,-1.3385,-1.3385,-1.3385,-1.3385,-1.347,-1.373,-1.373,-1.3822,-1.4088,-1.3822,-1.373,-1.373,-1.3476,-1.3476,-1.373,-1.251,-1.1895,-1.1895,-1.1895,-1.1466,0.0,0.0,0.0,0.0,0.0,0.0,0.0,0.0,0.0,0.0,0.0,0.0,0.0,0.0,0.6617,0.6695,0.6712,0.6715,0.6732,0.588,0.5713,0.6934,0.6016,0.4385,0.2065,0.295,0.367,0.367,0.1385,0.0,0.0,0.0,0.0,0.0,0.0,0.0,0.0,0.0,-0.1047,-0.3056,-0.3051,-0.2437,-0.1565,-0.2846,-0.402,-0.522,-0.6389,-0.6129,-0.4787,-0.4782,-0.5446,-0.6522,-0.6423,-0.6441,-0.6479,-0.6478,-0.6498,-0.6478,-0.6396,-0.6373,-0.6359,-0.6285,-0.6312,-0.6373,-0.6373,-0.6427,-0.6474,-0.6393,-0.6759,-0.7203,-0.7654,-0.8161,-0.8641,-0.9284,-0.8686,-0.8243,-0.9009,-0.9707,-1.0396,-1.1106,-1.1827,-1.2431,-1.3033,-1.2687,-1.2516,-1.3033,-1.373,-1.4088,-1.4088,-1.4088,-1.4088,-1.4088,-1.4088,-1.4088,-1.4088,-1.4088,-1.4088,-1.4088,-1.4088,-1.4088,-1.4088,-1.4088,-1.4088,-1.4088,-1.4088,-1.4088,-1.4088,-1.347,-1.3118,-1.3118,-1.3118,-1.2857,0.0,0.0,0.0,0.0,0.0,0.0,0.0,0.0,0.0,0.0,0.0,0.0,0.0,0.6441,0.6485,0.6706,0.6391,0.6229,0.6592,0.5157,0.4488,0.5761,0.5915,0.4293,0.0404,0.0,0.0,0.0,0.0,0.0,0.0,0.0,0.0,0.0,0.0,0.0,0.0,-0.0758,-0.2867,-0.6279,-0.626,-0.539,-0.3775,-0.604,-0.5813,-0.3791,-0.5795,-0.6675,-0.6619,-0.6609,-0.6433,-0.6298,-0.6444,-0.6366,-0.6338,-0.6338,-0.6338,-0.6338,-0.6338,-0.6338,-0.6338,-0.6338,-0.6338,-0.6338,-0.6338,-0.6416,-0.6567,-0.6567,-0.7249,-0.8084,-0.8309,-0.8917,-0.9593,-0.975,-0.9887,-1.0006,-0.9927,-1.0963,-1.1899,-1.2188,-1.3194,-1.4088,-1.4088,-1.4088,-1.4088,-1.4088,-1.4088,-1.4173,-1.4328,-1.4412,-1.4412,-1.4657,-1.4657,-1.4657,-1.4657,-1.4657,-1.458,-1.4412,-1.4412,-1.4328,-1.4088,-1.4088,-1.4088,-1.4088,-1.4088,-1.4062,-1.4008,-1.4008,-1.3981,-1.3935,-1.3935,-1.3961,0.0,0.0,0.0,0.0,0.0,0.0,0.0,0.0,0.0,0.0,0.0,0.0,0.6315,0.6318,0.6325,0.6349,0.4823,0.4268,0.606,0.6143,0.4693,0.1347,0.0948,0.071,0.0079,0.0,0.0,0.0,0.0,0.0,0.0,0.0,0.0,0.0,0.0,0.0,0.0,-0.3632,-0.5759,-0.626,-0.6331,-0.6235,-0.6139,-0.6521,-0.6444,-0.6167,-0.6508,-0.6585,-0.6508,-0.6508,-0.6424,-0.6295,-0.6291,-0.6355,-0.6338,-0.6338,-0.6338,-0.6338,-0.6338,-0.6338,-0.6338,-0.6338,-0.6338,-0.6338,-0.6338,-0.6872,-0.7629,-0.7629,-0.8313,-0.9296,-1.019,-1.0484,-1.0789,-1.17,-1.188,-1.1752,-1.1105,-1.1368,-1.2023,-1.3173,-1.3798,-1.4088,-1.4088,-1.4088,-1.4088,-1.4088,-1.4088,-1.4412,-1.5379,-1.5462,-1.5869,-1.6764,-1.6854,-1.6854,-1.6854,-1.6854,-1.6445,-1.5538,-1.5462,-1.5054,-1.4173,-1.4088,-1.4088,-1.4088,-1.4088,-1.3961,-1.3701,-1.3701,-1.3574,-1.3327,-1.3327,-1.346,0.0,0.0,0.0,0.0,0.0,0.0,0.0,0.0,0.0,0.0,0.0,0.0,0.4307,0.454,0.494,0.6071,0.5511,0.4401,0.2986,0.2752,0.2043,0.0236,0.0,0.0,0.0,0.0,0.0,0.0,0.0,0.0,0.0,0.0,0.0,0.0,0.0,-0.1123,-0.3494,-0.5381,-0.6276,-0.6327,-0.6324,-0.6314,-0.6468,-0.6468,-0.6512,-0.6505,-0.6505,-0.6498,-0.6356,-0.6356,-0.6318,-0.6338,-0.6338,-0.6338,-0.6338,-0.6338,-0.6338,-0.6338,-0.6338,-0.6338,-0.6338,-0.6338,-0.6338,-0.6412,-0.6945,-0.748,-0.7936,-0.8466,-0.9367,-1.0265,-1.0714,-1.1242,-1.1768,-1.2224,-1.2305,-1.219,-1.1859,-1.2107,-1.2557,-1.326,-1.3641,-1.3841,-1.3841,-1.4455,-1.4977,-1.4977,-1.5308,-1.5812,-1.6495,-1.6419,-1.6541,-1.7236,-1.7342,-1.7342,-1.7342,-1.7342,-1.709,-1.6601,-1.6601,-1.6355,-1.5876,-1.5304,-1.4892,-1.4803,-1.433,-1.3941,-1.3559,-1.3559,-1.3494,-1.3213,-1.3213,-1.328,0.0,0.0,0.0,0.0,0.0,0.0,0.0,0.0,0.0,0.0,0.0,0.0,0.2031,0.2345,0.2818,0.4411,0.4729,0.3618,0.0471,0.0,0.0,0.0,0.0,0.0,0.0,0.0,0.0,0.0,0.0,0.0,0.0,0.0,0.0,0.0,0.0,-0.1493,-0.4661,-0.5767,-0.6308,-0.6285,-0.6278,-0.6271,-0.6338,-0.6338,-0.6318,-0.642,-0.642,-0.6359,-0.6338,-0.6338,-0.6338,-0.6338,-0.6338,-0.6338,-0.6338,-0.6338,-0.6338,-0.6338,-0.6338,-0.6338,-0.6338,-0.6338,-0.649,-0.6795,-0.7553,-0.8161,-0.8685,-0.9442,-1.0415,-1.1162,-1.1162,-1.1768,-1.2305,-1.2305,-1.2305,-1.2325,-1.2398,-1.2592,-1.2916,-1.3153,-1.3447,-1.3539,-1.3547,-1.465,-1.5576,-1.5576,-1.6166,-1.6806,-1.7599,-1.7409,-1.7395,-1.8098,-1.8141,-1.8141,-1.8141,-1.8141,-1.798,-1.7747,-1.7654,-1.7435,-1.7194,-1.6299,-1.5652,-1.5479,-1.4621,-1.3954,-1.3414,-1.3654,-1.3498,-1.2979,-1.3509,-1.3473,0.0,0.0,0.0,0.0,0.0,0.0,0.0,0.0,0.0,0.0,0.0,0.0,0.0156,0.0157,0.0236,0.0314,0.0314,0.0236,0.0,0.0,0.0,0.0,0.0,0.0,0.0,0.0,0.0,0.0,0.0,0.0,0.0,0.0,0.0,0.0,0.0,-0.0079,-0.0314,-0.4318,-0.6298,-0.6295,-0.6274,-0.6338,-0.6338,-0.6338,-0.6342,-0.6271,-0.6271,-0.6268,-0.6338,-0.6338,-0.6338,-0.6338,-0.6338,-0.6338,-0.6338,-0.6338,-0.6338,-0.6338,-0.6338,-0.6338,-0.6338,-0.6338,-0.6949,-0.7706,-0.7783,-0.9135,-1.0634,-1.0708,-1.1465,-1.2224,-1.2224,-1.2224,-1.2305,-1.2305,-1.2305,-1.2378,-1.2735,-1.2808,-1.2916,-1.3153,-1.3447,-1.3554,-1.328,-1.425,-1.5167,-1.532,-1.5724,-1.6748,-1.8691,-1.8527,-1.8747,-2.0275,-2.0401,-2.0401,-2.0401,-2.0401,-2.0001,-1.8957,-1.8527,-1.7761,-1.6797,-1.6236,-1.5972,-1.5948,-1.5064,-1.4001,-1.2869,-1.3694,-1.3529,-1.2419,-1.4217,-1.4248,0.0,0.0,0.0,0.0,0.0,0.0,0.0,0.0,0.0,0.0,0.0,0.0,0.0,0.0,0.0,0.0,0.0,0.0,0.0,0.0,0.0,0.0,0.0,0.0,0.0,0.0,0.0,0.0,0.0,0.0,0.0,0.0,0.0,0.0,0.0,-0.0627,-0.1955,-0.3521,-0.4932,-0.6274,-0.6264,-0.6338,-0.6338,-0.6338,-0.6338,-0.6338,-0.6338,-0.6338,-0.6338,-0.6338,-0.6338,-0.6338,-0.6338,-0.6338,-0.6338,-0.6338,-0.6338,-0.6338,-0.6338,-0.6338,-0.6338,-0.6338,-0.6567,-0.7099,-0.8389,-0.9291,-1.0121,-1.1391,-1.1996,-1.2305,-1.2305,-1.2305,-1.2305,-1.2305,-1.2305,-1.2331,-1.2438,-1.2458,-1.2492,-1.2605,-1.3397,-1.3951,-1.3844,-1.5449,-1.6758,-1.6835,-1.7548,-1.8397,-1.9089,-1.9298,-1.9507,-2.0051,-2.04,-2.0566,-2.0566,-2.0566,-2.0285,-1.9611,-1.945,-1.9014,-1.8368,-1.7539,-1.6971,-1.6793,-1.5741,-1.5012,-1.4597,-1.4306,-1.4215,-1.4163,-1.4879,-1.4872,0.2433,0.0,0.0,0.0,0.0,0.0,0.0,0.0,0.0,0.0,0.0,0.0,0.0,0.0,0.0,0.0,0.0,0.0,0.0,0.0,0.0,0.0,0.0,0.0,0.0,0.0,0.0,0.0,0.0,0.0,0.0,0.0,0.0,0.0,0.0,-0.1322,-0.4155,-0.4148,-0.4851,-0.6268,-0.6264,-0.6338,-0.6338,-0.6338,-0.6338,-0.6338,-0.6338,-0.6338,-0.6338,-0.6338,-0.6338,-0.6338,-0.6338,-0.6338,-0.6338,-0.6338,-0.6338,-0.6338,-0.6338,-0.649,-0.6795,-0.6795,-0.7249,-0.808,-0.9367,-1.0045,-1.0571,-1.1922,-1.2305,-1.2305,-1.2305,-1.2305,-1.2305,-1.2305,-1.2305,-1.2305,-1.2305,-1.2519,-1.2732,-1.2732,-1.3785,-1.4641,-1.4533,-1.6127,-1.7503,-1.7503,-1.8278,-1.8965,-1.9248,-1.9404,-1.9541,-1.9687,-2.0088,-2.0352,-2.0352,-2.0352,-2.0225,-1.9932,-1.9648,-1.9355,-1.9082,-1.8269,-1.7703,-1.7497,-1.6455,-1.6096,-1.6384,-1.5445,-1.5033,-1.5234,-1.5877,-1.6158,0.0,0.0,0.0,0.0,0.0,0.0,0.0,0.0,0.0,0.0,0.0,0.0,0.0,0.0,0.0,0.0,0.0,0.0,0.0,0.0,0.0,0.0,0.0,0.0,0.0,0.0,0.0,0.0,0.0,0.0,0.0,0.0,0.0,0.0,-0.0076,-0.2066,-0.6152,-0.6295,-0.6281,-0.6271,-0.6264,-0.6338,-0.6338,-0.6338,-0.6338,-0.6338,-0.6254,-0.6257,-0.6338,-0.6338,-0.6338,-0.6338,-0.6338,-0.6338,-0.6338,-0.6338,-0.6338,-0.6338,-0.6338,-0.7022,-0.7859,-0.7859,-0.9135,-1.0783,-1.0783,-1.1465,-1.2224,-1.2298,-1.2305,-1.2305,-1.2305,-1.2305,-1.2305,-1.2305,-1.2372,-1.2378,-1.2372,-1.3091,-1.3745,-1.3745,-1.4718,-1.5568,-1.5292,-1.6251,-1.709,-1.7171,-1.7707,-1.832,-1.9141,-1.8906,-1.8818,-1.9219,-1.9658,-1.9912,-1.9893,-1.9902,-1.9902,-1.9883,-1.9092,-1.8562,-1.8553,-1.8223,-1.8008,-1.8008,-1.7139,-1.707,-1.8008,-1.707,-1.6149,-1.5305,-1.7148,-1.8008,0.0,0.0,0.0,0.0,0.0,0.0,0.0,0.0,0.0,0.0,0.0,0.0,0.0,0.0,0.0,0.0,0.0,0.0,0.0,0.0,0.0,0.0,0.0,0.0,0.0,0.0,0.0,0.0,0.0,0.0,0.0,0.0,0.0,0.0,-0.2505,-0.3847,-0.3719,-0.5301,-0.6108,-0.6098,-0.621,-0.6338,-0.6338,-0.6338,-0.6338,-0.6254,-0.6142,-0.6159,-0.6338,-0.6338,-0.6338,-0.6338,-0.6338,-0.6338,-0.6338,-0.6338,-0.6795,-0.7403,-0.7403,-0.8012,-0.8917,-0.8917,-0.9296,-0.982,-1.0559,-1.1013,-1.1391,-1.2077,-1.2305,-1.2305,-1.2305,-1.2305,-1.2445,-1.3171,-1.331,-1.3528,-1.4235,-1.5155,-1.5367,-1.3954,-1.5095,-1.6334,-1.6228,-1.7024,-1.776,-1.776,-1.8132,-1.8437,-1.8369,-1.8799,-1.9033,-1.8838,-1.9473,-1.9785,-1.9482,-1.9736,-1.9648,-1.9033,-1.8699,-1.8496,-1.8193,-1.8076,-1.8008,-1.8008,-1.7725,-1.7725,-1.8008,-1.707,-1.6784,-1.7226,-1.7794,-1.8337,0.0,0.0,0.0,0.0,0.0,0.0,0.0,0.0,0.0,0.0,0.0,0.0,0.0,0.0,0.0,0.0,0.0,0.0,0.0,0.0,0.0,0.0,0.0,0.0,0.0,0.0,0.0,0.0,0.0,0.0,0.0,0.0,-0.0717,-0.2223,-0.4316,-0.4916,-0.3926,-0.5243,-0.5875,-0.5935,-0.6027,-0.6071,-0.6071,-0.6071,-0.6071,-0.6064,-0.5973,-0.6205,-0.6663,-0.6663,-0.6522,-0.6338,-0.6338,-0.6338,-0.6338,-0.6795,-0.7326,-0.7859,-0.8313,-0.9064,-0.9895,-0.9895,-1.0196,-1.0651,-1.1242,-1.1465,-1.1545,-1.215,-1.2305,-1.2372,-1.2806,-1.2879,-1.3025,-1.36,-1.4027,-1.4522,-1.5092,-1.593,-1.628,-1.5155,-1.6149,-1.7207,-1.7207,-1.7647,-1.8008,-1.8008,-1.8223,-1.8291,-1.8047,-1.8447,-1.8662,-1.8408,-1.8975,-1.9277,-1.9043,-1.9238,-1.917,-1.8592,-1.8805,-1.8791,-1.8539,-1.8911,-1.8911,-1.8529,-1.8519,-1.8519,-1.8529,-1.7628,-1.7628,-1.8529,-1.8921,-1.9365,0.0,0.0,0.0,0.0,0.0,0.0,0.0,0.0,0.0,0.0,0.0,0.0,0.0,0.0,0.0,0.0,0.0,0.0,0.0,0.0,0.0,0.0,0.0,0.0,0.0,0.0,0.0,0.0,0.0,0.0,0.0,-0.035,-0.2096,-0.5332,-0.5398,-0.5454,-0.5636,-0.5653,-0.5724,-0.5779,-0.5793,-0.58,-0.58,-0.58,-0.58,-0.58,-0.5786,-0.6283,-0.7078,-0.7057,-0.6907,-0.6615,-0.6615,-0.6615,-0.6689,-0.76,-0.7964,-0.8174,-0.91,-1.0077,-1.0896,-1.0926,-1.1539,-1.2305,-1.2305,-1.2372,-1.2445,-1.2586,-1.2592,-1.2806,-1.3673,-1.3882,-1.3882,-1.4034,-1.4665,-1.5376,-1.5517,-1.6149,-1.6775,-1.6775,-1.7432,-1.8008,-1.8008,-1.8008,-1.8008,-1.8008,-1.8008,-1.8008,-1.8008,-1.8008,-1.8008,-1.8008,-1.8389,-1.8553,-1.8574,-1.8533,-1.8613,-1.8705,-1.9069,-1.9365,-1.9431,-2.0204,-2.0268,-1.9431,-1.9431,-1.9431,-1.9431,-1.8596,-1.8596,-1.9431,-2.0268,-2.0655,0.0,0.0,0.0,0.0,0.0,0.0,0.0,0.0,0.0,0.0,0.0,0.0,0.0,0.0,0.0,0.0,0.0,0.0,0.0,0.0,0.0,0.0,0.0,0.0,0.0,0.0,0.0,0.0,0.0,0.0,0.0,-0.2785,-0.4698,-0.5386,-0.5373,-0.544,-0.5467,-0.5579,-0.5637,-0.5633,-0.5745,-0.58,-0.58,-0.58,-0.58,-0.5793,-0.5681,-0.6183,-0.707,-0.6986,-0.7491,-0.8277,-0.8277,-0.8277,-0.8346,-0.8567,-0.8969,-0.9559,-1.0047,-1.0852,-1.1696,-1.1924,-1.215,-1.2305,-1.2305,-1.2806,-1.36,-1.4378,-1.4665,-1.4665,-1.4879,-1.4879,-1.5092,-1.5816,-1.6158,-1.6498,-1.7295,-1.7579,-1.7725,-1.7725,-1.7862,-1.8008,-1.8008,-1.8008,-1.8008,-1.8008,-1.8008,-1.8008,-1.8008,-1.8008,-1.8008,-1.8008,-1.8389,-1.8496,-1.8164,-1.8437,-1.8755,-1.9132,-1.9218,-1.9617,-2.0333,-2.0526,-2.0526,-2.0333,-2.0333,-2.0333,-2.0333,-1.9497,-1.9497,-2.0333,-2.0526,-2.0974,0.0,0.0,0.0,-0.0164,0.0,0.0,0.0,0.0,0.0,0.0,0.0,0.0,0.0,0.0,0.0,0.0,0.0,0.0,0.0,0.0,0.0,0.0,0.0,0.0,0.0,0.0,0.0,0.0,-0.1683,-0.2695,-0.2695,-0.3565,-0.4442,-0.5396,-0.5386,-0.5376,-0.5369,-0.544,-0.5477,-0.5477,-0.5549,-0.5583,-0.5583,-0.5583,-0.5583,-0.5645,-0.5973,-0.6654,-0.7609,-0.7974,-0.8799,-0.9817,-0.8948,-0.8633,-0.8633,-0.9132,-0.9558,-0.9968,-1.0664,-1.1217,-1.167,-1.1817,-1.1964,-1.2084,-1.2084,-1.2832,-1.4027,-1.5508,-1.5587,-1.5305,-1.579,-1.593,-1.6009,-1.6515,-1.6932,-1.7432,-1.7862,-1.8008,-1.8008,-1.8008,-1.8008,-1.8008,-1.8008,-1.8008,-1.8008,-1.8008,-1.8008,-1.8008,-1.8008,-1.8008,-1.8008,-1.8008,-1.8193,-1.837,-1.8607,-1.8856,-1.9215,-1.9901,-2.0333,-2.0782,-2.1227,-2.1604,-2.1678,-2.1239,-2.0846,-2.0782,-2.1239,-2.0782,-2.0846,-2.1239,-2.1678,-2.2051,0.0,0.0,0.0,0.0,0.0,-0.0447,0.0,0.0,0.0,-0.0448,-0.0448,0.0,0.0,0.0,0.0,0.0,0.0,0.0,0.0,-0.0705,0.0,-0.0066,0.0,0.0,0.0,-0.0535,-0.0938,-0.101,-0.342,-0.504,-0.5406,-0.403,-0.3887,-0.5376,-0.5376,-0.5369,-0.5428,-0.5428,-0.5428,-0.5428,-0.5428,-0.5428,-0.5428,-0.5428,-0.5491,-0.5686,-0.6396,-0.7307,-0.8291,-0.9011,-0.9916,-1.0804,-0.9428,-0.8896,-0.897,-0.9806,-1.0051,-1.0152,-1.1044,-1.1343,-1.1349,-1.141,-1.1763,-1.2219,-1.2353,-1.3263,-1.4593,-1.6358,-1.6289,-1.5939,-1.6636,-1.6853,-1.6853,-1.6853,-1.7432,-1.8008,-1.8008,-1.8008,-1.8008,-1.8008,-1.8008,-1.8008,-1.8008,-1.8008,-1.8008,-1.8008,-1.8008,-1.8008,-1.8008,-1.8008,-1.8008,-1.8008,-1.8008,-1.8337,-1.9243,-1.9299,-1.9748,-2.0782,-2.1491,-2.1939,-2.2125,-2.2763,-2.2823,-2.2125,-2.1428,-2.1416,-2.2137,-2.2137,-2.2137,-2.2125,-2.2823,-2.3078,0.0,0.0,0.0,0.0,-0.2963,0.0,0.0,0.0,-0.1952,-0.1952,0.0,0.0,0.0,0.0,0.0,0.0,0.0,0.0,-0.1768,-0.3112,-0.2999,-0.0312,0.0,0.0,0.0,-0.2402,-0.4211,-0.4721,-0.3682,-0.3733,-0.5322,-0.5183,-0.5176,-0.5379,-0.5369,-0.5428,-0.5428,-0.5428,-0.5428,-0.5428,-0.5428,-0.5428,-0.5428,-0.5428,-0.5815,-0.6588,-0.6654,-0.7632,-0.9139,-0.9274,-0.9804,-1.0635,-1.066,-1.0704,-1.0698,-1.0837,-1.0745,-1.0566,-1.0949,-1.1042,-1.1082,-1.1343,-1.2172,-1.3329,-1.4138,-1.5282,-1.6498,-1.7579,-1.7794,-1.7725,-1.7794,-1.7862,-1.7862,-1.7862,-1.794,-1.8008,-1.8008,-1.8008,-1.8008,-1.8008,-1.8008,-1.8008,-1.8008,-1.8008,-1.8008,-1.8008,-1.8008,-1.8008,-1.8008,-1.8008,-1.8008,-1.8008,-1.8008,-1.8337,-1.9243,-1.9299,-2.0009,-2.1616,-2.1815,-2.2199,-2.2944,-2.3078,-2.3078,-2.2944,-2.2884,-2.2884,-2.2944,-2.2944,-2.2944,-2.2944,-2.3078,-2.3078,0.0,0.0,0.0,0.0,0.0,0.0,-0.3527,0.0,-0.3527,0.0,0.0,0.0,0.0,0.0,0.0,0.0,-0.2999,0.0,0.0,0.0,-0.3389,0.0,0.0,0.0,0.0,-0.2715,-0.4727,-0.5336,-0.459,-0.4496,-0.5376,-0.5376,-0.5369,-0.5369,-0.5428,-0.5428,-0.5428,-0.5428,-0.5428,-0.5428,-0.5428,-0.5428,-0.5425,-0.5947,-0.6334,-0.6785,-0.7762,-0.8619,-0.9338,-0.9849,-1.0301,-1.0631,-1.0695,-1.0742,-1.0742,-1.0742,-1.0732,-1.0645,-1.0701,-1.0742,-1.0945,-1.1942,-1.246,-1.3042,-1.5146,-1.5996,-1.6483,-1.7648,-1.8008,-1.8008,-1.8008,-1.8008,-1.8008,-1.8008,-1.8008,-1.8008,-1.8008,-1.8008,-1.8008,-1.8008,-1.8008,-1.8008,-1.8008,-1.8008,-1.8008,-1.8008,-1.8008,-1.8008,-1.8008,-1.8462,-1.8721,-1.8721,-1.9233,-1.9879,-2.0719,-2.0782,-2.129,-2.2506,-2.258,-2.2763,-2.3078,-2.3078,-2.3078,-2.3078,-2.3078,-2.3078,-2.3078,-2.3078,-2.3365,-2.3767,-2.3305,-2.3078,-0.4519,0.0,0.0,0.0,0.0,0.0,0.0,0.0,-0.4487,0.0,0.0,0.0,0.0,0.0,0.0,0.0,0.0,-0.4092,0.0,0.0,0.0,0.0,0.0,0.0,0.0,-0.2975,-0.4734,-0.5205,-0.5058,-0.5104,-0.5301,-0.5301,-0.5318,-0.5425,-0.5428,-0.5428,-0.5428,-0.5428,-0.5428,-0.5428,-0.5428,-0.5428,-0.5428,-0.6334,-0.685,-0.7111,-0.8613,-0.9466,-0.9722,-1.0364,-1.0624,-1.0624,-1.0624,-1.0624,-1.0624,-1.0624,-1.0624,-1.0624,-1.0624,-1.0744,-1.1122,-1.2477,-1.2905,-1.3373,-1.5601,-1.6318,-1.655,-1.7668,-1.8008,-1.8008,-1.8008,-1.8008,-1.8008,-1.8008,-1.8008,-1.8008,-1.8008,-1.8008,-1.8076,-1.8337,-1.8134,-1.8134,-1.8654,-1.8337,-1.8008,-1.8008,-1.8008,-1.8076,-1.8337,-1.8911,-1.9365,-1.9628,-2.0204,-2.0974,-2.1815,-2.1877,-2.2249,-2.3078,-2.3078,-2.3078,-2.3078,-2.3078,-2.3078,-2.3078,-2.3078,-2.3078,-2.3078,-2.3305,-2.3708,-2.4292,-2.3484,-2.3305,0.0,-0.4519,0.0,-0.4519,-0.4519,-0.4519,-0.4519,-0.4519,-0.4519,-0.4519,-0.4519,0.0,0.0,0.0,0.0,0.0,0.0,0.0,0.0,0.0,0.0,0.0,0.0,0.0,0.0,-0.3597,-0.4604,0.0,-0.474,-0.4833,-0.5125,-0.5138,-0.5206,-0.5422,-0.5428,-0.5428,-0.5428,-0.5428,-0.5428,-0.5428,-0.5428,-0.5428,-0.5428,-0.6334,-0.7177,-0.8027,-0.8877,-0.9786,-1.0561,-1.0561,-1.0624,-1.0624,-1.0624,-1.0624,-1.0624,-1.0624,-1.0624,-1.0624,-1.0624,-1.1108,-1.1896,-1.2728,-1.3829,-1.4881,-1.5359,-1.6374,-1.7471,-1.7891,-1.8008,-1.8008,-1.8008,-1.8008,-1.8008,-1.8008,-1.8008,-1.8008,-1.8008,-1.8008,-1.8269,-1.911,-1.8596,-1.8529,-2.0204,-1.911,-1.8008,-1.8008,-1.8008,-1.8269,-1.9177,-1.9299,-1.9628,-2.0462,-2.059,-2.0974,-2.1815,-2.1877,-2.2249,-2.3078,-2.3078,-2.3078,-2.3078,-2.3078,-2.3078,-2.3078,-2.3078,-2.3078,-2.3078,-2.3884,-2.4292,-2.4292,-2.3484,-2.3872,-0.4519,-0.4519,-0.4519,-0.4519,-0.4519,-0.4519,-0.4519,-0.4519,-0.4519,-0.4519,-0.4519,-0.4519,-0.4519,0.0,0.0,0.0,0.0,0.0,0.0,0.0,0.0,0.0,0.0,0.0,0.0,0.0,-0.4588,-0.4799,-0.4817,-0.4925,-0.5121,-0.5226,-0.5308,-0.5425,-0.5428,-0.5428,-0.5428,-0.5428,-0.5428,-0.5428,-0.6009,-0.6268,-0.6334,-0.7767,-0.8549,-0.8877,-0.9786,-1.0301,-1.0624,-1.0624,-1.0624,-1.0624,-1.0624,-1.0926,-1.1351,-1.0807,-1.0926,-1.1469,-1.2027,-1.2397,-1.2797,-1.3899,-1.4337,-1.466,-1.5921,-1.6423,-1.666,-1.7393,-1.7598,-1.7656,-1.7939,-1.8008,-1.8008,-1.8008,-1.8462,-1.8844,-1.8844,-1.9299,-1.9824,-2.0074,-1.9944,-1.9879,-2.0526,-2.0139,-1.9694,-1.9694,-1.9694,-1.9824,-2.0139,-2.0655,-2.1101,-2.1428,-2.1928,-2.2372,-2.2689,-2.2689,-2.2823,-2.3065,-2.3078,-2.3078,-2.3078,-2.3078,-2.3078,-2.3078,-2.359,-2.3884,-2.3884,-2.4681,-2.5287,-2.5728,-2.5007,-2.4894,-0.4519,-0.4519,-0.4519,-0.4519,-0.4519,-0.4519,-0.4519,-0.4519,-0.4519,-0.4519,-0.4519,-0.4519,-0.4519,0.0,0.0,0.0,0.0,0.0,0.0,-0.4519,0.0,0.0,0.0,0.0,0.0,0.0,-0.4545,-0.4699,-0.4753,0.0,0.0,-0.5199,-0.5304,-0.5425,-0.5428,-0.5428,-0.5428,-0.5428,-0.5428,-0.5428,-0.6268,-0.6719,-0.6785,-0.8484,-0.9274,-0.9338,-1.0238,-1.0624,-1.0624,-1.0624,-1.0624,-1.0624,-1.0926,-1.1351,-1.1772,-1.1226,-1.1538,-1.2328,-1.3122,-1.3433,-1.3588,-1.4693,-1.4842,-1.4877,-1.6085,-1.6289,-1.6282,-1.6943,-1.7148,-1.7246,-1.7676,-1.7793,-1.789,-1.8365,-1.8911,-1.9365,-1.9694,-2.0204,-2.0719,-2.0974,-2.0782,-2.0782,-2.1416,-2.1227,-2.0974,-2.0655,-2.059,-2.0719,-2.1037,-2.1553,-2.2002,-2.2322,-2.2823,-2.3078,-2.3078,-2.3078,-2.3078,-2.3078,-2.3365,-2.3543,-2.3543,-2.3767,-2.393,-2.393,-2.4452,-2.4681,-2.4681,-2.5453,-2.6068,-2.651,-2.6269,-2.6162]}]]